<?xml version="1.0" encoding="UTF-8" standalone="no" ?>
<gpx xmlns="http://www.topografix.com/GPX/1/1" xmlns:xsi="http://www.w3.org/2001/XMLSchema-instance" xsi:schemaLocation="http://www.topografix.com/GPX/1/1 http://www.topografix.com/GPX/1/1/gpx.xsd" version="1.1" creator="VisuGPX - https://www.visugpx.com">
  <metadata>
    <name>circuit 38,5 km St-Victor Montvianeix</name>
    <desc><![CDATA[Circuit 38,5 km (D  1280m) deux départs possibles de La Trappe ou de Pitelet pour Topo guides 2017 Espace VTT des Bois Noirs.]]></desc>
  </metadata>
  <trk>
    <name><![CDATA[Tracé 10 avr. 2017 12:33:05]]></name>
    <trkseg>
      <trkpt lat="45.93895" lon="3.63141">
        <ele>729.85579333333</ele>
        <time>2017-04-10T10:33:05Z</time>
      </trkpt>
      <trkpt lat="45.93903" lon="3.63143">
        <ele>730.75613333333</ele>
        <time>2017-04-10T10:34:17Z</time>
      </trkpt>
      <trkpt lat="45.9391" lon="3.63159">
        <ele>732.1564</ele>
        <time>2017-04-10T10:34:20Z</time>
      </trkpt>
      <trkpt lat="45.93914" lon="3.63168">
        <ele>732.05655333333</ele>
        <time>2017-04-10T10:34:22Z</time>
      </trkpt>
      <trkpt lat="45.93919" lon="3.63177">
        <ele>732.05676666667</ele>
        <time>2017-04-10T10:34:27Z</time>
      </trkpt>
      <trkpt lat="45.93938" lon="3.6322">
        <ele>732.45752</ele>
        <time>2017-04-10T10:34:32Z</time>
      </trkpt>
      <trkpt lat="45.93947" lon="3.63243">
        <ele>732.65786666667</ele>
        <time>2017-04-10T10:34:36Z</time>
      </trkpt>
      <trkpt lat="45.93956" lon="3.63266">
        <ele>732.75822</ele>
        <time>2017-04-10T10:34:40Z</time>
      </trkpt>
      <trkpt lat="45.93963" lon="3.63281">
        <ele>732.75852</ele>
        <time>2017-04-10T10:34:43Z</time>
      </trkpt>
      <trkpt lat="45.93974" lon="3.63303">
        <ele>732.75895333333</ele>
        <time>2017-04-10T10:34:47Z</time>
      </trkpt>
      <trkpt lat="45.93981" lon="3.63312">
        <ele>732.55922</ele>
        <time>2017-04-10T10:34:50Z</time>
      </trkpt>
      <trkpt lat="45.94002" lon="3.63322">
        <ele>732.96009333333</ele>
        <time>2017-04-10T10:34:54Z</time>
      </trkpt>
      <trkpt lat="45.94021" lon="3.63318">
        <ele>733.16084</ele>
        <time>2017-04-10T10:34:58Z</time>
      </trkpt>
      <trkpt lat="45.9404" lon="3.63312">
        <ele>734.06159333333</ele>
        <time>2017-04-10T10:35:01Z</time>
      </trkpt>
      <trkpt lat="45.94053" lon="3.63303">
        <ele>734.9621</ele>
        <time>2017-04-10T10:35:05Z</time>
      </trkpt>
      <trkpt lat="45.94073" lon="3.63288">
        <ele>734.26290666667</ele>
        <time>2017-04-10T10:35:09Z</time>
      </trkpt>
      <trkpt lat="45.94084" lon="3.63278">
        <ele>734.96336</ele>
        <time>2017-04-10T10:35:14Z</time>
      </trkpt>
      <trkpt lat="45.94105" lon="3.63265">
        <ele>736.26418</ele>
        <time>2017-04-10T10:35:18Z</time>
      </trkpt>
      <trkpt lat="45.94121" lon="3.63256">
        <ele>737.26483333333</ele>
        <time>2017-04-10T10:35:22Z</time>
      </trkpt>
      <trkpt lat="45.94134" lon="3.63251">
        <ele>737.76534666667</ele>
        <time>2017-04-10T10:35:25Z</time>
      </trkpt>
      <trkpt lat="45.94179" lon="3.63239">
        <ele>740.56715333333</ele>
        <time>2017-04-10T10:35:36Z</time>
      </trkpt>
      <trkpt lat="45.94185" lon="3.6324">
        <ele>742.36738</ele>
        <time>2017-04-10T10:35:41Z</time>
      </trkpt>
      <trkpt lat="45.94195" lon="3.63242">
        <ele>743.06778</ele>
        <time>2017-04-10T10:35:44Z</time>
      </trkpt>
      <trkpt lat="45.94201" lon="3.63243">
        <ele>743.86805333333</ele>
        <time>2017-04-10T10:35:47Z</time>
      </trkpt>
      <trkpt lat="45.94216" lon="3.6325">
        <ele>746.76863333333</ele>
        <time>2017-04-10T10:35:55Z</time>
      </trkpt>
      <trkpt lat="45.94224" lon="3.63255">
        <ele>748.56896666667</ele>
        <time>2017-04-10T10:36:00Z</time>
      </trkpt>
      <trkpt lat="45.9423" lon="3.63257">
        <ele>749.76921333333</ele>
        <time>2017-04-10T10:36:03Z</time>
      </trkpt>
      <trkpt lat="45.9424" lon="3.63261">
        <ele>751.06958</ele>
        <time>2017-04-10T10:36:08Z</time>
      </trkpt>
      <trkpt lat="45.94248" lon="3.63263">
        <ele>753.36993333333</ele>
        <time>2017-04-10T10:36:20Z</time>
      </trkpt>
      <trkpt lat="45.94257" lon="3.63267">
        <ele>755.47028666667</ele>
        <time>2017-04-10T10:36:23Z</time>
      </trkpt>
      <trkpt lat="45.94266" lon="3.63272">
        <ele>756.17064666667</ele>
        <time>2017-04-10T10:36:35Z</time>
      </trkpt>
      <trkpt lat="45.94281" lon="3.63276">
        <ele>759.77124</ele>
        <time>2017-04-10T10:36:37Z</time>
      </trkpt>
      <trkpt lat="45.94282" lon="3.63276">
        <ele>760.27129333333</ele>
        <time>2017-04-10T10:36:44Z</time>
      </trkpt>
      <trkpt lat="45.94293" lon="3.63283">
        <ele>762.77170666667</ele>
        <time>2017-04-10T10:36:44Z</time>
      </trkpt>
      <trkpt lat="45.94298" lon="3.63289">
        <ele>764.47190666667</ele>
        <time>2017-04-10T10:36:56Z</time>
      </trkpt>
      <trkpt lat="45.94307" lon="3.63299">
        <ele>768.67227333333</ele>
        <time>2017-04-10T10:37:00Z</time>
      </trkpt>
      <trkpt lat="45.94312" lon="3.63307">
        <ele>770.27249333333</ele>
        <time>2017-04-10T10:37:04Z</time>
      </trkpt>
      <trkpt lat="45.94319" lon="3.63319">
        <ele>770.97277333333</ele>
        <time>2017-04-10T10:37:09Z</time>
      </trkpt>
      <trkpt lat="45.94327" lon="3.63327">
        <ele>770.97306666667</ele>
        <time>2017-04-10T10:37:11Z</time>
      </trkpt>
      <trkpt lat="45.94331" lon="3.63338">
        <ele>770.57324666667</ele>
        <time>2017-04-10T10:37:16Z</time>
      </trkpt>
      <trkpt lat="45.94335" lon="3.63347">
        <ele>770.87339333333</ele>
        <time>2017-04-10T10:37:21Z</time>
      </trkpt>
      <trkpt lat="45.94337" lon="3.6336">
        <ele>770.77348</ele>
        <time>2017-04-10T10:37:28Z</time>
      </trkpt>
      <trkpt lat="45.94336" lon="3.6337">
        <ele>771.47344</ele>
        <time>2017-04-10T10:37:32Z</time>
      </trkpt>
      <trkpt lat="45.94336" lon="3.63383">
        <ele>772.47344666667</ele>
        <time>2017-04-10T10:37:37Z</time>
      </trkpt>
      <trkpt lat="45.94334" lon="3.63394">
        <ele>772.77337333333</ele>
        <time>2017-04-10T10:37:45Z</time>
      </trkpt>
      <trkpt lat="45.94327" lon="3.63411">
        <ele>774.77308666667</ele>
        <time>2017-04-10T10:37:48Z</time>
      </trkpt>
      <trkpt lat="45.94326" lon="3.63417">
        <ele>775.47302</ele>
        <time>2017-04-10T10:37:50Z</time>
      </trkpt>
      <trkpt lat="45.9432" lon="3.6344">
        <ele>776.57281333333</ele>
        <time>2017-04-10T10:38:00Z</time>
      </trkpt>
      <trkpt lat="45.94319" lon="3.63458">
        <ele>776.87276</ele>
        <time>2017-04-10T10:38:04Z</time>
      </trkpt>
      <trkpt lat="45.94317" lon="3.63477">
        <ele>776.37267333333</ele>
        <time>2017-04-10T10:38:07Z</time>
      </trkpt>
      <trkpt lat="45.94317" lon="3.63488">
        <ele>775.67266666667</ele>
        <time>2017-04-10T10:38:17Z</time>
      </trkpt>
      <trkpt lat="45.94314" lon="3.63526">
        <ele>774.47256666667</ele>
        <time>2017-04-10T10:38:17Z</time>
      </trkpt>
      <trkpt lat="45.94316" lon="3.63592">
        <ele>774.07265333333</ele>
        <time>2017-04-10T10:38:29Z</time>
      </trkpt>
      <trkpt lat="45.94316" lon="3.63623">
        <ele>774.47262</ele>
        <time>2017-04-10T10:38:36Z</time>
      </trkpt>
      <trkpt lat="45.94317" lon="3.63635">
        <ele>774.97267333333</ele>
        <time>2017-04-10T10:38:38Z</time>
      </trkpt>
      <trkpt lat="45.94318" lon="3.63638">
        <ele>775.07271333333</ele>
        <time>2017-04-10T10:38:50Z</time>
      </trkpt>
      <trkpt lat="45.94329" lon="3.63694">
        <ele>777.77315333333</ele>
        <time>2017-04-10T10:38:55Z</time>
      </trkpt>
      <trkpt lat="45.94332" lon="3.63699">
        <ele>778.17328</ele>
        <time>2017-04-10T10:39:00Z</time>
      </trkpt>
      <trkpt lat="45.94347" lon="3.63716">
        <ele>781.37386</ele>
        <time>2017-04-10T10:39:05Z</time>
      </trkpt>
      <trkpt lat="45.94352" lon="3.63724">
        <ele>783.57406</ele>
        <time>2017-04-10T10:39:09Z</time>
      </trkpt>
      <trkpt lat="45.94371" lon="3.63754">
        <ele>789.27483333333</ele>
        <time>2017-04-10T10:39:21Z</time>
      </trkpt>
      <trkpt lat="45.94376" lon="3.63769">
        <ele>789.97504</ele>
        <time>2017-04-10T10:39:26Z</time>
      </trkpt>
      <trkpt lat="45.94381" lon="3.63779">
        <ele>790.97522666667</ele>
        <time>2017-04-10T10:39:30Z</time>
      </trkpt>
      <trkpt lat="45.94386" lon="3.63788">
        <ele>792.37544</ele>
        <time>2017-04-10T10:39:34Z</time>
      </trkpt>
      <trkpt lat="45.94391" lon="3.63799">
        <ele>793.47565333333</ele>
        <time>2017-04-10T10:39:37Z</time>
      </trkpt>
      <trkpt lat="45.94394" lon="3.63806">
        <ele>793.87575333333</ele>
        <time>2017-04-10T10:39:40Z</time>
      </trkpt>
      <trkpt lat="45.94397" lon="3.63818">
        <ele>793.77586666667</ele>
        <time>2017-04-10T10:39:43Z</time>
      </trkpt>
      <trkpt lat="45.94402" lon="3.6384">
        <ele>794.17609333333</ele>
        <time>2017-04-10T10:39:48Z</time>
      </trkpt>
      <trkpt lat="45.94401" lon="3.6386">
        <ele>793.27602666667</ele>
        <time>2017-04-10T10:39:52Z</time>
      </trkpt>
      <trkpt lat="45.94396" lon="3.6387">
        <ele>792.87585333333</ele>
        <time>2017-04-10T10:39:54Z</time>
      </trkpt>
      <trkpt lat="45.94393" lon="3.63876">
        <ele>792.57573333333</ele>
        <time>2017-04-10T10:40:00Z</time>
      </trkpt>
      <trkpt lat="45.94366" lon="3.63907">
        <ele>791.67462666667</ele>
        <time>2017-04-10T10:40:05Z</time>
      </trkpt>
      <trkpt lat="45.9436" lon="3.63912">
        <ele>791.87440666667</ele>
        <time>2017-04-10T10:40:19Z</time>
      </trkpt>
      <trkpt lat="45.94334" lon="3.63939">
        <ele>792.77335333333</ele>
        <time>2017-04-10T10:40:19Z</time>
      </trkpt>
      <trkpt lat="45.94314" lon="3.63955">
        <ele>797.57254</ele>
        <time>2017-04-10T10:40:31Z</time>
      </trkpt>
      <trkpt lat="45.94311" lon="3.63965">
        <ele>799.17244666667</ele>
        <time>2017-04-10T10:40:37Z</time>
      </trkpt>
      <trkpt lat="45.94309" lon="3.63976">
        <ele>800.87235333333</ele>
        <time>2017-04-10T10:40:45Z</time>
      </trkpt>
      <trkpt lat="45.94304" lon="3.63985">
        <ele>801.67214</ele>
        <time>2017-04-10T10:40:51Z</time>
      </trkpt>
      <trkpt lat="45.94301" lon="3.63996">
        <ele>802.57205333333</ele>
        <time>2017-04-10T10:41:00Z</time>
      </trkpt>
      <trkpt lat="45.94301" lon="3.64018">
        <ele>802.67202666667</ele>
        <time>2017-04-10T10:41:05Z</time>
      </trkpt>
      <trkpt lat="45.94302" lon="3.64031">
        <ele>803.87209333333</ele>
        <time>2017-04-10T10:41:10Z</time>
      </trkpt>
      <trkpt lat="45.943" lon="3.64036">
        <ele>803.97198666667</ele>
        <time>2017-04-10T10:41:17Z</time>
      </trkpt>
      <trkpt lat="45.94297" lon="3.64043">
        <ele>804.47186666667</ele>
        <time>2017-04-10T10:41:17Z</time>
      </trkpt>
      <trkpt lat="45.94294" lon="3.64048">
        <ele>804.97174666667</ele>
        <time>2017-04-10T10:41:24Z</time>
      </trkpt>
      <trkpt lat="45.94289" lon="3.64053">
        <ele>805.97156</ele>
        <time>2017-04-10T10:41:24Z</time>
      </trkpt>
      <trkpt lat="45.9428" lon="3.64052">
        <ele>807.9712</ele>
        <time>2017-04-10T10:41:31Z</time>
      </trkpt>
      <trkpt lat="45.94273" lon="3.64044">
        <ele>809.77093333333</ele>
        <time>2017-04-10T10:41:38Z</time>
      </trkpt>
      <trkpt lat="45.94268" lon="3.64037">
        <ele>811.37070666667</ele>
        <time>2017-04-10T10:41:44Z</time>
      </trkpt>
      <trkpt lat="45.94263" lon="3.64037">
        <ele>812.37052666667</ele>
        <time>2017-04-10T10:41:50Z</time>
      </trkpt>
      <trkpt lat="45.94255" lon="3.6404">
        <ele>813.47018666667</ele>
        <time>2017-04-10T10:41:56Z</time>
      </trkpt>
      <trkpt lat="45.94246" lon="3.64045">
        <ele>814.56984666667</ele>
        <time>2017-04-10T10:42:00Z</time>
      </trkpt>
      <trkpt lat="45.94239" lon="3.64051">
        <ele>816.16954666667</ele>
        <time>2017-04-10T10:42:08Z</time>
      </trkpt>
      <trkpt lat="45.94232" lon="3.64059">
        <ele>818.16928666667</ele>
        <time>2017-04-10T10:42:17Z</time>
      </trkpt>
      <trkpt lat="45.94225" lon="3.64063">
        <ele>819.36898</ele>
        <time>2017-04-10T10:42:22Z</time>
      </trkpt>
      <trkpt lat="45.94218" lon="3.64067">
        <ele>819.96870666667</ele>
        <time>2017-04-10T10:42:26Z</time>
      </trkpt>
      <trkpt lat="45.94209" lon="3.64071">
        <ele>820.96836666667</ele>
        <time>2017-04-10T10:42:29Z</time>
      </trkpt>
      <trkpt lat="45.94201" lon="3.64074">
        <ele>821.86802666667</ele>
        <time>2017-04-10T10:42:36Z</time>
      </trkpt>
      <trkpt lat="45.94195" lon="3.64077">
        <ele>822.16781333333</ele>
        <time>2017-04-10T10:42:51Z</time>
      </trkpt>
      <trkpt lat="45.94182" lon="3.64088">
        <ele>822.36726</ele>
        <time>2017-04-10T10:42:51Z</time>
      </trkpt>
      <trkpt lat="45.94178" lon="3.6409">
        <ele>822.26713333333</ele>
        <time>2017-04-10T10:42:58Z</time>
      </trkpt>
      <trkpt lat="45.94162" lon="3.64103">
        <ele>822.56646</ele>
        <time>2017-04-10T10:43:03Z</time>
      </trkpt>
      <trkpt lat="45.94155" lon="3.64108">
        <ele>823.76618</ele>
        <time>2017-04-10T10:43:08Z</time>
      </trkpt>
      <trkpt lat="45.94136" lon="3.64128">
        <ele>823.76544</ele>
        <time>2017-04-10T10:43:19Z</time>
      </trkpt>
      <trkpt lat="45.94118" lon="3.64145">
        <ele>824.26470666667</ele>
        <time>2017-04-10T10:43:25Z</time>
      </trkpt>
      <trkpt lat="45.94103" lon="3.64149">
        <ele>825.46413333333</ele>
        <time>2017-04-10T10:43:30Z</time>
      </trkpt>
      <trkpt lat="45.94082" lon="3.64154">
        <ele>825.76326666667</ele>
        <time>2017-04-10T10:43:36Z</time>
      </trkpt>
      <trkpt lat="45.94071" lon="3.64171">
        <ele>825.86283333333</ele>
        <time>2017-04-10T10:43:40Z</time>
      </trkpt>
      <trkpt lat="45.94075" lon="3.64183">
        <ele>825.763</ele>
        <time>2017-04-10T10:43:44Z</time>
      </trkpt>
      <trkpt lat="45.94081" lon="3.642">
        <ele>826.06322</ele>
        <time>2017-04-10T10:43:47Z</time>
      </trkpt>
      <trkpt lat="45.94083" lon="3.64211">
        <ele>826.0633</ele>
        <time>2017-04-10T10:43:53Z</time>
      </trkpt>
      <trkpt lat="45.94081" lon="3.64232">
        <ele>827.16323333333</ele>
        <time>2017-04-10T10:43:58Z</time>
      </trkpt>
      <trkpt lat="45.94083" lon="3.64246">
        <ele>828.16330666667</ele>
        <time>2017-04-10T10:44:02Z</time>
      </trkpt>
      <trkpt lat="45.94081" lon="3.6426">
        <ele>828.26324666667</ele>
        <time>2017-04-10T10:44:06Z</time>
      </trkpt>
      <trkpt lat="45.9408" lon="3.64282">
        <ele>828.96320666667</ele>
        <time>2017-04-10T10:44:10Z</time>
      </trkpt>
      <trkpt lat="45.94082" lon="3.64303">
        <ele>829.76327333333</ele>
        <time>2017-04-10T10:44:13Z</time>
      </trkpt>
      <trkpt lat="45.94081" lon="3.64339">
        <ele>830.96322666667</ele>
        <time>2017-04-10T10:44:18Z</time>
      </trkpt>
      <trkpt lat="45.94077" lon="3.64363">
        <ele>832.06309333333</ele>
        <time>2017-04-10T10:44:23Z</time>
      </trkpt>
      <trkpt lat="45.9405" lon="3.64405">
        <ele>827.86198666667</ele>
        <time>2017-04-10T10:44:31Z</time>
      </trkpt>
      <trkpt lat="45.94047" lon="3.64408">
        <ele>827.46189333333</ele>
        <time>2017-04-10T10:44:33Z</time>
      </trkpt>
      <trkpt lat="45.94034" lon="3.64429">
        <ele>825.56137333333</ele>
        <time>2017-04-10T10:44:38Z</time>
      </trkpt>
      <trkpt lat="45.94024" lon="3.64441">
        <ele>822.96094666667</ele>
        <time>2017-04-10T10:44:41Z</time>
      </trkpt>
      <trkpt lat="45.94012" lon="3.6445">
        <ele>819.56046</ele>
        <time>2017-04-10T10:44:46Z</time>
      </trkpt>
      <trkpt lat="45.94006" lon="3.64454">
        <ele>818.16023333333</ele>
        <time>2017-04-10T10:44:47Z</time>
      </trkpt>
      <trkpt lat="45.93995" lon="3.64461">
        <ele>817.05981333333</ele>
        <time>2017-04-10T10:44:52Z</time>
      </trkpt>
      <trkpt lat="45.9399" lon="3.64464">
        <ele>816.1596</ele>
        <time>2017-04-10T10:44:54Z</time>
      </trkpt>
      <trkpt lat="45.93973" lon="3.64474">
        <ele>813.75892666667</ele>
        <time>2017-04-10T10:45:00Z</time>
      </trkpt>
      <trkpt lat="45.93968" lon="3.64478">
        <ele>813.2587</ele>
        <time>2017-04-10T10:45:02Z</time>
      </trkpt>
      <trkpt lat="45.93961" lon="3.64484">
        <ele>812.45842</ele>
        <time>2017-04-10T10:45:06Z</time>
      </trkpt>
      <trkpt lat="45.93946" lon="3.64496">
        <ele>811.75782</ele>
        <time>2017-04-10T10:45:11Z</time>
      </trkpt>
      <trkpt lat="45.93937" lon="3.6451">
        <ele>811.25746</ele>
        <time>2017-04-10T10:45:15Z</time>
      </trkpt>
      <trkpt lat="45.9393" lon="3.64519">
        <ele>812.15720666667</ele>
        <time>2017-04-10T10:45:19Z</time>
      </trkpt>
      <trkpt lat="45.93926" lon="3.64524">
        <ele>812.45703333333</ele>
        <time>2017-04-10T10:45:23Z</time>
      </trkpt>
      <trkpt lat="45.93919" lon="3.64533">
        <ele>812.65677333333</ele>
        <time>2017-04-10T10:45:27Z</time>
      </trkpt>
      <trkpt lat="45.93912" lon="3.64542">
        <ele>811.75648666667</ele>
        <time>2017-04-10T10:45:31Z</time>
      </trkpt>
      <trkpt lat="45.93905" lon="3.64553">
        <ele>812.7562</ele>
        <time>2017-04-10T10:45:35Z</time>
      </trkpt>
      <trkpt lat="45.93897" lon="3.64565">
        <ele>815.55588</ele>
        <time>2017-04-10T10:45:40Z</time>
      </trkpt>
      <trkpt lat="45.93891" lon="3.64573">
        <ele>817.35563333333</ele>
        <time>2017-04-10T10:45:43Z</time>
      </trkpt>
      <trkpt lat="45.93885" lon="3.64581">
        <ele>818.2554</ele>
        <time>2017-04-10T10:45:47Z</time>
      </trkpt>
      <trkpt lat="45.9388" lon="3.64591">
        <ele>820.45518</ele>
        <time>2017-04-10T10:45:53Z</time>
      </trkpt>
      <trkpt lat="45.93875" lon="3.64601">
        <ele>822.855</ele>
        <time>2017-04-10T10:45:57Z</time>
      </trkpt>
      <trkpt lat="45.93872" lon="3.6461">
        <ele>824.75489333333</ele>
        <time>2017-04-10T10:46:02Z</time>
      </trkpt>
      <trkpt lat="45.9387" lon="3.64621">
        <ele>826.15478</ele>
        <time>2017-04-10T10:46:06Z</time>
      </trkpt>
      <trkpt lat="45.93868" lon="3.64632">
        <ele>826.85472666667</ele>
        <time>2017-04-10T10:46:10Z</time>
      </trkpt>
      <trkpt lat="45.93872" lon="3.64658">
        <ele>827.45488</ele>
        <time>2017-04-10T10:46:19Z</time>
      </trkpt>
      <trkpt lat="45.93875" lon="3.64666">
        <ele>828.555</ele>
        <time>2017-04-10T10:46:23Z</time>
      </trkpt>
      <trkpt lat="45.93878" lon="3.64675">
        <ele>829.45510666667</ele>
        <time>2017-04-10T10:46:27Z</time>
      </trkpt>
      <trkpt lat="45.93881" lon="3.64685">
        <ele>830.85523333333</ele>
        <time>2017-04-10T10:46:31Z</time>
      </trkpt>
      <trkpt lat="45.93882" lon="3.64695">
        <ele>833.45526666667</ele>
        <time>2017-04-10T10:46:37Z</time>
      </trkpt>
      <trkpt lat="45.93883" lon="3.64707">
        <ele>835.75533333333</ele>
        <time>2017-04-10T10:46:44Z</time>
      </trkpt>
      <trkpt lat="45.93882" lon="3.64717">
        <ele>837.65528666667</ele>
        <time>2017-04-10T10:46:49Z</time>
      </trkpt>
      <trkpt lat="45.93879" lon="3.64727">
        <ele>839.35516</ele>
        <time>2017-04-10T10:46:55Z</time>
      </trkpt>
      <trkpt lat="45.93876" lon="3.64735">
        <ele>840.35502</ele>
        <time>2017-04-10T10:47:00Z</time>
      </trkpt>
      <trkpt lat="45.93874" lon="3.64739">
        <ele>840.55496666667</ele>
        <time>2017-04-10T10:47:02Z</time>
      </trkpt>
      <trkpt lat="45.93867" lon="3.64742">
        <ele>841.75466</ele>
        <time>2017-04-10T10:47:06Z</time>
      </trkpt>
      <trkpt lat="45.93863" lon="3.64744">
        <ele>842.4545</ele>
        <time>2017-04-10T10:47:15Z</time>
      </trkpt>
      <trkpt lat="45.93852" lon="3.64753">
        <ele>845.85407333333</ele>
        <time>2017-04-10T10:47:19Z</time>
      </trkpt>
      <trkpt lat="45.93845" lon="3.64756">
        <ele>847.65381333333</ele>
        <time>2017-04-10T10:47:24Z</time>
      </trkpt>
      <trkpt lat="45.93838" lon="3.64756">
        <ele>848.9535</ele>
        <time>2017-04-10T10:47:29Z</time>
      </trkpt>
      <trkpt lat="45.93829" lon="3.64757">
        <ele>849.55315333333</ele>
        <time>2017-04-10T10:47:35Z</time>
      </trkpt>
      <trkpt lat="45.93822" lon="3.64752">
        <ele>850.95287333333</ele>
        <time>2017-04-10T10:47:40Z</time>
      </trkpt>
      <trkpt lat="45.93815" lon="3.64746">
        <ele>853.8526</ele>
        <time>2017-04-10T10:47:45Z</time>
      </trkpt>
      <trkpt lat="45.93809" lon="3.6474">
        <ele>855.35236666667</ele>
        <time>2017-04-10T10:47:52Z</time>
      </trkpt>
      <trkpt lat="45.93803" lon="3.64733">
        <ele>857.15212</ele>
        <time>2017-04-10T10:47:56Z</time>
      </trkpt>
      <trkpt lat="45.93797" lon="3.64726">
        <ele>858.85186</ele>
        <time>2017-04-10T10:48:00Z</time>
      </trkpt>
      <trkpt lat="45.93785" lon="3.64717">
        <ele>860.6514</ele>
        <time>2017-04-10T10:48:05Z</time>
      </trkpt>
      <trkpt lat="45.93774" lon="3.64708">
        <ele>862.65096</ele>
        <time>2017-04-10T10:48:10Z</time>
      </trkpt>
      <trkpt lat="45.93762" lon="3.647">
        <ele>861.05047333333</ele>
        <time>2017-04-10T10:48:14Z</time>
      </trkpt>
      <trkpt lat="45.9375" lon="3.64692">
        <ele>858.75</ele>
        <time>2017-04-10T10:48:18Z</time>
      </trkpt>
      <trkpt lat="45.93742" lon="3.64692">
        <ele>857.94968666667</ele>
        <time>2017-04-10T10:48:21Z</time>
      </trkpt>
      <trkpt lat="45.93738" lon="3.64703">
        <ele>856.94952666667</ele>
        <time>2017-04-10T10:48:25Z</time>
      </trkpt>
      <trkpt lat="45.93741" lon="3.64716">
        <ele>857.14965333333</ele>
        <time>2017-04-10T10:48:29Z</time>
      </trkpt>
      <trkpt lat="45.93744" lon="3.64727">
        <ele>857.54975333333</ele>
        <time>2017-04-10T10:48:33Z</time>
      </trkpt>
      <trkpt lat="45.93747" lon="3.64747">
        <ele>858.34988666667</ele>
        <time>2017-04-10T10:48:37Z</time>
      </trkpt>
      <trkpt lat="45.9375" lon="3.64755">
        <ele>858.54998</ele>
        <time>2017-04-10T10:48:42Z</time>
      </trkpt>
      <trkpt lat="45.93756" lon="3.6478">
        <ele>858.85025333333</ele>
        <time>2017-04-10T10:48:46Z</time>
      </trkpt>
      <trkpt lat="45.93761" lon="3.64794">
        <ele>858.55044666667</ele>
        <time>2017-04-10T10:48:49Z</time>
      </trkpt>
      <trkpt lat="45.93767" lon="3.64811">
        <ele>859.85069333333</ele>
        <time>2017-04-10T10:48:53Z</time>
      </trkpt>
      <trkpt lat="45.93772" lon="3.64831">
        <ele>860.55088</ele>
        <time>2017-04-10T10:48:57Z</time>
      </trkpt>
      <trkpt lat="45.93774" lon="3.64846">
        <ele>861.55096666667</ele>
        <time>2017-04-10T10:49:00Z</time>
      </trkpt>
      <trkpt lat="45.93775" lon="3.64874">
        <ele>861.451</ele>
        <time>2017-04-10T10:49:05Z</time>
      </trkpt>
      <trkpt lat="45.9377" lon="3.649">
        <ele>861.25079333333</ele>
        <time>2017-04-10T10:49:09Z</time>
      </trkpt>
      <trkpt lat="45.93763" lon="3.64924">
        <ele>861.25053333333</ele>
        <time>2017-04-10T10:49:13Z</time>
      </trkpt>
      <trkpt lat="45.93759" lon="3.64942">
        <ele>860.85034666667</ele>
        <time>2017-04-10T10:49:18Z</time>
      </trkpt>
      <trkpt lat="45.93755" lon="3.64954">
        <ele>860.45019333333</ele>
        <time>2017-04-10T10:49:18Z</time>
      </trkpt>
      <trkpt lat="45.93741" lon="3.65011">
        <ele>860.54964666667</ele>
        <time>2017-04-10T10:49:27Z</time>
      </trkpt>
      <trkpt lat="45.9374" lon="3.65031">
        <ele>860.84958</ele>
        <time>2017-04-10T10:49:31Z</time>
      </trkpt>
      <trkpt lat="45.93746" lon="3.65056">
        <ele>860.94984</ele>
        <time>2017-04-10T10:49:34Z</time>
      </trkpt>
      <trkpt lat="45.93759" lon="3.65076">
        <ele>861.15036666667</ele>
        <time>2017-04-10T10:49:37Z</time>
      </trkpt>
      <trkpt lat="45.93774" lon="3.65094">
        <ele>861.35094</ele>
        <time>2017-04-10T10:49:41Z</time>
      </trkpt>
      <trkpt lat="45.93812" lon="3.6513">
        <ele>861.95248666667</ele>
        <time>2017-04-10T10:49:54Z</time>
      </trkpt>
      <trkpt lat="45.93842" lon="3.65144">
        <ele>863.15366</ele>
        <time>2017-04-10T10:50:00Z</time>
      </trkpt>
      <trkpt lat="45.93853" lon="3.65147">
        <ele>863.95410666667</ele>
        <time>2017-04-10T10:50:02Z</time>
      </trkpt>
      <trkpt lat="45.93869" lon="3.65148">
        <ele>864.65475333333</ele>
        <time>2017-04-10T10:50:06Z</time>
      </trkpt>
      <trkpt lat="45.93877" lon="3.65151">
        <ele>864.65508666667</ele>
        <time>2017-04-10T10:50:07Z</time>
      </trkpt>
      <trkpt lat="45.93905" lon="3.65162">
        <ele>865.45618</ele>
        <time>2017-04-10T10:50:15Z</time>
      </trkpt>
      <trkpt lat="45.93954" lon="3.65165">
        <ele>864.35814</ele>
        <time>2017-04-10T10:50:27Z</time>
      </trkpt>
      <trkpt lat="45.93961" lon="3.65163">
        <ele>863.95844666667</ele>
        <time>2017-04-10T10:50:36Z</time>
      </trkpt>
      <trkpt lat="45.94001" lon="3.65156">
        <ele>864.06002666667</ele>
        <time>2017-04-10T10:50:38Z</time>
      </trkpt>
      <trkpt lat="45.94044" lon="3.65148">
        <ele>864.66174666667</ele>
        <time>2017-04-10T10:50:48Z</time>
      </trkpt>
      <trkpt lat="45.94052" lon="3.65147">
        <ele>864.46208</ele>
        <time>2017-04-10T10:51:00Z</time>
      </trkpt>
      <trkpt lat="45.94091" lon="3.65147">
        <ele>864.76363333333</ele>
        <time>2017-04-10T10:51:00Z</time>
      </trkpt>
      <trkpt lat="45.94098" lon="3.65142">
        <ele>863.86390666667</ele>
        <time>2017-04-10T10:51:06Z</time>
      </trkpt>
      <trkpt lat="45.94132" lon="3.65111">
        <ele>857.36526</ele>
        <time>2017-04-10T10:51:10Z</time>
      </trkpt>
      <trkpt lat="45.94151" lon="3.65091">
        <ele>855.86605333333</ele>
        <time>2017-04-10T10:51:14Z</time>
      </trkpt>
      <trkpt lat="45.9416" lon="3.6508">
        <ele>855.56638</ele>
        <time>2017-04-10T10:51:16Z</time>
      </trkpt>
      <trkpt lat="45.94184" lon="3.65071">
        <ele>856.36734666667</ele>
        <time>2017-04-10T10:51:21Z</time>
      </trkpt>
      <trkpt lat="45.94196" lon="3.65069">
        <ele>856.86785333333</ele>
        <time>2017-04-10T10:51:24Z</time>
      </trkpt>
      <trkpt lat="45.94215" lon="3.6507">
        <ele>856.66861333333</ele>
        <time>2017-04-10T10:51:29Z</time>
      </trkpt>
      <trkpt lat="45.9423" lon="3.65074">
        <ele>855.7692</ele>
        <time>2017-04-10T10:51:33Z</time>
      </trkpt>
      <trkpt lat="45.94252" lon="3.65073">
        <ele>854.77008</ele>
        <time>2017-04-10T10:51:38Z</time>
      </trkpt>
      <trkpt lat="45.94261" lon="3.65073">
        <ele>854.37042</ele>
        <time>2017-04-10T10:51:40Z</time>
      </trkpt>
      <trkpt lat="45.94273" lon="3.65076">
        <ele>853.97091333333</ele>
        <time>2017-04-10T10:51:43Z</time>
      </trkpt>
      <trkpt lat="45.94282" lon="3.65077">
        <ele>852.37127333333</ele>
        <time>2017-04-10T10:51:55Z</time>
      </trkpt>
      <trkpt lat="45.94369" lon="3.65048">
        <ele>843.47474</ele>
        <time>2017-04-10T10:52:00Z</time>
      </trkpt>
      <trkpt lat="45.94383" lon="3.65036">
        <ele>842.37530666667</ele>
        <time>2017-04-10T10:52:03Z</time>
      </trkpt>
      <trkpt lat="45.94397" lon="3.6502">
        <ele>840.07588</ele>
        <time>2017-04-10T10:52:07Z</time>
      </trkpt>
      <trkpt lat="45.94408" lon="3.65004">
        <ele>838.47632</ele>
        <time>2017-04-10T10:52:11Z</time>
      </trkpt>
      <trkpt lat="45.94415" lon="3.64997">
        <ele>837.47660666667</ele>
        <time>2017-04-10T10:52:16Z</time>
      </trkpt>
      <trkpt lat="45.94443" lon="3.6498">
        <ele>835.67773333333</ele>
        <time>2017-04-10T10:52:20Z</time>
      </trkpt>
      <trkpt lat="45.94454" lon="3.64976">
        <ele>836.07816</ele>
        <time>2017-04-10T10:52:23Z</time>
      </trkpt>
      <trkpt lat="45.94467" lon="3.64972">
        <ele>836.57867333333</ele>
        <time>2017-04-10T10:52:27Z</time>
      </trkpt>
      <trkpt lat="45.94483" lon="3.64973">
        <ele>838.07930666667</ele>
        <time>2017-04-10T10:52:31Z</time>
      </trkpt>
      <trkpt lat="45.94489" lon="3.64974">
        <ele>839.27956666667</ele>
        <time>2017-04-10T10:52:36Z</time>
      </trkpt>
      <trkpt lat="45.94498" lon="3.64974">
        <ele>840.17990666667</ele>
        <time>2017-04-10T10:52:38Z</time>
      </trkpt>
      <trkpt lat="45.94507" lon="3.64977">
        <ele>842.58026666667</ele>
        <time>2017-04-10T10:52:42Z</time>
      </trkpt>
      <trkpt lat="45.94518" lon="3.64979">
        <ele>845.18072666667</ele>
        <time>2017-04-10T10:52:47Z</time>
      </trkpt>
      <trkpt lat="45.94524" lon="3.64978">
        <ele>847.48096</ele>
        <time>2017-04-10T10:52:50Z</time>
      </trkpt>
      <trkpt lat="45.94529" lon="3.64979">
        <ele>847.78116666667</ele>
        <time>2017-04-10T10:52:53Z</time>
      </trkpt>
      <trkpt lat="45.94543" lon="3.64984">
        <ele>845.78172666667</ele>
        <time>2017-04-10T10:53:00Z</time>
      </trkpt>
      <trkpt lat="45.94563" lon="3.64991">
        <ele>844.08253333333</ele>
        <time>2017-04-10T10:53:05Z</time>
      </trkpt>
      <trkpt lat="45.94578" lon="3.64995">
        <ele>841.48311333333</ele>
        <time>2017-04-10T10:53:09Z</time>
      </trkpt>
      <trkpt lat="45.94586" lon="3.64995">
        <ele>840.38344666667</ele>
        <time>2017-04-10T10:53:11Z</time>
      </trkpt>
      <trkpt lat="45.94635" lon="3.65002">
        <ele>824.3854</ele>
        <time>2017-04-10T10:53:23Z</time>
      </trkpt>
      <trkpt lat="45.94645" lon="3.65005">
        <ele>821.58578</ele>
        <time>2017-04-10T10:53:28Z</time>
      </trkpt>
      <trkpt lat="45.94689" lon="3.65022">
        <ele>812.98756</ele>
        <time>2017-04-10T10:53:32Z</time>
      </trkpt>
      <trkpt lat="45.94706" lon="3.65018">
        <ele>808.28823333333</ele>
        <time>2017-04-10T10:53:36Z</time>
      </trkpt>
      <trkpt lat="45.94712" lon="3.6501">
        <ele>804.78848666667</ele>
        <time>2017-04-10T10:53:41Z</time>
      </trkpt>
      <trkpt lat="45.94719" lon="3.65002">
        <ele>802.88874</ele>
        <time>2017-04-10T10:53:47Z</time>
      </trkpt>
      <trkpt lat="45.94725" lon="3.64994">
        <ele>801.28898666667</ele>
        <time>2017-04-10T10:53:55Z</time>
      </trkpt>
      <trkpt lat="45.94728" lon="3.64984">
        <ele>799.6891</ele>
        <time>2017-04-10T10:54:00Z</time>
      </trkpt>
      <trkpt lat="45.94726" lon="3.64975">
        <ele>799.48905333333</ele>
        <time>2017-04-10T10:54:04Z</time>
      </trkpt>
      <trkpt lat="45.94723" lon="3.6496">
        <ele>802.6889</ele>
        <time>2017-04-10T10:54:09Z</time>
      </trkpt>
      <trkpt lat="45.94719" lon="3.64952">
        <ele>805.58874</ele>
        <time>2017-04-10T10:54:13Z</time>
      </trkpt>
      <trkpt lat="45.94716" lon="3.64946">
        <ele>806.88862666667</ele>
        <time>2017-04-10T10:54:19Z</time>
      </trkpt>
      <trkpt lat="45.94714" lon="3.64938">
        <ele>808.08854</ele>
        <time>2017-04-10T10:54:25Z</time>
      </trkpt>
      <trkpt lat="45.947" lon="3.64912">
        <ele>811.58800666667</ele>
        <time>2017-04-10T10:54:29Z</time>
      </trkpt>
      <trkpt lat="45.94698" lon="3.64906">
        <ele>813.18792666667</ele>
        <time>2017-04-10T10:54:31Z</time>
      </trkpt>
      <trkpt lat="45.9469" lon="3.64884">
        <ele>817.28761333333</ele>
        <time>2017-04-10T10:54:36Z</time>
      </trkpt>
      <trkpt lat="45.94688" lon="3.64873">
        <ele>819.18752666667</ele>
        <time>2017-04-10T10:54:40Z</time>
      </trkpt>
      <trkpt lat="45.94687" lon="3.64863">
        <ele>820.08749333333</ele>
        <time>2017-04-10T10:54:44Z</time>
      </trkpt>
      <trkpt lat="45.94685" lon="3.64854">
        <ele>821.78738</ele>
        <time>2017-04-10T10:54:47Z</time>
      </trkpt>
      <trkpt lat="45.94682" lon="3.64843">
        <ele>822.78728</ele>
        <time>2017-04-10T10:55:00Z</time>
      </trkpt>
      <trkpt lat="45.94676" lon="3.6481">
        <ele>825.58702666667</ele>
        <time>2017-04-10T10:55:04Z</time>
      </trkpt>
      <trkpt lat="45.94672" lon="3.648">
        <ele>826.48686666667</ele>
        <time>2017-04-10T10:55:07Z</time>
      </trkpt>
      <trkpt lat="45.94672" lon="3.64793">
        <ele>827.28689333333</ele>
        <time>2017-04-10T10:55:12Z</time>
      </trkpt>
      <trkpt lat="45.94674" lon="3.64765">
        <ele>828.68696666667</ele>
        <time>2017-04-10T10:55:24Z</time>
      </trkpt>
      <trkpt lat="45.94674" lon="3.64756">
        <ele>828.38695333333</ele>
        <time>2017-04-10T10:55:27Z</time>
      </trkpt>
      <trkpt lat="45.94674" lon="3.64745">
        <ele>827.58695333333</ele>
        <time>2017-04-10T10:55:31Z</time>
      </trkpt>
      <trkpt lat="45.94671" lon="3.64728">
        <ele>825.08684</ele>
        <time>2017-04-10T10:55:36Z</time>
      </trkpt>
      <trkpt lat="45.9467" lon="3.64717">
        <ele>824.5868</ele>
        <time>2017-04-10T10:55:38Z</time>
      </trkpt>
      <trkpt lat="45.94669" lon="3.64692">
        <ele>822.48676666667</ele>
        <time>2017-04-10T10:55:42Z</time>
      </trkpt>
      <trkpt lat="45.94669" lon="3.64671">
        <ele>823.68677333333</ele>
        <time>2017-04-10T10:55:47Z</time>
      </trkpt>
      <trkpt lat="45.94668" lon="3.6466">
        <ele>824.88672</ele>
        <time>2017-04-10T10:55:49Z</time>
      </trkpt>
      <trkpt lat="45.9466" lon="3.64622">
        <ele>826.2864</ele>
        <time>2017-04-10T10:55:57Z</time>
      </trkpt>
      <trkpt lat="45.94655" lon="3.64608">
        <ele>826.48618666667</ele>
        <time>2017-04-10T10:56:02Z</time>
      </trkpt>
      <trkpt lat="45.94649" lon="3.64599">
        <ele>827.58594</ele>
        <time>2017-04-10T10:56:06Z</time>
      </trkpt>
      <trkpt lat="45.94641" lon="3.6458">
        <ele>828.98565333333</ele>
        <time>2017-04-10T10:56:10Z</time>
      </trkpt>
      <trkpt lat="45.94638" lon="3.64561">
        <ele>828.98551333333</ele>
        <time>2017-04-10T10:56:13Z</time>
      </trkpt>
      <trkpt lat="45.9464" lon="3.64534">
        <ele>828.4856</ele>
        <time>2017-04-10T10:56:17Z</time>
      </trkpt>
      <trkpt lat="45.94641" lon="3.64526">
        <ele>827.98562</ele>
        <time>2017-04-10T10:56:19Z</time>
      </trkpt>
      <trkpt lat="45.94654" lon="3.64466">
        <ele>822.78615333333</ele>
        <time>2017-04-10T10:56:31Z</time>
      </trkpt>
      <trkpt lat="45.94674" lon="3.64429">
        <ele>817.98694666667</ele>
        <time>2017-04-10T10:56:31Z</time>
      </trkpt>
      <trkpt lat="45.94682" lon="3.64417">
        <ele>816.38726</ele>
        <time>2017-04-10T10:56:36Z</time>
      </trkpt>
      <trkpt lat="45.94709" lon="3.64378">
        <ele>811.38834666667</ele>
        <time>2017-04-10T10:56:39Z</time>
      </trkpt>
      <trkpt lat="45.9477" lon="3.64387">
        <ele>806.9908</ele>
        <time>2017-04-10T10:56:51Z</time>
      </trkpt>
      <trkpt lat="45.94788" lon="3.64406">
        <ele>809.59152666667</ele>
        <time>2017-04-10T10:57:00Z</time>
      </trkpt>
      <trkpt lat="45.94792" lon="3.64409">
        <ele>810.39166666667</ele>
        <time>2017-04-10T10:57:03Z</time>
      </trkpt>
      <trkpt lat="45.94803" lon="3.64426">
        <ele>811.39210666667</ele>
        <time>2017-04-10T10:57:08Z</time>
      </trkpt>
      <trkpt lat="45.94807" lon="3.64437">
        <ele>811.19228666667</ele>
        <time>2017-04-10T10:57:12Z</time>
      </trkpt>
      <trkpt lat="45.94813" lon="3.64447">
        <ele>811.19252666667</ele>
        <time>2017-04-10T10:57:15Z</time>
      </trkpt>
      <trkpt lat="45.94817" lon="3.64451">
        <ele>811.99268666667</ele>
        <time>2017-04-10T10:57:17Z</time>
      </trkpt>
      <trkpt lat="45.94827" lon="3.64465">
        <ele>813.09306</ele>
        <time>2017-04-10T10:57:25Z</time>
      </trkpt>
      <trkpt lat="45.94835" lon="3.64477">
        <ele>813.79338</ele>
        <time>2017-04-10T10:57:30Z</time>
      </trkpt>
      <trkpt lat="45.94839" lon="3.64486">
        <ele>814.59356</ele>
        <time>2017-04-10T10:57:37Z</time>
      </trkpt>
      <trkpt lat="45.94845" lon="3.64499">
        <ele>816.29378</ele>
        <time>2017-04-10T10:57:40Z</time>
      </trkpt>
      <trkpt lat="45.94848" lon="3.64505">
        <ele>816.69392666667</ele>
        <time>2017-04-10T10:57:43Z</time>
      </trkpt>
      <trkpt lat="45.9485" lon="3.64509">
        <ele>817.39401333333</ele>
        <time>2017-04-10T10:57:45Z</time>
      </trkpt>
      <trkpt lat="45.9487" lon="3.64532">
        <ele>818.79478666667</ele>
        <time>2017-04-10T10:57:57Z</time>
      </trkpt>
      <trkpt lat="45.94878" lon="3.64541">
        <ele>819.19513333333</ele>
        <time>2017-04-10T10:58:02Z</time>
      </trkpt>
      <trkpt lat="45.94886" lon="3.64547">
        <ele>819.99543333333</ele>
        <time>2017-04-10T10:58:06Z</time>
      </trkpt>
      <trkpt lat="45.94894" lon="3.64557">
        <ele>820.59576</ele>
        <time>2017-04-10T10:58:11Z</time>
      </trkpt>
      <trkpt lat="45.94901" lon="3.64568">
        <ele>822.09603333333</ele>
        <time>2017-04-10T10:58:15Z</time>
      </trkpt>
      <trkpt lat="45.94906" lon="3.64575">
        <ele>822.89623333333</ele>
        <time>2017-04-10T10:58:21Z</time>
      </trkpt>
      <trkpt lat="45.94912" lon="3.64584">
        <ele>823.49646</ele>
        <time>2017-04-10T10:58:24Z</time>
      </trkpt>
      <trkpt lat="45.94916" lon="3.6459">
        <ele>824.59664</ele>
        <time>2017-04-10T10:58:27Z</time>
      </trkpt>
      <trkpt lat="45.94921" lon="3.64595">
        <ele>824.99682666667</ele>
        <time>2017-04-10T10:58:30Z</time>
      </trkpt>
      <trkpt lat="45.94928" lon="3.64603">
        <ele>824.89710666667</ele>
        <time>2017-04-10T10:58:34Z</time>
      </trkpt>
      <trkpt lat="45.94939" lon="3.64611">
        <ele>824.79754666667</ele>
        <time>2017-04-10T10:58:38Z</time>
      </trkpt>
      <trkpt lat="45.94941" lon="3.64613">
        <ele>825.19762666667</ele>
        <time>2017-04-10T10:58:51Z</time>
      </trkpt>
      <trkpt lat="45.9496" lon="3.64625">
        <ele>823.69838666667</ele>
        <time>2017-04-10T10:58:51Z</time>
      </trkpt>
      <trkpt lat="45.94979" lon="3.64637">
        <ele>824.29914</ele>
        <time>2017-04-10T10:59:00Z</time>
      </trkpt>
      <trkpt lat="45.94991" lon="3.64644">
        <ele>825.59962666667</ele>
        <time>2017-04-10T10:59:05Z</time>
      </trkpt>
      <trkpt lat="45.95008" lon="3.64653">
        <ele>826.30030666667</ele>
        <time>2017-04-10T10:59:10Z</time>
      </trkpt>
      <trkpt lat="45.95014" lon="3.64655">
        <ele>826.40056666667</ele>
        <time>2017-04-10T10:59:12Z</time>
      </trkpt>
      <trkpt lat="45.95028" lon="3.64658">
        <ele>828.30112666667</ele>
        <time>2017-04-10T10:59:18Z</time>
      </trkpt>
      <trkpt lat="45.95046" lon="3.64659">
        <ele>830.40184666667</ele>
        <time>2017-04-10T10:59:22Z</time>
      </trkpt>
      <trkpt lat="45.9506" lon="3.64659">
        <ele>831.00238</ele>
        <time>2017-04-10T10:59:26Z</time>
      </trkpt>
      <trkpt lat="45.9507" lon="3.64658">
        <ele>831.40279333333</ele>
        <time>2017-04-10T10:59:29Z</time>
      </trkpt>
      <trkpt lat="45.95085" lon="3.64656">
        <ele>831.4034</ele>
        <time>2017-04-10T10:59:33Z</time>
      </trkpt>
      <trkpt lat="45.951" lon="3.64655">
        <ele>831.40399333333</ele>
        <time>2017-04-10T10:59:37Z</time>
      </trkpt>
      <trkpt lat="45.95115" lon="3.64656">
        <ele>832.40461333333</ele>
        <time>2017-04-10T10:59:41Z</time>
      </trkpt>
      <trkpt lat="45.95129" lon="3.64659">
        <ele>833.00517333333</ele>
        <time>2017-04-10T10:59:45Z</time>
      </trkpt>
      <trkpt lat="45.95143" lon="3.64663">
        <ele>832.00570666667</ele>
        <time>2017-04-10T10:59:49Z</time>
      </trkpt>
      <trkpt lat="45.95153" lon="3.64663">
        <ele>831.30613333333</ele>
        <time>2017-04-10T10:59:52Z</time>
      </trkpt>
      <trkpt lat="45.95168" lon="3.64658">
        <ele>830.30672</ele>
        <time>2017-04-10T10:59:56Z</time>
      </trkpt>
      <trkpt lat="45.95176" lon="3.64658">
        <ele>829.90702666667</ele>
        <time>2017-04-10T10:59:59Z</time>
      </trkpt>
      <trkpt lat="45.95195" lon="3.64657">
        <ele>829.50781333333</ele>
        <time>2017-04-10T11:00:03Z</time>
      </trkpt>
      <trkpt lat="45.9521" lon="3.64661">
        <ele>829.7084</ele>
        <time>2017-04-10T11:00:07Z</time>
      </trkpt>
      <trkpt lat="45.95217" lon="3.64663">
        <ele>829.90866</ele>
        <time>2017-04-10T11:00:08Z</time>
      </trkpt>
      <trkpt lat="45.95227" lon="3.64669">
        <ele>830.50908</ele>
        <time>2017-04-10T11:00:13Z</time>
      </trkpt>
      <trkpt lat="45.95237" lon="3.64672">
        <ele>831.10946666667</ele>
        <time>2017-04-10T11:00:17Z</time>
      </trkpt>
      <trkpt lat="45.95244" lon="3.64674">
        <ele>831.80976</ele>
        <time>2017-04-10T11:00:22Z</time>
      </trkpt>
      <trkpt lat="45.95247" lon="3.64674">
        <ele>832.10986666667</ele>
        <time>2017-04-10T11:00:22Z</time>
      </trkpt>
      <trkpt lat="45.95278" lon="3.64676">
        <ele>832.91111333333</ele>
        <time>2017-04-10T11:00:34Z</time>
      </trkpt>
      <trkpt lat="45.95291" lon="3.64674">
        <ele>832.91162</ele>
        <time>2017-04-10T11:00:38Z</time>
      </trkpt>
      <trkpt lat="45.95298" lon="3.64677">
        <ele>832.31190666667</ele>
        <time>2017-04-10T11:00:42Z</time>
      </trkpt>
      <trkpt lat="45.95313" lon="3.64694">
        <ele>834.81252</ele>
        <time>2017-04-10T11:00:53Z</time>
      </trkpt>
      <trkpt lat="45.95322" lon="3.64704">
        <ele>837.11288</ele>
        <time>2017-04-10T11:01:00Z</time>
      </trkpt>
      <trkpt lat="45.95327" lon="3.6471">
        <ele>838.51307333333</ele>
        <time>2017-04-10T11:01:05Z</time>
      </trkpt>
      <trkpt lat="45.95334" lon="3.64715">
        <ele>840.31336</ele>
        <time>2017-04-10T11:01:10Z</time>
      </trkpt>
      <trkpt lat="45.95337" lon="3.64718">
        <ele>841.61348</ele>
        <time>2017-04-10T11:01:13Z</time>
      </trkpt>
      <trkpt lat="45.95342" lon="3.64721">
        <ele>843.11367333333</ele>
        <time>2017-04-10T11:01:25Z</time>
      </trkpt>
      <trkpt lat="45.95358" lon="3.64734">
        <ele>847.41431333333</ele>
        <time>2017-04-10T11:01:28Z</time>
      </trkpt>
      <trkpt lat="45.95364" lon="3.6474">
        <ele>849.41457333333</ele>
        <time>2017-04-10T11:01:33Z</time>
      </trkpt>
      <trkpt lat="45.95372" lon="3.64743">
        <ele>850.61486</ele>
        <time>2017-04-10T11:01:37Z</time>
      </trkpt>
      <trkpt lat="45.95377" lon="3.64746">
        <ele>851.61508666667</ele>
        <time>2017-04-10T11:01:42Z</time>
      </trkpt>
      <trkpt lat="45.95384" lon="3.64752">
        <ele>852.51535333333</ele>
        <time>2017-04-10T11:01:51Z</time>
      </trkpt>
      <trkpt lat="45.95393" lon="3.64758">
        <ele>853.71572666667</ele>
        <time>2017-04-10T11:01:54Z</time>
      </trkpt>
      <trkpt lat="45.95399" lon="3.64763">
        <ele>854.31596666667</ele>
        <time>2017-04-10T11:02:00Z</time>
      </trkpt>
      <trkpt lat="45.95407" lon="3.64767">
        <ele>855.31628666667</ele>
        <time>2017-04-10T11:02:04Z</time>
      </trkpt>
      <trkpt lat="45.95415" lon="3.64772">
        <ele>857.01658666667</ele>
        <time>2017-04-10T11:02:13Z</time>
      </trkpt>
      <trkpt lat="45.95419" lon="3.64774">
        <ele>857.81674666667</ele>
        <time>2017-04-10T11:02:13Z</time>
      </trkpt>
      <trkpt lat="45.95431" lon="3.64791">
        <ele>859.11723333333</ele>
        <time>2017-04-10T11:02:25Z</time>
      </trkpt>
      <trkpt lat="45.95436" lon="3.64799">
        <ele>860.21743333333</ele>
        <time>2017-04-10T11:02:31Z</time>
      </trkpt>
      <trkpt lat="45.95441" lon="3.64805">
        <ele>862.01762</ele>
        <time>2017-04-10T11:02:36Z</time>
      </trkpt>
      <trkpt lat="45.95443" lon="3.64808">
        <ele>863.11771333333</ele>
        <time>2017-04-10T11:02:38Z</time>
      </trkpt>
      <trkpt lat="45.9545" lon="3.64815">
        <ele>865.318</ele>
        <time>2017-04-10T11:02:45Z</time>
      </trkpt>
      <trkpt lat="45.95459" lon="3.64818">
        <ele>867.31834666667</ele>
        <time>2017-04-10T11:02:52Z</time>
      </trkpt>
      <trkpt lat="45.95465" lon="3.64819">
        <ele>869.21860666667</ele>
        <time>2017-04-10T11:02:58Z</time>
      </trkpt>
      <trkpt lat="45.95473" lon="3.64823">
        <ele>869.71893333333</ele>
        <time>2017-04-10T11:03:02Z</time>
      </trkpt>
      <trkpt lat="45.95481" lon="3.64829">
        <ele>870.61924</ele>
        <time>2017-04-10T11:03:07Z</time>
      </trkpt>
      <trkpt lat="45.95488" lon="3.64835">
        <ele>873.41950666667</ele>
        <time>2017-04-10T11:03:15Z</time>
      </trkpt>
      <trkpt lat="45.95494" lon="3.64844">
        <ele>874.71975333333</ele>
        <time>2017-04-10T11:03:20Z</time>
      </trkpt>
      <trkpt lat="45.95499" lon="3.64848">
        <ele>875.21994666667</ele>
        <time>2017-04-10T11:03:27Z</time>
      </trkpt>
      <trkpt lat="45.95509" lon="3.64855">
        <ele>877.82034666667</ele>
        <time>2017-04-10T11:03:30Z</time>
      </trkpt>
      <trkpt lat="45.95517" lon="3.64857">
        <ele>878.62068</ele>
        <time>2017-04-10T11:03:34Z</time>
      </trkpt>
      <trkpt lat="45.95526" lon="3.64861">
        <ele>879.02105333333</ele>
        <time>2017-04-10T11:03:38Z</time>
      </trkpt>
      <trkpt lat="45.95534" lon="3.64866">
        <ele>879.22135333333</ele>
        <time>2017-04-10T11:03:44Z</time>
      </trkpt>
      <trkpt lat="45.9554" lon="3.64873">
        <ele>879.62160666667</ele>
        <time>2017-04-10T11:03:49Z</time>
      </trkpt>
      <trkpt lat="45.95546" lon="3.64879">
        <ele>880.32184</ele>
        <time>2017-04-10T11:03:53Z</time>
      </trkpt>
      <trkpt lat="45.95552" lon="3.64885">
        <ele>881.62209333333</ele>
        <time>2017-04-10T11:04:00Z</time>
      </trkpt>
      <trkpt lat="45.95561" lon="3.64893">
        <ele>882.12242666667</ele>
        <time>2017-04-10T11:04:05Z</time>
      </trkpt>
      <trkpt lat="45.95567" lon="3.64899">
        <ele>883.52268666667</ele>
        <time>2017-04-10T11:04:13Z</time>
      </trkpt>
      <trkpt lat="45.95572" lon="3.64905">
        <ele>883.62286</ele>
        <time>2017-04-10T11:04:16Z</time>
      </trkpt>
      <trkpt lat="45.95588" lon="3.64916">
        <ele>884.82350666667</ele>
        <time>2017-04-10T11:04:25Z</time>
      </trkpt>
      <trkpt lat="45.95593" lon="3.64919">
        <ele>886.42372</ele>
        <time>2017-04-10T11:04:28Z</time>
      </trkpt>
      <trkpt lat="45.95598" lon="3.64923">
        <ele>888.02392</ele>
        <time>2017-04-10T11:04:32Z</time>
      </trkpt>
      <trkpt lat="45.95607" lon="3.64933">
        <ele>890.32426</ele>
        <time>2017-04-10T11:04:37Z</time>
      </trkpt>
      <trkpt lat="45.9561" lon="3.64937">
        <ele>891.42439333333</ele>
        <time>2017-04-10T11:04:47Z</time>
      </trkpt>
      <trkpt lat="45.95625" lon="3.64952">
        <ele>894.12501333333</ele>
        <time>2017-04-10T11:04:51Z</time>
      </trkpt>
      <trkpt lat="45.95632" lon="3.64959">
        <ele>895.62528</ele>
        <time>2017-04-10T11:04:56Z</time>
      </trkpt>
      <trkpt lat="45.95638" lon="3.64967">
        <ele>897.52553333333</ele>
        <time>2017-04-10T11:05:02Z</time>
      </trkpt>
      <trkpt lat="45.95646" lon="3.64973">
        <ele>899.82583333333</ele>
        <time>2017-04-10T11:05:07Z</time>
      </trkpt>
      <trkpt lat="45.95652" lon="3.64975">
        <ele>901.42607333333</ele>
        <time>2017-04-10T11:05:14Z</time>
      </trkpt>
      <trkpt lat="45.95656" lon="3.6498">
        <ele>902.82623333333</ele>
        <time>2017-04-10T11:05:14Z</time>
      </trkpt>
      <trkpt lat="45.95664" lon="3.64987">
        <ele>903.82654</ele>
        <time>2017-04-10T11:05:19Z</time>
      </trkpt>
      <trkpt lat="45.95666" lon="3.64991">
        <ele>903.52664666667</ele>
        <time>2017-04-10T11:05:31Z</time>
      </trkpt>
      <trkpt lat="45.95692" lon="3.65009">
        <ele>899.62768</ele>
        <time>2017-04-10T11:05:35Z</time>
      </trkpt>
      <trkpt lat="45.95701" lon="3.6501">
        <ele>898.42802</ele>
        <time>2017-04-10T11:05:37Z</time>
      </trkpt>
      <trkpt lat="45.9571" lon="3.65011">
        <ele>896.22841333333</ele>
        <time>2017-04-10T11:05:42Z</time>
      </trkpt>
      <trkpt lat="45.95715" lon="3.65011">
        <ele>896.12861333333</ele>
        <time>2017-04-10T11:05:47Z</time>
      </trkpt>
      <trkpt lat="45.95733" lon="3.65016">
        <ele>893.72931333333</ele>
        <time>2017-04-10T11:05:51Z</time>
      </trkpt>
      <trkpt lat="45.95749" lon="3.6502">
        <ele>895.02995333333</ele>
        <time>2017-04-10T11:05:56Z</time>
      </trkpt>
      <trkpt lat="45.95758" lon="3.65027">
        <ele>895.93031333333</ele>
        <time>2017-04-10T11:06:00Z</time>
      </trkpt>
      <trkpt lat="45.95763" lon="3.65029">
        <ele>896.33052666667</ele>
        <time>2017-04-10T11:06:02Z</time>
      </trkpt>
      <trkpt lat="45.95774" lon="3.65037">
        <ele>895.93095333333</ele>
        <time>2017-04-10T11:06:06Z</time>
      </trkpt>
      <trkpt lat="45.95779" lon="3.6504">
        <ele>896.63117333333</ele>
        <time>2017-04-10T11:06:07Z</time>
      </trkpt>
      <trkpt lat="45.95804" lon="3.65051">
        <ele>898.63216</ele>
        <time>2017-04-10T11:06:18Z</time>
      </trkpt>
      <trkpt lat="45.95823" lon="3.65062">
        <ele>900.63291333333</ele>
        <time>2017-04-10T11:06:27Z</time>
      </trkpt>
      <trkpt lat="45.95828" lon="3.65065">
        <ele>901.63312</ele>
        <time>2017-04-10T11:06:29Z</time>
      </trkpt>
      <trkpt lat="45.95845" lon="3.65073">
        <ele>905.23378</ele>
        <time>2017-04-10T11:06:37Z</time>
      </trkpt>
      <trkpt lat="45.95852" lon="3.65079">
        <ele>906.23407333333</ele>
        <time>2017-04-10T11:06:50Z</time>
      </trkpt>
      <trkpt lat="45.95872" lon="3.65091">
        <ele>909.43487333333</ele>
        <time>2017-04-10T11:06:50Z</time>
      </trkpt>
      <trkpt lat="45.95883" lon="3.65104">
        <ele>911.93532</ele>
        <time>2017-04-10T11:07:00Z</time>
      </trkpt>
      <trkpt lat="45.95884" lon="3.65106">
        <ele>912.33537333333</ele>
        <time>2017-04-10T11:07:01Z</time>
      </trkpt>
      <trkpt lat="45.95893" lon="3.65122">
        <ele>913.03570666667</ele>
        <time>2017-04-10T11:07:07Z</time>
      </trkpt>
      <trkpt lat="45.95895" lon="3.65126">
        <ele>913.63580666667</ele>
        <time>2017-04-10T11:07:10Z</time>
      </trkpt>
      <trkpt lat="45.95912" lon="3.65149">
        <ele>914.83648</ele>
        <time>2017-04-10T11:07:22Z</time>
      </trkpt>
      <trkpt lat="45.95925" lon="3.65161">
        <ele>915.837</ele>
        <time>2017-04-10T11:07:34Z</time>
      </trkpt>
      <trkpt lat="45.95931" lon="3.6517">
        <ele>917.33724</ele>
        <time>2017-04-10T11:07:42Z</time>
      </trkpt>
      <trkpt lat="45.95938" lon="3.65177">
        <ele>917.73751333333</ele>
        <time>2017-04-10T11:07:47Z</time>
      </trkpt>
      <trkpt lat="45.95945" lon="3.65184">
        <ele>917.83778666667</ele>
        <time>2017-04-10T11:07:51Z</time>
      </trkpt>
      <trkpt lat="45.95954" lon="3.65191">
        <ele>918.23815333333</ele>
        <time>2017-04-10T11:07:55Z</time>
      </trkpt>
      <trkpt lat="45.95956" lon="3.65193">
        <ele>918.33824</ele>
        <time>2017-04-10T11:07:57Z</time>
      </trkpt>
      <trkpt lat="45.95963" lon="3.65202">
        <ele>919.03851333333</ele>
        <time>2017-04-10T11:08:05Z</time>
      </trkpt>
      <trkpt lat="45.95971" lon="3.65205">
        <ele>919.93884666667</ele>
        <time>2017-04-10T11:08:10Z</time>
      </trkpt>
      <trkpt lat="45.95978" lon="3.65209">
        <ele>919.83912666667</ele>
        <time>2017-04-10T11:08:24Z</time>
      </trkpt>
      <trkpt lat="45.9599" lon="3.65216">
        <ele>919.53960666667</ele>
        <time>2017-04-10T11:08:26Z</time>
      </trkpt>
      <trkpt lat="45.95993" lon="3.6522">
        <ele>919.53972</ele>
        <time>2017-04-10T11:08:30Z</time>
      </trkpt>
      <trkpt lat="45.96005" lon="3.6523">
        <ele>919.94018</ele>
        <time>2017-04-10T11:08:34Z</time>
      </trkpt>
      <trkpt lat="45.96012" lon="3.65234">
        <ele>919.44048666667</ele>
        <time>2017-04-10T11:08:41Z</time>
      </trkpt>
      <trkpt lat="45.96018" lon="3.65241">
        <ele>919.94072</ele>
        <time>2017-04-10T11:08:47Z</time>
      </trkpt>
      <trkpt lat="45.96021" lon="3.65251">
        <ele>919.64082666667</ele>
        <time>2017-04-10T11:08:55Z</time>
      </trkpt>
      <trkpt lat="45.96026" lon="3.65256">
        <ele>919.64103333333</ele>
        <time>2017-04-10T11:09:03Z</time>
      </trkpt>
      <trkpt lat="45.96036" lon="3.65262">
        <ele>919.94145333333</ele>
        <time>2017-04-10T11:09:08Z</time>
      </trkpt>
      <trkpt lat="45.96038" lon="3.65263">
        <ele>920.14152</ele>
        <time>2017-04-10T11:09:11Z</time>
      </trkpt>
      <trkpt lat="45.96058" lon="3.65275">
        <ele>922.14232666667</ele>
        <time>2017-04-10T11:09:23Z</time>
      </trkpt>
      <trkpt lat="45.96067" lon="3.65279">
        <ele>922.14266666667</ele>
        <time>2017-04-10T11:09:28Z</time>
      </trkpt>
      <trkpt lat="45.96072" lon="3.65281">
        <ele>922.44288</ele>
        <time>2017-04-10T11:09:31Z</time>
      </trkpt>
      <trkpt lat="45.96076" lon="3.65283">
        <ele>922.34305333333</ele>
        <time>2017-04-10T11:09:34Z</time>
      </trkpt>
      <trkpt lat="45.96084" lon="3.65288">
        <ele>921.94334666667</ele>
        <time>2017-04-10T11:09:39Z</time>
      </trkpt>
      <trkpt lat="45.9609" lon="3.65292">
        <ele>921.94361333333</ele>
        <time>2017-04-10T11:09:48Z</time>
      </trkpt>
      <trkpt lat="45.96094" lon="3.65293">
        <ele>921.64376</ele>
        <time>2017-04-10T11:09:48Z</time>
      </trkpt>
      <trkpt lat="45.96114" lon="3.65309">
        <ele>922.24456666667</ele>
        <time>2017-04-10T11:10:00Z</time>
      </trkpt>
      <trkpt lat="45.96121" lon="3.65314">
        <ele>923.14482666667</ele>
        <time>2017-04-10T11:10:04Z</time>
      </trkpt>
      <trkpt lat="45.96131" lon="3.65322">
        <ele>924.44522666667</ele>
        <time>2017-04-10T11:10:08Z</time>
      </trkpt>
      <trkpt lat="45.96133" lon="3.65324">
        <ele>924.84533333333</ele>
        <time>2017-04-10T11:10:21Z</time>
      </trkpt>
      <trkpt lat="45.96147" lon="3.65341">
        <ele>928.94588</ele>
        <time>2017-04-10T11:10:25Z</time>
      </trkpt>
      <trkpt lat="45.9614" lon="3.65349">
        <ele>929.24561333333</ele>
        <time>2017-04-10T11:10:33Z</time>
      </trkpt>
      <trkpt lat="45.96138" lon="3.65358">
        <ele>929.84552</ele>
        <time>2017-04-10T11:10:37Z</time>
      </trkpt>
      <trkpt lat="45.96136" lon="3.65367">
        <ele>931.04542666667</ele>
        <time>2017-04-10T11:10:52Z</time>
      </trkpt>
      <trkpt lat="45.9613" lon="3.65388">
        <ele>932.74520666667</ele>
        <time>2017-04-10T11:10:52Z</time>
      </trkpt>
      <trkpt lat="45.96127" lon="3.65401">
        <ele>934.14506666667</ele>
        <time>2017-04-10T11:11:00Z</time>
      </trkpt>
      <trkpt lat="45.96124" lon="3.65409">
        <ele>934.44495333333</ele>
        <time>2017-04-10T11:11:04Z</time>
      </trkpt>
      <trkpt lat="45.96122" lon="3.65419">
        <ele>935.24487333333</ele>
        <time>2017-04-10T11:11:07Z</time>
      </trkpt>
      <trkpt lat="45.96118" lon="3.65431">
        <ele>936.24472666667</ele>
        <time>2017-04-10T11:11:18Z</time>
      </trkpt>
      <trkpt lat="45.96115" lon="3.65442">
        <ele>937.64458666667</ele>
        <time>2017-04-10T11:11:26Z</time>
      </trkpt>
      <trkpt lat="45.96106" lon="3.6546">
        <ele>941.14422666667</ele>
        <time>2017-04-10T11:11:30Z</time>
      </trkpt>
      <trkpt lat="45.96101" lon="3.65469">
        <ele>943.34405333333</ele>
        <time>2017-04-10T11:11:35Z</time>
      </trkpt>
      <trkpt lat="45.96098" lon="3.6548">
        <ele>945.04392</ele>
        <time>2017-04-10T11:11:38Z</time>
      </trkpt>
      <trkpt lat="45.96097" lon="3.65482">
        <ele>945.44388</ele>
        <time>2017-04-10T11:11:40Z</time>
      </trkpt>
      <trkpt lat="45.96087" lon="3.65501">
        <ele>949.24346</ele>
        <time>2017-04-10T11:11:50Z</time>
      </trkpt>
      <trkpt lat="45.96074" lon="3.65516">
        <ele>952.94296666667</ele>
        <time>2017-04-10T11:12:00Z</time>
      </trkpt>
      <trkpt lat="45.96067" lon="3.65518">
        <ele>954.44267333333</ele>
        <time>2017-04-10T11:12:07Z</time>
      </trkpt>
      <trkpt lat="45.96056" lon="3.6552">
        <ele>957.34222666667</ele>
        <time>2017-04-10T11:12:10Z</time>
      </trkpt>
      <trkpt lat="45.9604" lon="3.65522">
        <ele>961.94159333333</ele>
        <time>2017-04-10T11:12:21Z</time>
      </trkpt>
      <trkpt lat="45.96032" lon="3.65519">
        <ele>962.64128666667</ele>
        <time>2017-04-10T11:12:26Z</time>
      </trkpt>
      <trkpt lat="45.9603" lon="3.65518">
        <ele>963.34118</ele>
        <time>2017-04-10T11:12:37Z</time>
      </trkpt>
      <trkpt lat="45.96012" lon="3.65523">
        <ele>967.94046666667</ele>
        <time>2017-04-10T11:12:41Z</time>
      </trkpt>
      <trkpt lat="45.96004" lon="3.65524">
        <ele>968.44014</ele>
        <time>2017-04-10T11:12:45Z</time>
      </trkpt>
      <trkpt lat="45.96" lon="3.65524">
        <ele>968.54000666667</ele>
        <time>2017-04-10T11:12:57Z</time>
      </trkpt>
      <trkpt lat="45.95982" lon="3.65527">
        <ele>972.73926</ele>
        <time>2017-04-10T11:13:00Z</time>
      </trkpt>
      <trkpt lat="45.95975" lon="3.65528">
        <ele>974.53898666667</ele>
        <time>2017-04-10T11:13:04Z</time>
      </trkpt>
      <trkpt lat="45.95965" lon="3.65531">
        <ele>976.43858</ele>
        <time>2017-04-10T11:13:09Z</time>
      </trkpt>
      <trkpt lat="45.95963" lon="3.65532">
        <ele>976.63851333333</ele>
        <time>2017-04-10T11:13:18Z</time>
      </trkpt>
      <trkpt lat="45.95943" lon="3.65542">
        <ele>979.9377</ele>
        <time>2017-04-10T11:13:22Z</time>
      </trkpt>
      <trkpt lat="45.95934" lon="3.6555">
        <ele>980.53734666667</ele>
        <time>2017-04-10T11:13:27Z</time>
      </trkpt>
      <trkpt lat="45.95929" lon="3.65554">
        <ele>980.63716</ele>
        <time>2017-04-10T11:13:31Z</time>
      </trkpt>
      <trkpt lat="45.95923" lon="3.6556">
        <ele>979.93690666667</ele>
        <time>2017-04-10T11:13:33Z</time>
      </trkpt>
      <trkpt lat="45.95917" lon="3.65566">
        <ele>979.43667333333</ele>
        <time>2017-04-10T11:13:37Z</time>
      </trkpt>
      <trkpt lat="45.95905" lon="3.65578">
        <ele>977.93619333333</ele>
        <time>2017-04-10T11:13:42Z</time>
      </trkpt>
      <trkpt lat="45.95897" lon="3.65585">
        <ele>977.63587333333</ele>
        <time>2017-04-10T11:13:46Z</time>
      </trkpt>
      <trkpt lat="45.95887" lon="3.65594">
        <ele>977.63549333333</ele>
        <time>2017-04-10T11:13:51Z</time>
      </trkpt>
      <trkpt lat="45.9588" lon="3.65601">
        <ele>977.43519333333</ele>
        <time>2017-04-10T11:13:56Z</time>
      </trkpt>
      <trkpt lat="45.95871" lon="3.65611">
        <ele>978.13485333333</ele>
        <time>2017-04-10T11:14:00Z</time>
      </trkpt>
      <trkpt lat="45.95863" lon="3.65618">
        <ele>978.43453333333</ele>
        <time>2017-04-10T11:14:05Z</time>
      </trkpt>
      <trkpt lat="45.95857" lon="3.65623">
        <ele>978.53426666667</ele>
        <time>2017-04-10T11:14:08Z</time>
      </trkpt>
      <trkpt lat="45.95849" lon="3.65629">
        <ele>978.03394666667</ele>
        <time>2017-04-10T11:14:15Z</time>
      </trkpt>
      <trkpt lat="45.9584" lon="3.65633">
        <ele>978.7336</ele>
        <time>2017-04-10T11:14:19Z</time>
      </trkpt>
      <trkpt lat="45.95834" lon="3.65636">
        <ele>979.53337333333</ele>
        <time>2017-04-10T11:14:23Z</time>
      </trkpt>
      <trkpt lat="45.95827" lon="3.65639">
        <ele>981.33306666667</ele>
        <time>2017-04-10T11:14:28Z</time>
      </trkpt>
      <trkpt lat="45.9582" lon="3.65643">
        <ele>982.0328</ele>
        <time>2017-04-10T11:14:32Z</time>
      </trkpt>
      <trkpt lat="45.95813" lon="3.65645">
        <ele>983.23250666667</ele>
        <time>2017-04-10T11:14:36Z</time>
      </trkpt>
      <trkpt lat="45.95805" lon="3.65647">
        <ele>985.3322</ele>
        <time>2017-04-10T11:14:41Z</time>
      </trkpt>
      <trkpt lat="45.95797" lon="3.6565">
        <ele>985.63189333333</ele>
        <time>2017-04-10T11:14:44Z</time>
      </trkpt>
      <trkpt lat="45.95785" lon="3.65657">
        <ele>986.23139333333</ele>
        <time>2017-04-10T11:14:52Z</time>
      </trkpt>
      <trkpt lat="45.95771" lon="3.65664">
        <ele>988.63084666667</ele>
        <time>2017-04-10T11:14:59Z</time>
      </trkpt>
      <trkpt lat="45.95764" lon="3.6567">
        <ele>991.33054</ele>
        <time>2017-04-10T11:15:04Z</time>
      </trkpt>
      <trkpt lat="45.95756" lon="3.65672">
        <ele>992.83025333333</ele>
        <time>2017-04-10T11:15:08Z</time>
      </trkpt>
      <trkpt lat="45.95749" lon="3.65675">
        <ele>993.72996</ele>
        <time>2017-04-10T11:15:12Z</time>
      </trkpt>
      <trkpt lat="45.95744" lon="3.6568">
        <ele>994.42974</ele>
        <time>2017-04-10T11:15:15Z</time>
      </trkpt>
      <trkpt lat="45.95735" lon="3.65687">
        <ele>994.62940666667</ele>
        <time>2017-04-10T11:15:20Z</time>
      </trkpt>
      <trkpt lat="45.95728" lon="3.65691">
        <ele>995.52910666667</ele>
        <time>2017-04-10T11:15:25Z</time>
      </trkpt>
      <trkpt lat="45.9572" lon="3.65695">
        <ele>995.92878</ele>
        <time>2017-04-10T11:15:30Z</time>
      </trkpt>
      <trkpt lat="45.95712" lon="3.657">
        <ele>996.72848</ele>
        <time>2017-04-10T11:15:34Z</time>
      </trkpt>
      <trkpt lat="45.95704" lon="3.65708">
        <ele>997.32817333333</ele>
        <time>2017-04-10T11:15:38Z</time>
      </trkpt>
      <trkpt lat="45.95698" lon="3.65716">
        <ele>997.32791333333</ele>
        <time>2017-04-10T11:15:43Z</time>
      </trkpt>
      <trkpt lat="45.95691" lon="3.65724">
        <ele>996.52764666667</ele>
        <time>2017-04-10T11:15:46Z</time>
      </trkpt>
      <trkpt lat="45.95683" lon="3.65735">
        <ele>995.42730666667</ele>
        <time>2017-04-10T11:15:50Z</time>
      </trkpt>
      <trkpt lat="45.95678" lon="3.65739">
        <ele>995.02713333333</ele>
        <time>2017-04-10T11:15:55Z</time>
      </trkpt>
      <trkpt lat="45.95663" lon="3.65751">
        <ele>993.72652666667</ele>
        <time>2017-04-10T11:16:00Z</time>
      </trkpt>
      <trkpt lat="45.95651" lon="3.65762">
        <ele>993.62603333333</ele>
        <time>2017-04-10T11:16:05Z</time>
      </trkpt>
      <trkpt lat="45.95645" lon="3.65769">
        <ele>993.82580666667</ele>
        <time>2017-04-10T11:16:08Z</time>
      </trkpt>
      <trkpt lat="45.95638" lon="3.65781">
        <ele>994.02550666667</ele>
        <time>2017-04-10T11:16:12Z</time>
      </trkpt>
      <trkpt lat="45.95634" lon="3.65787">
        <ele>995.02537333333</ele>
        <time>2017-04-10T11:16:14Z</time>
      </trkpt>
      <trkpt lat="45.95632" lon="3.65792">
        <ele>995.22526666667</ele>
        <time>2017-04-10T11:16:19Z</time>
      </trkpt>
      <trkpt lat="45.95625" lon="3.65812">
        <ele>999.225</ele>
        <time>2017-04-10T11:16:23Z</time>
      </trkpt>
      <trkpt lat="45.95616" lon="3.65825">
        <ele>1002.1246533333</ele>
        <time>2017-04-10T11:16:31Z</time>
      </trkpt>
      <trkpt lat="45.95612" lon="3.65842">
        <ele>1002.72446</ele>
        <time>2017-04-10T11:16:35Z</time>
      </trkpt>
      <trkpt lat="45.95605" lon="3.6586">
        <ele>1003.4241866667</ele>
        <time>2017-04-10T11:16:40Z</time>
      </trkpt>
      <trkpt lat="45.95598" lon="3.65885">
        <ele>1001.4239133333</ele>
        <time>2017-04-10T11:16:44Z</time>
      </trkpt>
      <trkpt lat="45.95595" lon="3.65908">
        <ele>1000.12378</ele>
        <time>2017-04-10T11:16:49Z</time>
      </trkpt>
      <trkpt lat="45.95594" lon="3.65936">
        <ele>999.02375333333</ele>
        <time>2017-04-10T11:16:54Z</time>
      </trkpt>
      <trkpt lat="45.956" lon="3.6596">
        <ele>998.92398</ele>
        <time>2017-04-10T11:16:59Z</time>
      </trkpt>
      <trkpt lat="45.956" lon="3.65964">
        <ele>999.024</ele>
        <time>2017-04-10T11:17:00Z</time>
      </trkpt>
      <trkpt lat="45.95604" lon="3.65982">
        <ele>998.12414</ele>
        <time>2017-04-10T11:17:04Z</time>
      </trkpt>
      <trkpt lat="45.95603" lon="3.66">
        <ele>998.1241</ele>
        <time>2017-04-10T11:17:08Z</time>
      </trkpt>
      <trkpt lat="45.95602" lon="3.66031">
        <ele>997.02408666667</ele>
        <time>2017-04-10T11:17:16Z</time>
      </trkpt>
      <trkpt lat="45.95603" lon="3.66042">
        <ele>996.62410666667</ele>
        <time>2017-04-10T11:17:27Z</time>
      </trkpt>
      <trkpt lat="45.95606" lon="3.66114">
        <ele>993.02425333333</ele>
        <time>2017-04-10T11:17:32Z</time>
      </trkpt>
      <trkpt lat="45.95606" lon="3.66131">
        <ele>992.92422666667</ele>
        <time>2017-04-10T11:17:36Z</time>
      </trkpt>
      <trkpt lat="45.95606" lon="3.66146">
        <ele>993.62423333333</ele>
        <time>2017-04-10T11:17:40Z</time>
      </trkpt>
      <trkpt lat="45.95607" lon="3.66153">
        <ele>993.92426</ele>
        <time>2017-04-10T11:17:47Z</time>
      </trkpt>
      <trkpt lat="45.9561" lon="3.6617">
        <ele>995.0244</ele>
        <time>2017-04-10T11:17:47Z</time>
      </trkpt>
      <trkpt lat="45.95629" lon="3.66218">
        <ele>998.52516</ele>
        <time>2017-04-10T11:18:00Z</time>
      </trkpt>
      <trkpt lat="45.9564" lon="3.66236">
        <ele>999.42561333333</ele>
        <time>2017-04-10T11:18:07Z</time>
      </trkpt>
      <trkpt lat="45.95655" lon="3.6625">
        <ele>1002.2262133333</ele>
        <time>2017-04-10T11:18:11Z</time>
      </trkpt>
      <trkpt lat="45.95669" lon="3.66261">
        <ele>1004.32674</ele>
        <time>2017-04-10T11:18:15Z</time>
      </trkpt>
      <trkpt lat="45.95677" lon="3.66266">
        <ele>1003.2270733333</ele>
        <time>2017-04-10T11:18:19Z</time>
      </trkpt>
      <trkpt lat="45.95685" lon="3.66269">
        <ele>1003.0273933333</ele>
        <time>2017-04-10T11:18:23Z</time>
      </trkpt>
      <trkpt lat="45.95718" lon="3.66309">
        <ele>1002.8287333333</ele>
        <time>2017-04-10T11:18:36Z</time>
      </trkpt>
      <trkpt lat="45.95719" lon="3.66326">
        <ele>1003.8287533333</ele>
        <time>2017-04-10T11:18:41Z</time>
      </trkpt>
      <trkpt lat="45.95722" lon="3.66348">
        <ele>1004.9288666667</ele>
        <time>2017-04-10T11:18:46Z</time>
      </trkpt>
      <trkpt lat="45.95724" lon="3.66368">
        <ele>1003.42896</ele>
        <time>2017-04-10T11:18:50Z</time>
      </trkpt>
      <trkpt lat="45.95727" lon="3.66389">
        <ele>1003.8290666667</ele>
        <time>2017-04-10T11:18:53Z</time>
      </trkpt>
      <trkpt lat="45.9573" lon="3.6641">
        <ele>1002.72918</ele>
        <time>2017-04-10T11:18:58Z</time>
      </trkpt>
      <trkpt lat="45.95728" lon="3.6643">
        <ele>1000.7291266667</ele>
        <time>2017-04-10T11:19:03Z</time>
      </trkpt>
      <trkpt lat="45.95723" lon="3.66453">
        <ele>1000.6289133333</ele>
        <time>2017-04-10T11:19:07Z</time>
      </trkpt>
      <trkpt lat="45.95719" lon="3.66466">
        <ele>1000.9287666667</ele>
        <time>2017-04-10T11:19:10Z</time>
      </trkpt>
      <trkpt lat="45.95718" lon="3.66471">
        <ele>1000.72872</ele>
        <time>2017-04-10T11:19:15Z</time>
      </trkpt>
      <trkpt lat="45.95711" lon="3.66507">
        <ele>1000.8284266667</ele>
        <time>2017-04-10T11:19:19Z</time>
      </trkpt>
      <trkpt lat="45.95709" lon="3.66525">
        <ele>1001.5283466667</ele>
        <time>2017-04-10T11:19:23Z</time>
      </trkpt>
      <trkpt lat="45.95707" lon="3.66539">
        <ele>1001.9282933333</ele>
        <time>2017-04-10T11:19:28Z</time>
      </trkpt>
      <trkpt lat="45.95705" lon="3.6656">
        <ele>1003.2282</ele>
        <time>2017-04-10T11:19:32Z</time>
      </trkpt>
      <trkpt lat="45.95703" lon="3.66585">
        <ele>1004.4281266667</ele>
        <time>2017-04-10T11:19:37Z</time>
      </trkpt>
      <trkpt lat="45.95705" lon="3.66597">
        <ele>1005.22818</ele>
        <time>2017-04-10T11:19:40Z</time>
      </trkpt>
      <trkpt lat="45.95708" lon="3.66602">
        <ele>1005.4283266667</ele>
        <time>2017-04-10T11:19:42Z</time>
      </trkpt>
      <trkpt lat="45.95737" lon="3.66595">
        <ele>1004.72946</ele>
        <time>2017-04-10T11:19:55Z</time>
      </trkpt>
      <trkpt lat="45.95754" lon="3.66597">
        <ele>1006.93014</ele>
        <time>2017-04-10T11:20:00Z</time>
      </trkpt>
      <trkpt lat="45.95766" lon="3.66599">
        <ele>1009.1306333333</ele>
        <time>2017-04-10T11:20:05Z</time>
      </trkpt>
      <trkpt lat="45.95774" lon="3.666">
        <ele>1011.43096</ele>
        <time>2017-04-10T11:20:08Z</time>
      </trkpt>
      <trkpt lat="45.9578" lon="3.66602">
        <ele>1013.1311866667</ele>
        <time>2017-04-10T11:20:11Z</time>
      </trkpt>
      <trkpt lat="45.95788" lon="3.66603">
        <ele>1014.8315066667</ele>
        <time>2017-04-10T11:20:16Z</time>
      </trkpt>
      <trkpt lat="45.95797" lon="3.66601">
        <ele>1015.63188</ele>
        <time>2017-04-10T11:20:20Z</time>
      </trkpt>
      <trkpt lat="45.95806" lon="3.66599">
        <ele>1015.4322333333</ele>
        <time>2017-04-10T11:20:24Z</time>
      </trkpt>
      <trkpt lat="45.95818" lon="3.66597">
        <ele>1015.5327266667</ele>
        <time>2017-04-10T11:20:29Z</time>
      </trkpt>
      <trkpt lat="45.95826" lon="3.66596">
        <ele>1015.63302</ele>
        <time>2017-04-10T11:20:32Z</time>
      </trkpt>
      <trkpt lat="45.95836" lon="3.66595">
        <ele>1015.5334533333</ele>
        <time>2017-04-10T11:20:36Z</time>
      </trkpt>
      <trkpt lat="45.95847" lon="3.66596">
        <ele>1015.6338666667</ele>
        <time>2017-04-10T11:20:41Z</time>
      </trkpt>
      <trkpt lat="45.95855" lon="3.66599">
        <ele>1016.8342133333</ele>
        <time>2017-04-10T11:20:45Z</time>
      </trkpt>
      <trkpt lat="45.95863" lon="3.66604">
        <ele>1019.1345333333</ele>
        <time>2017-04-10T11:20:48Z</time>
      </trkpt>
      <trkpt lat="45.95875" lon="3.66607">
        <ele>1020.4350066667</ele>
        <time>2017-04-10T11:20:52Z</time>
      </trkpt>
      <trkpt lat="45.95883" lon="3.66606">
        <ele>1020.8353066667</ele>
        <time>2017-04-10T11:20:55Z</time>
      </trkpt>
      <trkpt lat="45.95893" lon="3.66607">
        <ele>1021.63572</ele>
        <time>2017-04-10T11:21:00Z</time>
      </trkpt>
      <trkpt lat="45.95902" lon="3.66607">
        <ele>1022.3360933333</ele>
        <time>2017-04-10T11:21:04Z</time>
      </trkpt>
      <trkpt lat="45.95913" lon="3.6661">
        <ele>1024.0365066667</ele>
        <time>2017-04-10T11:21:08Z</time>
      </trkpt>
      <trkpt lat="45.95921" lon="3.66612">
        <ele>1023.5368533333</ele>
        <time>2017-04-10T11:21:14Z</time>
      </trkpt>
      <trkpt lat="45.95933" lon="3.66616">
        <ele>1025.13732</ele>
        <time>2017-04-10T11:21:18Z</time>
      </trkpt>
      <trkpt lat="45.95938" lon="3.66617">
        <ele>1026.03752</ele>
        <time>2017-04-10T11:21:29Z</time>
      </trkpt>
      <trkpt lat="45.95965" lon="3.66626">
        <ele>1029.4385866667</ele>
        <time>2017-04-10T11:21:34Z</time>
      </trkpt>
      <trkpt lat="45.9597" lon="3.6663">
        <ele>1031.8387933333</ele>
        <time>2017-04-10T11:21:38Z</time>
      </trkpt>
      <trkpt lat="45.95974" lon="3.66635">
        <ele>1032.8389666667</ele>
        <time>2017-04-10T11:21:41Z</time>
      </trkpt>
      <trkpt lat="45.95979" lon="3.66644">
        <ele>1035.2391733333</ele>
        <time>2017-04-10T11:21:58Z</time>
      </trkpt>
      <trkpt lat="45.96001" lon="3.66658">
        <ele>1040.2400333333</ele>
        <time>2017-04-10T11:22:00Z</time>
      </trkpt>
      <trkpt lat="45.96012" lon="3.6666">
        <ele>1040.04046</ele>
        <time>2017-04-10T11:22:07Z</time>
      </trkpt>
      <trkpt lat="45.96021" lon="3.6666">
        <ele>1040.64084</ele>
        <time>2017-04-10T11:22:11Z</time>
      </trkpt>
      <trkpt lat="45.96028" lon="3.66659">
        <ele>1039.7411266667</ele>
        <time>2017-04-10T11:22:14Z</time>
      </trkpt>
      <trkpt lat="45.96035" lon="3.6666">
        <ele>1039.3414066667</ele>
        <time>2017-04-10T11:22:17Z</time>
      </trkpt>
      <trkpt lat="45.96048" lon="3.66658">
        <ele>1037.8419333333</ele>
        <time>2017-04-10T11:22:22Z</time>
      </trkpt>
      <trkpt lat="45.96057" lon="3.66657">
        <ele>1037.8422666667</ele>
        <time>2017-04-10T11:22:25Z</time>
      </trkpt>
      <trkpt lat="45.96073" lon="3.66658">
        <ele>1037.3429333333</ele>
        <time>2017-04-10T11:22:30Z</time>
      </trkpt>
      <trkpt lat="45.96084" lon="3.66659">
        <ele>1038.3433666667</ele>
        <time>2017-04-10T11:22:34Z</time>
      </trkpt>
      <trkpt lat="45.96096" lon="3.66662">
        <ele>1038.7438466667</ele>
        <time>2017-04-10T11:22:38Z</time>
      </trkpt>
      <trkpt lat="45.96104" lon="3.66664">
        <ele>1037.14414</ele>
        <time>2017-04-10T11:22:41Z</time>
      </trkpt>
      <trkpt lat="45.96109" lon="3.66667">
        <ele>1036.34436</ele>
        <time>2017-04-10T11:22:43Z</time>
      </trkpt>
      <trkpt lat="45.96143" lon="3.66683">
        <ele>1036.74572</ele>
        <time>2017-04-10T11:22:57Z</time>
      </trkpt>
      <trkpt lat="45.96148" lon="3.66698">
        <ele>1037.14592</ele>
        <time>2017-04-10T11:23:02Z</time>
      </trkpt>
      <trkpt lat="45.96143" lon="3.66707">
        <ele>1038.0457266667</ele>
        <time>2017-04-10T11:23:08Z</time>
      </trkpt>
      <trkpt lat="45.96139" lon="3.66717">
        <ele>1039.44554</ele>
        <time>2017-04-10T11:23:15Z</time>
      </trkpt>
      <trkpt lat="45.96132" lon="3.6672">
        <ele>1040.3452933333</ele>
        <time>2017-04-10T11:23:20Z</time>
      </trkpt>
      <trkpt lat="45.9613" lon="3.66723">
        <ele>1040.74518</ele>
        <time>2017-04-10T11:23:22Z</time>
      </trkpt>
      <trkpt lat="45.96123" lon="3.66732">
        <ele>1042.1449266667</ele>
        <time>2017-04-10T11:23:28Z</time>
      </trkpt>
      <trkpt lat="45.9612" lon="3.66734">
        <ele>1043.0448133333</ele>
        <time>2017-04-10T11:23:36Z</time>
      </trkpt>
      <trkpt lat="45.96109" lon="3.66749">
        <ele>1046.5443666667</ele>
        <time>2017-04-10T11:23:40Z</time>
      </trkpt>
      <trkpt lat="45.96103" lon="3.66755">
        <ele>1047.6441</ele>
        <time>2017-04-10T11:23:46Z</time>
      </trkpt>
      <trkpt lat="45.96097" lon="3.66761">
        <ele>1048.8438666667</ele>
        <time>2017-04-10T11:23:50Z</time>
      </trkpt>
      <trkpt lat="45.96093" lon="3.66767">
        <ele>1049.3437133333</ele>
        <time>2017-04-10T11:23:55Z</time>
      </trkpt>
      <trkpt lat="45.96082" lon="3.66777">
        <ele>1051.14326</ele>
        <time>2017-04-10T11:24:00Z</time>
      </trkpt>
      <trkpt lat="45.96076" lon="3.66785">
        <ele>1052.0430333333</ele>
        <time>2017-04-10T11:24:08Z</time>
      </trkpt>
      <trkpt lat="45.96068" lon="3.66793">
        <ele>1054.3427066667</ele>
        <time>2017-04-10T11:24:12Z</time>
      </trkpt>
      <trkpt lat="45.96061" lon="3.66799">
        <ele>1055.6424533333</ele>
        <time>2017-04-10T11:24:16Z</time>
      </trkpt>
      <trkpt lat="45.96046" lon="3.66815">
        <ele>1058.4418266667</ele>
        <time>2017-04-10T11:24:26Z</time>
      </trkpt>
      <trkpt lat="45.96034" lon="3.66839">
        <ele>1059.94136</ele>
        <time>2017-04-10T11:24:35Z</time>
      </trkpt>
      <trkpt lat="45.96032" lon="3.66847">
        <ele>1061.4412733333</ele>
        <time>2017-04-10T11:24:39Z</time>
      </trkpt>
      <trkpt lat="45.96031" lon="3.66858">
        <ele>1062.74122</ele>
        <time>2017-04-10T11:24:44Z</time>
      </trkpt>
      <trkpt lat="45.96029" lon="3.66869">
        <ele>1064.6411733333</ele>
        <time>2017-04-10T11:24:52Z</time>
      </trkpt>
      <trkpt lat="45.96029" lon="3.66889">
        <ele>1066.0411533333</ele>
        <time>2017-04-10T11:25:00Z</time>
      </trkpt>
      <trkpt lat="45.96027" lon="3.66904">
        <ele>1066.2410733333</ele>
        <time>2017-04-10T11:25:05Z</time>
      </trkpt>
      <trkpt lat="45.96023" lon="3.66919">
        <ele>1065.3409333333</ele>
        <time>2017-04-10T11:25:10Z</time>
      </trkpt>
      <trkpt lat="45.96023" lon="3.66922">
        <ele>1065.0409066667</ele>
        <time>2017-04-10T11:25:13Z</time>
      </trkpt>
      <trkpt lat="45.9602" lon="3.66936">
        <ele>1064.74078</ele>
        <time>2017-04-10T11:25:16Z</time>
      </trkpt>
      <trkpt lat="45.96018" lon="3.66947">
        <ele>1063.9407266667</ele>
        <time>2017-04-10T11:25:21Z</time>
      </trkpt>
      <trkpt lat="45.96016" lon="3.66961">
        <ele>1063.5406333333</ele>
        <time>2017-04-10T11:25:25Z</time>
      </trkpt>
      <trkpt lat="45.96017" lon="3.66965">
        <ele>1064.34066</ele>
        <time>2017-04-10T11:25:27Z</time>
      </trkpt>
      <trkpt lat="45.9602" lon="3.66984">
        <ele>1067.8407933333</ele>
        <time>2017-04-10T11:25:38Z</time>
      </trkpt>
      <trkpt lat="45.9602" lon="3.66992">
        <ele>1068.8408</ele>
        <time>2017-04-10T11:25:42Z</time>
      </trkpt>
      <trkpt lat="45.9602" lon="3.67001">
        <ele>1070.2408066667</ele>
        <time>2017-04-10T11:25:57Z</time>
      </trkpt>
      <trkpt lat="45.96025" lon="3.67033">
        <ele>1071.641</ele>
        <time>2017-04-10T11:26:00Z</time>
      </trkpt>
      <trkpt lat="45.96023" lon="3.67059">
        <ele>1072.9409266667</ele>
        <time>2017-04-10T11:26:08Z</time>
      </trkpt>
      <trkpt lat="45.96022" lon="3.67065">
        <ele>1073.34088</ele>
        <time>2017-04-10T11:26:19Z</time>
      </trkpt>
      <trkpt lat="45.9601" lon="3.6708">
        <ele>1073.0404066667</ele>
        <time>2017-04-10T11:26:19Z</time>
      </trkpt>
      <trkpt lat="45.96009" lon="3.67119">
        <ele>1072.64034</ele>
        <time>2017-04-10T11:26:32Z</time>
      </trkpt>
      <trkpt lat="45.96009" lon="3.67128">
        <ele>1072.7403666667</ele>
        <time>2017-04-10T11:26:38Z</time>
      </trkpt>
      <trkpt lat="45.96011" lon="3.67142">
        <ele>1073.94044</ele>
        <time>2017-04-10T11:26:41Z</time>
      </trkpt>
      <trkpt lat="45.96012" lon="3.6715">
        <ele>1074.64048</ele>
        <time>2017-04-10T11:26:46Z</time>
      </trkpt>
      <trkpt lat="45.96009" lon="3.67184">
        <ele>1076.64034</ele>
        <time>2017-04-10T11:26:59Z</time>
      </trkpt>
      <trkpt lat="45.96004" lon="3.67199">
        <ele>1078.2401466667</ele>
        <time>2017-04-10T11:27:04Z</time>
      </trkpt>
      <trkpt lat="45.96002" lon="3.67215">
        <ele>1078.24008</ele>
        <time>2017-04-10T11:27:08Z</time>
      </trkpt>
      <trkpt lat="45.96001" lon="3.67223">
        <ele>1078.14002</ele>
        <time>2017-04-10T11:27:20Z</time>
      </trkpt>
      <trkpt lat="45.95992" lon="3.67241">
        <ele>1077.7396933333</ele>
        <time>2017-04-10T11:27:20Z</time>
      </trkpt>
      <trkpt lat="45.9598" lon="3.67272">
        <ele>1078.7392133333</ele>
        <time>2017-04-10T11:27:33Z</time>
      </trkpt>
      <trkpt lat="45.95976" lon="3.67285">
        <ele>1079.6390333333</ele>
        <time>2017-04-10T11:27:38Z</time>
      </trkpt>
      <trkpt lat="45.95971" lon="3.67296">
        <ele>1080.3388266667</ele>
        <time>2017-04-10T11:27:43Z</time>
      </trkpt>
      <trkpt lat="45.95965" lon="3.67305">
        <ele>1080.2386066667</ele>
        <time>2017-04-10T11:27:48Z</time>
      </trkpt>
      <trkpt lat="45.9596" lon="3.67315">
        <ele>1080.6383933333</ele>
        <time>2017-04-10T11:27:52Z</time>
      </trkpt>
      <trkpt lat="45.95956" lon="3.67322">
        <ele>1081.2382466667</ele>
        <time>2017-04-10T11:27:55Z</time>
      </trkpt>
      <trkpt lat="45.95954" lon="3.67328">
        <ele>1081.93814</ele>
        <time>2017-04-10T11:28:08Z</time>
      </trkpt>
      <trkpt lat="45.95951" lon="3.67334">
        <ele>1083.53802</ele>
        <time>2017-04-10T11:28:08Z</time>
      </trkpt>
      <trkpt lat="45.95943" lon="3.6734">
        <ele>1083.5377133333</ele>
        <time>2017-04-10T11:28:13Z</time>
      </trkpt>
      <trkpt lat="45.95926" lon="3.6736">
        <ele>1084.9370466667</ele>
        <time>2017-04-10T11:28:23Z</time>
      </trkpt>
      <trkpt lat="45.95916" lon="3.67374">
        <ele>1086.73664</ele>
        <time>2017-04-10T11:28:30Z</time>
      </trkpt>
      <trkpt lat="45.95911" lon="3.67383">
        <ele>1087.03642</ele>
        <time>2017-04-10T11:28:35Z</time>
      </trkpt>
      <trkpt lat="45.95903" lon="3.67398">
        <ele>1086.6361066667</ele>
        <time>2017-04-10T11:28:40Z</time>
      </trkpt>
      <trkpt lat="45.95897" lon="3.6741">
        <ele>1086.33588</ele>
        <time>2017-04-10T11:28:44Z</time>
      </trkpt>
      <trkpt lat="45.95891" lon="3.6742">
        <ele>1086.7356333333</ele>
        <time>2017-04-10T11:28:49Z</time>
      </trkpt>
      <trkpt lat="45.95877" lon="3.6744">
        <ele>1088.1350666667</ele>
        <time>2017-04-10T11:29:00Z</time>
      </trkpt>
      <trkpt lat="45.95869" lon="3.6745">
        <ele>1088.63476</ele>
        <time>2017-04-10T11:29:04Z</time>
      </trkpt>
      <trkpt lat="45.95862" lon="3.6746">
        <ele>1089.7344866667</ele>
        <time>2017-04-10T11:29:08Z</time>
      </trkpt>
      <trkpt lat="45.95856" lon="3.67469">
        <ele>1089.9342266667</ele>
        <time>2017-04-10T11:29:13Z</time>
      </trkpt>
      <trkpt lat="45.95849" lon="3.67475">
        <ele>1090.7339666667</ele>
        <time>2017-04-10T11:29:16Z</time>
      </trkpt>
      <trkpt lat="45.95839" lon="3.67482">
        <ele>1092.1335533333</ele>
        <time>2017-04-10T11:29:21Z</time>
      </trkpt>
      <trkpt lat="45.95834" lon="3.67485">
        <ele>1092.6333666667</ele>
        <time>2017-04-10T11:29:27Z</time>
      </trkpt>
      <trkpt lat="45.95822" lon="3.67495">
        <ele>1093.3328666667</ele>
        <time>2017-04-10T11:29:32Z</time>
      </trkpt>
      <trkpt lat="45.95817" lon="3.67501">
        <ele>1093.5326933333</ele>
        <time>2017-04-10T11:29:35Z</time>
      </trkpt>
      <trkpt lat="45.95813" lon="3.67511">
        <ele>1093.7325333333</ele>
        <time>2017-04-10T11:29:38Z</time>
      </trkpt>
      <trkpt lat="45.95808" lon="3.67519">
        <ele>1094.4323133333</ele>
        <time>2017-04-10T11:29:43Z</time>
      </trkpt>
      <trkpt lat="45.95797" lon="3.67539">
        <ele>1095.53188</ele>
        <time>2017-04-10T11:29:54Z</time>
      </trkpt>
      <trkpt lat="45.95792" lon="3.67551">
        <ele>1096.9316933333</ele>
        <time>2017-04-10T11:29:59Z</time>
      </trkpt>
      <trkpt lat="45.95786" lon="3.67558">
        <ele>1098.7314333333</ele>
        <time>2017-04-10T11:30:04Z</time>
      </trkpt>
      <trkpt lat="45.9578" lon="3.67566">
        <ele>1100.6311866667</ele>
        <time>2017-04-10T11:30:09Z</time>
      </trkpt>
      <trkpt lat="45.95775" lon="3.6757">
        <ele>1101.1309866667</ele>
        <time>2017-04-10T11:30:12Z</time>
      </trkpt>
      <trkpt lat="45.95766" lon="3.67576">
        <ele>1101.83064</ele>
        <time>2017-04-10T11:30:17Z</time>
      </trkpt>
      <trkpt lat="45.9576" lon="3.67582">
        <ele>1102.53038</ele>
        <time>2017-04-10T11:30:19Z</time>
      </trkpt>
      <trkpt lat="45.95753" lon="3.67591">
        <ele>1103.73012</ele>
        <time>2017-04-10T11:30:23Z</time>
      </trkpt>
      <trkpt lat="45.95749" lon="3.67596">
        <ele>1104.52994</ele>
        <time>2017-04-10T11:30:34Z</time>
      </trkpt>
      <trkpt lat="45.95726" lon="3.67617">
        <ele>1109.02904</ele>
        <time>2017-04-10T11:30:38Z</time>
      </trkpt>
      <trkpt lat="45.95719" lon="3.67626">
        <ele>1109.9287533333</ele>
        <time>2017-04-10T11:30:41Z</time>
      </trkpt>
      <trkpt lat="45.95715" lon="3.67631">
        <ele>1110.1286</ele>
        <time>2017-04-10T11:30:43Z</time>
      </trkpt>
      <trkpt lat="45.95708" lon="3.67641">
        <ele>1110.3283333333</ele>
        <time>2017-04-10T11:30:47Z</time>
      </trkpt>
      <trkpt lat="45.95705" lon="3.67648">
        <ele>1110.8281933333</ele>
        <time>2017-04-10T11:30:49Z</time>
      </trkpt>
      <trkpt lat="45.9569" lon="3.67674">
        <ele>1112.4275933333</ele>
        <time>2017-04-10T11:30:59Z</time>
      </trkpt>
      <trkpt lat="45.95685" lon="3.6768">
        <ele>1113.1273933333</ele>
        <time>2017-04-10T11:31:01Z</time>
      </trkpt>
      <trkpt lat="45.95666" lon="3.67696">
        <ele>1112.72662</ele>
        <time>2017-04-10T11:31:08Z</time>
      </trkpt>
      <trkpt lat="45.9566" lon="3.677">
        <ele>1112.5264066667</ele>
        <time>2017-04-10T11:31:10Z</time>
      </trkpt>
      <trkpt lat="45.95655" lon="3.67705">
        <ele>1112.9261866667</ele>
        <time>2017-04-10T11:31:16Z</time>
      </trkpt>
      <trkpt lat="45.95635" lon="3.67723">
        <ele>1111.1254133333</ele>
        <time>2017-04-10T11:31:20Z</time>
      </trkpt>
      <trkpt lat="45.95624" lon="3.67734">
        <ele>1109.9249666667</ele>
        <time>2017-04-10T11:31:24Z</time>
      </trkpt>
      <trkpt lat="45.95605" lon="3.67746">
        <ele>1107.8242133333</ele>
        <time>2017-04-10T11:31:34Z</time>
      </trkpt>
      <trkpt lat="45.9559" lon="3.6775">
        <ele>1107.6236</ele>
        <time>2017-04-10T11:31:39Z</time>
      </trkpt>
      <trkpt lat="45.9558" lon="3.67754">
        <ele>1108.6232066667</ele>
        <time>2017-04-10T11:31:44Z</time>
      </trkpt>
      <trkpt lat="45.95569" lon="3.67757">
        <ele>1109.42276</ele>
        <time>2017-04-10T11:31:47Z</time>
      </trkpt>
      <trkpt lat="45.95561" lon="3.67763">
        <ele>1110.5224266667</ele>
        <time>2017-04-10T11:31:50Z</time>
      </trkpt>
      <trkpt lat="45.9555" lon="3.67769">
        <ele>1112.4219933333</ele>
        <time>2017-04-10T11:31:53Z</time>
      </trkpt>
      <trkpt lat="45.95542" lon="3.67775">
        <ele>1113.1216933333</ele>
        <time>2017-04-10T11:31:57Z</time>
      </trkpt>
      <trkpt lat="45.95537" lon="3.67781">
        <ele>1113.52146</ele>
        <time>2017-04-10T11:32:00Z</time>
      </trkpt>
      <trkpt lat="45.95529" lon="3.67792">
        <ele>1113.92114</ele>
        <time>2017-04-10T11:32:05Z</time>
      </trkpt>
      <trkpt lat="45.95515" lon="3.67805">
        <ele>1113.7206066667</ele>
        <time>2017-04-10T11:32:12Z</time>
      </trkpt>
      <trkpt lat="45.95501" lon="3.67815">
        <ele>1112.52002</ele>
        <time>2017-04-10T11:32:16Z</time>
      </trkpt>
      <trkpt lat="45.95489" lon="3.67822">
        <ele>1113.3195733333</ele>
        <time>2017-04-10T11:32:20Z</time>
      </trkpt>
      <trkpt lat="45.95455" lon="3.67841">
        <ele>1117.1182066667</ele>
        <time>2017-04-10T11:32:33Z</time>
      </trkpt>
      <trkpt lat="45.95443" lon="3.67844">
        <ele>1118.9177066667</ele>
        <time>2017-04-10T11:32:38Z</time>
      </trkpt>
      <trkpt lat="45.95431" lon="3.67846">
        <ele>1120.71722</ele>
        <time>2017-04-10T11:32:41Z</time>
      </trkpt>
      <trkpt lat="45.95417" lon="3.67849">
        <ele>1120.41668</ele>
        <time>2017-04-10T11:32:46Z</time>
      </trkpt>
      <trkpt lat="45.95414" lon="3.67849">
        <ele>1120.51654</ele>
        <time>2017-04-10T11:32:57Z</time>
      </trkpt>
      <trkpt lat="45.95362" lon="3.67875">
        <ele>1120.1144866667</ele>
        <time>2017-04-10T11:33:02Z</time>
      </trkpt>
      <trkpt lat="45.95348" lon="3.67884">
        <ele>1121.51392</ele>
        <time>2017-04-10T11:33:06Z</time>
      </trkpt>
      <trkpt lat="45.95333" lon="3.67896">
        <ele>1122.1133333333</ele>
        <time>2017-04-10T11:33:11Z</time>
      </trkpt>
      <trkpt lat="45.95323" lon="3.67906">
        <ele>1122.8129133333</ele>
        <time>2017-04-10T11:33:15Z</time>
      </trkpt>
      <trkpt lat="45.95314" lon="3.67914">
        <ele>1122.9125733333</ele>
        <time>2017-04-10T11:33:18Z</time>
      </trkpt>
      <trkpt lat="45.95309" lon="3.67926">
        <ele>1122.51234</ele>
        <time>2017-04-10T11:33:22Z</time>
      </trkpt>
      <trkpt lat="45.953" lon="3.6794">
        <ele>1122.51198</ele>
        <time>2017-04-10T11:33:26Z</time>
      </trkpt>
      <trkpt lat="45.95288" lon="3.67955">
        <ele>1123.2115266667</ele>
        <time>2017-04-10T11:33:29Z</time>
      </trkpt>
      <trkpt lat="45.9528" lon="3.67967">
        <ele>1123.6112066667</ele>
        <time>2017-04-10T11:33:33Z</time>
      </trkpt>
      <trkpt lat="45.95259" lon="3.67993">
        <ele>1122.6103733333</ele>
        <time>2017-04-10T11:33:38Z</time>
      </trkpt>
      <trkpt lat="45.95249" lon="3.68009">
        <ele>1122.7099533333</ele>
        <time>2017-04-10T11:33:42Z</time>
      </trkpt>
      <trkpt lat="45.95242" lon="3.68016">
        <ele>1122.2096733333</ele>
        <time>2017-04-10T11:33:44Z</time>
      </trkpt>
      <trkpt lat="45.95221" lon="3.68035">
        <ele>1120.3088533333</ele>
        <time>2017-04-10T11:33:48Z</time>
      </trkpt>
      <trkpt lat="45.95203" lon="3.68049">
        <ele>1120.10812</ele>
        <time>2017-04-10T11:33:52Z</time>
      </trkpt>
      <trkpt lat="45.95181" lon="3.68067">
        <ele>1121.0072466667</ele>
        <time>2017-04-10T11:33:57Z</time>
      </trkpt>
      <trkpt lat="45.95175" lon="3.68072">
        <ele>1121.30698</ele>
        <time>2017-04-10T11:33:59Z</time>
      </trkpt>
      <trkpt lat="45.95162" lon="3.6808">
        <ele>1121.0064666667</ele>
        <time>2017-04-10T11:34:03Z</time>
      </trkpt>
      <trkpt lat="45.95136" lon="3.68093">
        <ele>1120.5054533333</ele>
        <time>2017-04-10T11:34:07Z</time>
      </trkpt>
      <trkpt lat="45.95116" lon="3.68101">
        <ele>1120.1046533333</ele>
        <time>2017-04-10T11:34:14Z</time>
      </trkpt>
      <trkpt lat="45.95087" lon="3.68117">
        <ele>1120.2034733333</ele>
        <time>2017-04-10T11:34:17Z</time>
      </trkpt>
      <trkpt lat="45.95081" lon="3.68122">
        <ele>1119.80322</ele>
        <time>2017-04-10T11:34:20Z</time>
      </trkpt>
      <trkpt lat="45.95075" lon="3.68126">
        <ele>1119.6030133333</ele>
        <time>2017-04-10T11:34:31Z</time>
      </trkpt>
      <trkpt lat="45.95044" lon="3.68156">
        <ele>1116.0017533333</ele>
        <time>2017-04-10T11:34:35Z</time>
      </trkpt>
      <trkpt lat="45.9503" lon="3.68166">
        <ele>1114.4011866667</ele>
        <time>2017-04-10T11:34:39Z</time>
      </trkpt>
      <trkpt lat="45.9501" lon="3.68176">
        <ele>1113.2004133333</ele>
        <time>2017-04-10T11:34:44Z</time>
      </trkpt>
      <trkpt lat="45.95" lon="3.6818">
        <ele>1112.7</ele>
        <time>2017-04-10T11:34:47Z</time>
      </trkpt>
      <trkpt lat="45.94979" lon="3.68184">
        <ele>1112.3991733333</ele>
        <time>2017-04-10T11:34:52Z</time>
      </trkpt>
      <trkpt lat="45.9496" lon="3.68185">
        <ele>1112.2984</ele>
        <time>2017-04-10T11:34:56Z</time>
      </trkpt>
      <trkpt lat="45.94942" lon="3.6818">
        <ele>1112.5976666667</ele>
        <time>2017-04-10T11:35:00Z</time>
      </trkpt>
      <trkpt lat="45.94923" lon="3.68173">
        <ele>1112.9969133333</ele>
        <time>2017-04-10T11:35:03Z</time>
      </trkpt>
      <trkpt lat="45.94905" lon="3.68162">
        <ele>1113.0962</ele>
        <time>2017-04-10T11:35:07Z</time>
      </trkpt>
      <trkpt lat="45.94891" lon="3.68154">
        <ele>1113.6956466667</ele>
        <time>2017-04-10T11:35:12Z</time>
      </trkpt>
      <trkpt lat="45.94878" lon="3.68144">
        <ele>1114.69512</ele>
        <time>2017-04-10T11:35:16Z</time>
      </trkpt>
      <trkpt lat="45.94862" lon="3.68135">
        <ele>1114.8944866667</ele>
        <time>2017-04-10T11:35:19Z</time>
      </trkpt>
      <trkpt lat="45.94858" lon="3.68133">
        <ele>1114.9943333333</ele>
        <time>2017-04-10T11:35:21Z</time>
      </trkpt>
      <trkpt lat="45.94814" lon="3.68119">
        <ele>1115.29256</ele>
        <time>2017-04-10T11:35:29Z</time>
      </trkpt>
      <trkpt lat="45.94791" lon="3.68117">
        <ele>1115.29164</ele>
        <time>2017-04-10T11:35:33Z</time>
      </trkpt>
      <trkpt lat="45.94775" lon="3.68118">
        <ele>1114.891</ele>
        <time>2017-04-10T11:35:35Z</time>
      </trkpt>
      <trkpt lat="45.94753" lon="3.68129">
        <ele>1113.2901266667</ele>
        <time>2017-04-10T11:35:40Z</time>
      </trkpt>
      <trkpt lat="45.94729" lon="3.68123">
        <ele>1112.0891733333</ele>
        <time>2017-04-10T11:35:45Z</time>
      </trkpt>
      <trkpt lat="45.94716" lon="3.68122">
        <ele>1110.6886466667</ele>
        <time>2017-04-10T11:35:49Z</time>
      </trkpt>
      <trkpt lat="45.94707" lon="3.68123">
        <ele>1110.1882933333</ele>
        <time>2017-04-10T11:35:50Z</time>
      </trkpt>
      <trkpt lat="45.94693" lon="3.68131">
        <ele>1109.0877333333</ele>
        <time>2017-04-10T11:35:54Z</time>
      </trkpt>
      <trkpt lat="45.94684" lon="3.68134">
        <ele>1106.6873533333</ele>
        <time>2017-04-10T11:35:58Z</time>
      </trkpt>
      <trkpt lat="45.94687" lon="3.68126">
        <ele>1105.7874866667</ele>
        <time>2017-04-10T11:36:23Z</time>
      </trkpt>
      <trkpt lat="45.94695" lon="3.68121">
        <ele>1105.7878133333</ele>
        <time>2017-04-10T11:36:30Z</time>
      </trkpt>
      <trkpt lat="45.94705" lon="3.68108">
        <ele>1106.4882</ele>
        <time>2017-04-10T11:36:35Z</time>
      </trkpt>
      <trkpt lat="45.94703" lon="3.68099">
        <ele>1107.2881</ele>
        <time>2017-04-10T11:36:40Z</time>
      </trkpt>
      <trkpt lat="45.94696" lon="3.68089">
        <ele>1108.1878533333</ele>
        <time>2017-04-10T11:36:45Z</time>
      </trkpt>
      <trkpt lat="45.94692" lon="3.68081">
        <ele>1109.3876733333</ele>
        <time>2017-04-10T11:36:49Z</time>
      </trkpt>
      <trkpt lat="45.94687" lon="3.68071">
        <ele>1110.7874866667</ele>
        <time>2017-04-10T11:36:52Z</time>
      </trkpt>
      <trkpt lat="45.94683" lon="3.68062">
        <ele>1112.8873</ele>
        <time>2017-04-10T11:37:00Z</time>
      </trkpt>
      <trkpt lat="45.94673" lon="3.68049">
        <ele>1115.6869266667</ele>
        <time>2017-04-10T11:37:03Z</time>
      </trkpt>
      <trkpt lat="45.94668" lon="3.68039">
        <ele>1117.3867266667</ele>
        <time>2017-04-10T11:37:08Z</time>
      </trkpt>
      <trkpt lat="45.94663" lon="3.68031">
        <ele>1119.2865066667</ele>
        <time>2017-04-10T11:37:12Z</time>
      </trkpt>
      <trkpt lat="45.94661" lon="3.68027">
        <ele>1120.7864266667</ele>
        <time>2017-04-10T11:37:14Z</time>
      </trkpt>
      <trkpt lat="45.94653" lon="3.68005">
        <ele>1123.2861266667</ele>
        <time>2017-04-10T11:37:21Z</time>
      </trkpt>
      <trkpt lat="45.94648" lon="3.67983">
        <ele>1126.2859266667</ele>
        <time>2017-04-10T11:37:28Z</time>
      </trkpt>
      <trkpt lat="45.94645" lon="3.67962">
        <ele>1125.0858066667</ele>
        <time>2017-04-10T11:37:33Z</time>
      </trkpt>
      <trkpt lat="45.94644" lon="3.67946">
        <ele>1125.68576</ele>
        <time>2017-04-10T11:37:37Z</time>
      </trkpt>
      <trkpt lat="45.94642" lon="3.67933">
        <ele>1125.8856933333</ele>
        <time>2017-04-10T11:37:41Z</time>
      </trkpt>
      <trkpt lat="45.94635" lon="3.67907">
        <ele>1128.8853933333</ele>
        <time>2017-04-10T11:37:53Z</time>
      </trkpt>
      <trkpt lat="45.94634" lon="3.67899">
        <ele>1128.78536</ele>
        <time>2017-04-10T11:37:54Z</time>
      </trkpt>
      <trkpt lat="45.94631" lon="3.67894">
        <ele>1129.7852333333</ele>
        <time>2017-04-10T11:38:00Z</time>
      </trkpt>
      <trkpt lat="45.94617" lon="3.67867">
        <ele>1130.5846733333</ele>
        <time>2017-04-10T11:38:04Z</time>
      </trkpt>
      <trkpt lat="45.94613" lon="3.67861">
        <ele>1131.28452</ele>
        <time>2017-04-10T11:38:06Z</time>
      </trkpt>
      <trkpt lat="45.94609" lon="3.67854">
        <ele>1130.88436</ele>
        <time>2017-04-10T11:38:14Z</time>
      </trkpt>
      <trkpt lat="45.94581" lon="3.67823">
        <ele>1126.0832533333</ele>
        <time>2017-04-10T11:38:19Z</time>
      </trkpt>
      <trkpt lat="45.94579" lon="3.6782">
        <ele>1125.88314</ele>
        <time>2017-04-10T11:38:20Z</time>
      </trkpt>
      <trkpt lat="45.94571" lon="3.67809">
        <ele>1125.88284</ele>
        <time>2017-04-10T11:38:24Z</time>
      </trkpt>
      <trkpt lat="45.94557" lon="3.67784">
        <ele>1125.1822666667</ele>
        <time>2017-04-10T11:38:29Z</time>
      </trkpt>
      <trkpt lat="45.94551" lon="3.67767">
        <ele>1124.5820466667</ele>
        <time>2017-04-10T11:38:33Z</time>
      </trkpt>
      <trkpt lat="45.94546" lon="3.67753">
        <ele>1124.5818466667</ele>
        <time>2017-04-10T11:38:35Z</time>
      </trkpt>
      <trkpt lat="45.94537" lon="3.67729">
        <ele>1124.2814933333</ele>
        <time>2017-04-10T11:38:40Z</time>
      </trkpt>
      <trkpt lat="45.9453" lon="3.67704">
        <ele>1123.7812066667</ele>
        <time>2017-04-10T11:38:45Z</time>
      </trkpt>
      <trkpt lat="45.94529" lon="3.67695">
        <ele>1123.18114</ele>
        <time>2017-04-10T11:38:47Z</time>
      </trkpt>
      <trkpt lat="45.9452" lon="3.67675">
        <ele>1119.5808066667</ele>
        <time>2017-04-10T11:38:51Z</time>
      </trkpt>
      <trkpt lat="45.94516" lon="3.67666">
        <ele>1118.3806266667</ele>
        <time>2017-04-10T11:38:55Z</time>
      </trkpt>
      <trkpt lat="45.94506" lon="3.67647">
        <ele>1116.4802466667</ele>
        <time>2017-04-10T11:39:00Z</time>
      </trkpt>
      <trkpt lat="45.94501" lon="3.67622">
        <ele>1116.7800466667</ele>
        <time>2017-04-10T11:39:04Z</time>
      </trkpt>
      <trkpt lat="45.945" lon="3.67611">
        <ele>1117.4800066667</ele>
        <time>2017-04-10T11:39:09Z</time>
      </trkpt>
      <trkpt lat="45.94499" lon="3.67592">
        <ele>1120.57996</ele>
        <time>2017-04-10T11:39:13Z</time>
      </trkpt>
      <trkpt lat="45.945" lon="3.67579">
        <ele>1121.9799933333</ele>
        <time>2017-04-10T11:39:17Z</time>
      </trkpt>
      <trkpt lat="45.94499" lon="3.6757">
        <ele>1123.1799533333</ele>
        <time>2017-04-10T11:39:27Z</time>
      </trkpt>
      <trkpt lat="45.94503" lon="3.67546">
        <ele>1121.9801333333</ele>
        <time>2017-04-10T11:39:28Z</time>
      </trkpt>
      <trkpt lat="45.94505" lon="3.6754">
        <ele>1121.2802066667</ele>
        <time>2017-04-10T11:39:33Z</time>
      </trkpt>
      <trkpt lat="45.94513" lon="3.67515">
        <ele>1119.9805066667</ele>
        <time>2017-04-10T11:39:38Z</time>
      </trkpt>
      <trkpt lat="45.94516" lon="3.67505">
        <ele>1119.8806266667</ele>
        <time>2017-04-10T11:39:41Z</time>
      </trkpt>
      <trkpt lat="45.94518" lon="3.67497">
        <ele>1119.6807066667</ele>
        <time>2017-04-10T11:39:46Z</time>
      </trkpt>
      <trkpt lat="45.94523" lon="3.67484">
        <ele>1120.8809</ele>
        <time>2017-04-10T11:39:51Z</time>
      </trkpt>
      <trkpt lat="45.94524" lon="3.67472">
        <ele>1121.0809666667</ele>
        <time>2017-04-10T11:39:56Z</time>
      </trkpt>
      <trkpt lat="45.94528" lon="3.67463">
        <ele>1122.1811333333</ele>
        <time>2017-04-10T11:40:00Z</time>
      </trkpt>
      <trkpt lat="45.94536" lon="3.67456">
        <ele>1125.0814466667</ele>
        <time>2017-04-10T11:40:05Z</time>
      </trkpt>
      <trkpt lat="45.94541" lon="3.6745">
        <ele>1126.0816266667</ele>
        <time>2017-04-10T11:40:08Z</time>
      </trkpt>
      <trkpt lat="45.94548" lon="3.67441">
        <ele>1128.1819066667</ele>
        <time>2017-04-10T11:40:13Z</time>
      </trkpt>
      <trkpt lat="45.94554" lon="3.67433">
        <ele>1129.5821466667</ele>
        <time>2017-04-10T11:40:24Z</time>
      </trkpt>
      <trkpt lat="45.94572" lon="3.67426">
        <ele>1129.0828666667</ele>
        <time>2017-04-10T11:40:28Z</time>
      </trkpt>
      <trkpt lat="45.94575" lon="3.67418">
        <ele>1128.68298</ele>
        <time>2017-04-10T11:40:33Z</time>
      </trkpt>
      <trkpt lat="45.94575" lon="3.6741">
        <ele>1128.8830066667</ele>
        <time>2017-04-10T11:40:39Z</time>
      </trkpt>
      <trkpt lat="45.94577" lon="3.67398">
        <ele>1129.0830666667</ele>
        <time>2017-04-10T11:40:40Z</time>
      </trkpt>
      <trkpt lat="45.94582" lon="3.67371">
        <ele>1128.9832866667</ele>
        <time>2017-04-10T11:40:48Z</time>
      </trkpt>
      <trkpt lat="45.94586" lon="3.67358">
        <ele>1129.0834266667</ele>
        <time>2017-04-10T11:40:52Z</time>
      </trkpt>
      <trkpt lat="45.94589" lon="3.67344">
        <ele>1128.6835466667</ele>
        <time>2017-04-10T11:40:56Z</time>
      </trkpt>
      <trkpt lat="45.94594" lon="3.67323">
        <ele>1127.6837466667</ele>
        <time>2017-04-10T11:41:00Z</time>
      </trkpt>
      <trkpt lat="45.94606" lon="3.6729">
        <ele>1126.58422</ele>
        <time>2017-04-10T11:41:04Z</time>
      </trkpt>
      <trkpt lat="45.94641" lon="3.67229">
        <ele>1121.7856266667</ele>
        <time>2017-04-10T11:41:12Z</time>
      </trkpt>
      <trkpt lat="45.94669" lon="3.67199">
        <ele>1117.2867666667</ele>
        <time>2017-04-10T11:41:16Z</time>
      </trkpt>
      <trkpt lat="45.94696" lon="3.67172">
        <ele>1112.98784</ele>
        <time>2017-04-10T11:41:20Z</time>
      </trkpt>
      <trkpt lat="45.9471" lon="3.67166">
        <ele>1111.0883866667</ele>
        <time>2017-04-10T11:41:22Z</time>
      </trkpt>
      <trkpt lat="45.94735" lon="3.67156">
        <ele>1106.7893933333</ele>
        <time>2017-04-10T11:41:26Z</time>
      </trkpt>
      <trkpt lat="45.9476" lon="3.67145">
        <ele>1101.4904066667</ele>
        <time>2017-04-10T11:41:30Z</time>
      </trkpt>
      <trkpt lat="45.94787" lon="3.67142">
        <ele>1098.7914733333</ele>
        <time>2017-04-10T11:41:34Z</time>
      </trkpt>
      <trkpt lat="45.94817" lon="3.67141">
        <ele>1096.1926666667</ele>
        <time>2017-04-10T11:41:38Z</time>
      </trkpt>
      <trkpt lat="45.94831" lon="3.67142">
        <ele>1095.3932466667</ele>
        <time>2017-04-10T11:41:40Z</time>
      </trkpt>
      <trkpt lat="45.94869" lon="3.67141">
        <ele>1093.99474</ele>
        <time>2017-04-10T11:41:46Z</time>
      </trkpt>
      <trkpt lat="45.94883" lon="3.67147">
        <ele>1093.5953266667</ele>
        <time>2017-04-10T11:41:47Z</time>
      </trkpt>
      <trkpt lat="45.94896" lon="3.67152">
        <ele>1092.5958466667</ele>
        <time>2017-04-10T11:41:55Z</time>
      </trkpt>
      <trkpt lat="45.94899" lon="3.67124">
        <ele>1088.4959466667</ele>
        <time>2017-04-10T11:42:00Z</time>
      </trkpt>
      <trkpt lat="45.9487" lon="3.67098">
        <ele>1086.3948</ele>
        <time>2017-04-10T11:42:04Z</time>
      </trkpt>
      <trkpt lat="45.94847" lon="3.67061">
        <ele>1082.79386</ele>
        <time>2017-04-10T11:42:08Z</time>
      </trkpt>
      <trkpt lat="45.94783" lon="3.66977">
        <ele>1073.9913333333</ele>
        <time>2017-04-10T11:42:19Z</time>
      </trkpt>
      <trkpt lat="45.94741" lon="3.66946">
        <ele>1067.88964</ele>
        <time>2017-04-10T11:42:23Z</time>
      </trkpt>
      <trkpt lat="45.94692" lon="3.66911">
        <ele>1060.98766</ele>
        <time>2017-04-10T11:42:27Z</time>
      </trkpt>
      <trkpt lat="45.94655" lon="3.66878">
        <ele>1054.58618</ele>
        <time>2017-04-10T11:42:31Z</time>
      </trkpt>
      <trkpt lat="45.94616" lon="3.66848">
        <ele>1048.98462</ele>
        <time>2017-04-10T11:42:35Z</time>
      </trkpt>
      <trkpt lat="45.94577" lon="3.6682">
        <ele>1042.38306</ele>
        <time>2017-04-10T11:42:40Z</time>
      </trkpt>
      <trkpt lat="45.94525" lon="3.66784">
        <ele>1036.68098</ele>
        <time>2017-04-10T11:42:45Z</time>
      </trkpt>
      <trkpt lat="45.94487" lon="3.6676">
        <ele>1031.7794666667</ele>
        <time>2017-04-10T11:42:49Z</time>
      </trkpt>
      <trkpt lat="45.94443" lon="3.66721">
        <ele>1024.27772</ele>
        <time>2017-04-10T11:42:54Z</time>
      </trkpt>
      <trkpt lat="45.94415" lon="3.66698">
        <ele>1019.5765933333</ele>
        <time>2017-04-10T11:42:57Z</time>
      </trkpt>
      <trkpt lat="45.9437" lon="3.66658">
        <ele>1011.37478</ele>
        <time>2017-04-10T11:43:02Z</time>
      </trkpt>
      <trkpt lat="45.9433" lon="3.66652">
        <ele>1007.2732</ele>
        <time>2017-04-10T11:43:05Z</time>
      </trkpt>
      <trkpt lat="45.94315" lon="3.66654">
        <ele>1004.8726133333</ele>
        <time>2017-04-10T11:43:07Z</time>
      </trkpt>
      <trkpt lat="45.94315" lon="3.66627">
        <ele>1000.3725866667</ele>
        <time>2017-04-10T11:43:12Z</time>
      </trkpt>
      <trkpt lat="45.94325" lon="3.66623">
        <ele>999.27299333333</ele>
        <time>2017-04-10T11:43:15Z</time>
      </trkpt>
      <trkpt lat="45.94335" lon="3.66623">
        <ele>999.27340666667</ele>
        <time>2017-04-10T11:43:25Z</time>
      </trkpt>
      <trkpt lat="45.94413" lon="3.66608">
        <ele>993.57652666667</ele>
        <time>2017-04-10T11:43:29Z</time>
      </trkpt>
      <trkpt lat="45.94437" lon="3.66599">
        <ele>990.67747333333</ele>
        <time>2017-04-10T11:43:32Z</time>
      </trkpt>
      <trkpt lat="45.94473" lon="3.66582">
        <ele>987.07892</ele>
        <time>2017-04-10T11:43:35Z</time>
      </trkpt>
      <trkpt lat="45.945" lon="3.66571">
        <ele>984.18</ele>
        <time>2017-04-10T11:43:39Z</time>
      </trkpt>
      <trkpt lat="45.94516" lon="3.66561">
        <ele>982.38065333333</ele>
        <time>2017-04-10T11:43:41Z</time>
      </trkpt>
      <trkpt lat="45.94556" lon="3.6648">
        <ele>974.38224666667</ele>
        <time>2017-04-10T11:43:54Z</time>
      </trkpt>
      <trkpt lat="45.94579" lon="3.66349">
        <ele>965.08317333333</ele>
        <time>2017-04-10T11:43:59Z</time>
      </trkpt>
      <trkpt lat="45.94585" lon="3.66308">
        <ele>962.08338666667</ele>
        <time>2017-04-10T11:44:02Z</time>
      </trkpt>
      <trkpt lat="45.94598" lon="3.66253">
        <ele>957.68391333333</ele>
        <time>2017-04-10T11:44:05Z</time>
      </trkpt>
      <trkpt lat="45.94611" lon="3.66198">
        <ele>953.78442</ele>
        <time>2017-04-10T11:44:09Z</time>
      </trkpt>
      <trkpt lat="45.94607" lon="3.66102">
        <ele>946.08426</ele>
        <time>2017-04-10T11:44:18Z</time>
      </trkpt>
      <trkpt lat="45.94564" lon="3.66033">
        <ele>941.38256666667</ele>
        <time>2017-04-10T11:44:23Z</time>
      </trkpt>
      <trkpt lat="45.94532" lon="3.65984">
        <ele>937.58126666667</ele>
        <time>2017-04-10T11:44:27Z</time>
      </trkpt>
      <trkpt lat="45.94495" lon="3.65914">
        <ele>932.1798</ele>
        <time>2017-04-10T11:44:31Z</time>
      </trkpt>
      <trkpt lat="45.94485" lon="3.65886">
        <ele>929.4794</ele>
        <time>2017-04-10T11:44:33Z</time>
      </trkpt>
      <trkpt lat="45.94452" lon="3.65835">
        <ele>925.17807333333</ele>
        <time>2017-04-10T11:44:38Z</time>
      </trkpt>
      <trkpt lat="45.94425" lon="3.65811">
        <ele>922.67700666667</ele>
        <time>2017-04-10T11:44:42Z</time>
      </trkpt>
      <trkpt lat="45.944" lon="3.65791">
        <ele>920.27598666667</ele>
        <time>2017-04-10T11:44:45Z</time>
      </trkpt>
      <trkpt lat="45.94367" lon="3.65748">
        <ele>915.67466666667</ele>
        <time>2017-04-10T11:44:49Z</time>
      </trkpt>
      <trkpt lat="45.94361" lon="3.65738">
        <ele>914.77442</ele>
        <time>2017-04-10T11:44:59Z</time>
      </trkpt>
      <trkpt lat="45.94284" lon="3.65605">
        <ele>903.67134666667</ele>
        <time>2017-04-10T11:45:04Z</time>
      </trkpt>
      <trkpt lat="45.94269" lon="3.65585">
        <ele>901.77077333333</ele>
        <time>2017-04-10T11:45:10Z</time>
      </trkpt>
      <trkpt lat="45.94191" lon="3.65556">
        <ele>895.56765333333</ele>
        <time>2017-04-10T11:45:15Z</time>
      </trkpt>
      <trkpt lat="45.94164" lon="3.65544">
        <ele>891.96654666667</ele>
        <time>2017-04-10T11:45:20Z</time>
      </trkpt>
      <trkpt lat="45.94121" lon="3.65501">
        <ele>886.16483333333</ele>
        <time>2017-04-10T11:45:24Z</time>
      </trkpt>
      <trkpt lat="45.94098" lon="3.65476">
        <ele>883.8639</ele>
        <time>2017-04-10T11:45:28Z</time>
      </trkpt>
      <trkpt lat="45.94058" lon="3.65427">
        <ele>878.86230666667</ele>
        <time>2017-04-10T11:45:33Z</time>
      </trkpt>
      <trkpt lat="45.94018" lon="3.65378">
        <ele>873.16071333333</ele>
        <time>2017-04-10T11:45:37Z</time>
      </trkpt>
      <trkpt lat="45.94008" lon="3.6537">
        <ele>869.8603</ele>
        <time>2017-04-10T11:45:42Z</time>
      </trkpt>
      <trkpt lat="45.94004" lon="3.65375">
        <ele>867.96016</ele>
        <time>2017-04-10T11:45:42Z</time>
      </trkpt>
      <trkpt lat="45.94006" lon="3.65422">
        <ele>858.66023333333</ele>
        <time>2017-04-10T11:45:53Z</time>
      </trkpt>
      <trkpt lat="45.94006" lon="3.6546">
        <ele>857.46023333333</ele>
        <time>2017-04-10T11:45:57Z</time>
      </trkpt>
      <trkpt lat="45.94006" lon="3.65498">
        <ele>858.06022666667</ele>
        <time>2017-04-10T11:46:01Z</time>
      </trkpt>
      <trkpt lat="45.94011" lon="3.65523">
        <ele>857.16045333333</ele>
        <time>2017-04-10T11:46:05Z</time>
      </trkpt>
      <trkpt lat="45.94014" lon="3.65531">
        <ele>856.76057333333</ele>
        <time>2017-04-10T11:46:08Z</time>
      </trkpt>
      <trkpt lat="45.9403" lon="3.65557">
        <ele>855.26119333333</ele>
        <time>2017-04-10T11:46:17Z</time>
      </trkpt>
      <trkpt lat="45.94078" lon="3.65622">
        <ele>855.06310666667</ele>
        <time>2017-04-10T11:46:22Z</time>
      </trkpt>
      <trkpt lat="45.94086" lon="3.65647">
        <ele>855.66343333333</ele>
        <time>2017-04-10T11:46:26Z</time>
      </trkpt>
      <trkpt lat="45.94088" lon="3.65681">
        <ele>857.06350666667</ele>
        <time>2017-04-10T11:46:31Z</time>
      </trkpt>
      <trkpt lat="45.94073" lon="3.65706">
        <ele>856.56291333333</ele>
        <time>2017-04-10T11:46:35Z</time>
      </trkpt>
      <trkpt lat="45.94062" lon="3.65716">
        <ele>856.96246</ele>
        <time>2017-04-10T11:46:39Z</time>
      </trkpt>
      <trkpt lat="45.9405" lon="3.65732">
        <ele>857.06198</ele>
        <time>2017-04-10T11:46:43Z</time>
      </trkpt>
      <trkpt lat="45.94044" lon="3.65761">
        <ele>858.46174</ele>
        <time>2017-04-10T11:46:48Z</time>
      </trkpt>
      <trkpt lat="45.94041" lon="3.65776">
        <ele>859.86162666667</ele>
        <time>2017-04-10T11:46:52Z</time>
      </trkpt>
      <trkpt lat="45.94036" lon="3.65801">
        <ele>860.86145333333</ele>
        <time>2017-04-10T11:46:56Z</time>
      </trkpt>
      <trkpt lat="45.94033" lon="3.65823">
        <ele>861.66132666667</ele>
        <time>2017-04-10T11:46:59Z</time>
      </trkpt>
      <trkpt lat="45.9403" lon="3.65843">
        <ele>862.36119333333</ele>
        <time>2017-04-10T11:47:04Z</time>
      </trkpt>
      <trkpt lat="45.94027" lon="3.65863">
        <ele>863.56106</ele>
        <time>2017-04-10T11:47:09Z</time>
      </trkpt>
      <trkpt lat="45.9402" lon="3.65893">
        <ele>865.46080666667</ele>
        <time>2017-04-10T11:47:14Z</time>
      </trkpt>
      <trkpt lat="45.94018" lon="3.65903">
        <ele>865.66072666667</ele>
        <time>2017-04-10T11:47:19Z</time>
      </trkpt>
      <trkpt lat="45.94014" lon="3.65933">
        <ele>867.06054</ele>
        <time>2017-04-10T11:47:22Z</time>
      </trkpt>
      <trkpt lat="45.94011" lon="3.65949">
        <ele>867.76044666667</ele>
        <time>2017-04-10T11:47:26Z</time>
      </trkpt>
      <trkpt lat="45.94009" lon="3.65982">
        <ele>868.86036</ele>
        <time>2017-04-10T11:47:31Z</time>
      </trkpt>
      <trkpt lat="45.94004" lon="3.66008">
        <ele>869.16017333333</ele>
        <time>2017-04-10T11:47:35Z</time>
      </trkpt>
      <trkpt lat="45.94001" lon="3.6602">
        <ele>869.46003333333</ele>
        <time>2017-04-10T11:47:39Z</time>
      </trkpt>
      <trkpt lat="45.93996" lon="3.66034">
        <ele>869.25982666667</ele>
        <time>2017-04-10T11:47:44Z</time>
      </trkpt>
      <trkpt lat="45.93989" lon="3.66046">
        <ele>868.75956666667</ele>
        <time>2017-04-10T11:47:47Z</time>
      </trkpt>
      <trkpt lat="45.9398" lon="3.66058">
        <ele>868.8592</ele>
        <time>2017-04-10T11:47:51Z</time>
      </trkpt>
      <trkpt lat="45.93968" lon="3.66066">
        <ele>868.95873333333</ele>
        <time>2017-04-10T11:47:55Z</time>
      </trkpt>
      <trkpt lat="45.93959" lon="3.66068">
        <ele>868.75836666667</ele>
        <time>2017-04-10T11:47:58Z</time>
      </trkpt>
      <trkpt lat="45.93944" lon="3.66062">
        <ele>869.35776666667</ele>
        <time>2017-04-10T11:48:03Z</time>
      </trkpt>
      <trkpt lat="45.93938" lon="3.66055">
        <ele>869.55752666667</ele>
        <time>2017-04-10T11:48:05Z</time>
      </trkpt>
      <trkpt lat="45.93936" lon="3.66054">
        <ele>869.65744</ele>
        <time>2017-04-10T11:48:15Z</time>
      </trkpt>
      <trkpt lat="45.93916" lon="3.66025">
        <ele>873.45665333333</ele>
        <time>2017-04-10T11:48:18Z</time>
      </trkpt>
      <trkpt lat="45.93906" lon="3.66013">
        <ele>875.65625333333</ele>
        <time>2017-04-10T11:48:24Z</time>
      </trkpt>
      <trkpt lat="45.93892" lon="3.66002">
        <ele>878.35567333333</ele>
        <time>2017-04-10T11:48:29Z</time>
      </trkpt>
      <trkpt lat="45.93882" lon="3.65999">
        <ele>880.15526</ele>
        <time>2017-04-10T11:48:34Z</time>
      </trkpt>
      <trkpt lat="45.9387" lon="3.65994">
        <ele>881.85478</ele>
        <time>2017-04-10T11:48:38Z</time>
      </trkpt>
      <trkpt lat="45.93863" lon="3.65991">
        <ele>882.4545</ele>
        <time>2017-04-10T11:48:44Z</time>
      </trkpt>
      <trkpt lat="45.93853" lon="3.65987">
        <ele>882.85412666667</ele>
        <time>2017-04-10T11:48:45Z</time>
      </trkpt>
      <trkpt lat="45.93842" lon="3.65985">
        <ele>883.35368</ele>
        <time>2017-04-10T11:48:50Z</time>
      </trkpt>
      <trkpt lat="45.93832" lon="3.65984">
        <ele>884.05328</ele>
        <time>2017-04-10T11:48:54Z</time>
      </trkpt>
      <trkpt lat="45.93822" lon="3.65981">
        <ele>884.85286</ele>
        <time>2017-04-10T11:48:58Z</time>
      </trkpt>
      <trkpt lat="45.93812" lon="3.65983">
        <ele>885.55247333333</ele>
        <time>2017-04-10T11:49:02Z</time>
      </trkpt>
      <trkpt lat="45.93802" lon="3.65987">
        <ele>885.85207333333</ele>
        <time>2017-04-10T11:49:06Z</time>
      </trkpt>
      <trkpt lat="45.9379" lon="3.65992">
        <ele>885.55158</ele>
        <time>2017-04-10T11:49:12Z</time>
      </trkpt>
      <trkpt lat="45.93781" lon="3.65996">
        <ele>885.05125333333</ele>
        <time>2017-04-10T11:49:14Z</time>
      </trkpt>
      <trkpt lat="45.93761" lon="3.66025">
        <ele>883.85044</ele>
        <time>2017-04-10T11:49:24Z</time>
      </trkpt>
      <trkpt lat="45.93762" lon="3.66039">
        <ele>883.95048666667</ele>
        <time>2017-04-10T11:49:28Z</time>
      </trkpt>
      <trkpt lat="45.93766" lon="3.66048">
        <ele>884.55062</ele>
        <time>2017-04-10T11:49:32Z</time>
      </trkpt>
      <trkpt lat="45.9377" lon="3.66058">
        <ele>884.95078</ele>
        <time>2017-04-10T11:49:35Z</time>
      </trkpt>
      <trkpt lat="45.93771" lon="3.66062">
        <ele>885.35084666667</ele>
        <time>2017-04-10T11:49:37Z</time>
      </trkpt>
      <trkpt lat="45.93775" lon="3.66073">
        <ele>886.251</ele>
        <time>2017-04-10T11:49:45Z</time>
      </trkpt>
      <trkpt lat="45.93777" lon="3.66085">
        <ele>887.75108666667</ele>
        <time>2017-04-10T11:49:55Z</time>
      </trkpt>
      <trkpt lat="45.93779" lon="3.66116">
        <ele>891.75116</ele>
        <time>2017-04-10T11:50:00Z</time>
      </trkpt>
      <trkpt lat="45.93779" lon="3.66129">
        <ele>893.05116</ele>
        <time>2017-04-10T11:50:04Z</time>
      </trkpt>
      <trkpt lat="45.93779" lon="3.66137">
        <ele>893.95116</ele>
        <time>2017-04-10T11:50:07Z</time>
      </trkpt>
      <trkpt lat="45.93779" lon="3.66148">
        <ele>894.95114666667</ele>
        <time>2017-04-10T11:50:12Z</time>
      </trkpt>
      <trkpt lat="45.93778" lon="3.66161">
        <ele>896.15110666667</ele>
        <time>2017-04-10T11:50:17Z</time>
      </trkpt>
      <trkpt lat="45.93778" lon="3.66169">
        <ele>896.75111333333</ele>
        <time>2017-04-10T11:50:25Z</time>
      </trkpt>
      <trkpt lat="45.93778" lon="3.66192">
        <ele>898.45112</ele>
        <time>2017-04-10T11:50:30Z</time>
      </trkpt>
      <trkpt lat="45.93777" lon="3.66203">
        <ele>899.45109333333</ele>
        <time>2017-04-10T11:50:34Z</time>
      </trkpt>
      <trkpt lat="45.93778" lon="3.66215">
        <ele>900.15111333333</ele>
        <time>2017-04-10T11:50:40Z</time>
      </trkpt>
      <trkpt lat="45.9378" lon="3.66224">
        <ele>900.65118</ele>
        <time>2017-04-10T11:50:44Z</time>
      </trkpt>
      <trkpt lat="45.93781" lon="3.66233">
        <ele>901.05124666667</ele>
        <time>2017-04-10T11:50:48Z</time>
      </trkpt>
      <trkpt lat="45.93782" lon="3.66243">
        <ele>901.45128666667</ele>
        <time>2017-04-10T11:50:52Z</time>
      </trkpt>
      <trkpt lat="45.93784" lon="3.66255">
        <ele>902.15136666667</ele>
        <time>2017-04-10T11:50:57Z</time>
      </trkpt>
      <trkpt lat="45.93786" lon="3.66267">
        <ele>902.95143333333</ele>
        <time>2017-04-10T11:51:01Z</time>
      </trkpt>
      <trkpt lat="45.93787" lon="3.66277">
        <ele>903.55148666667</ele>
        <time>2017-04-10T11:51:06Z</time>
      </trkpt>
      <trkpt lat="45.93789" lon="3.66288">
        <ele>903.95155333333</ele>
        <time>2017-04-10T11:51:11Z</time>
      </trkpt>
      <trkpt lat="45.9379" lon="3.66307">
        <ele>904.25158666667</ele>
        <time>2017-04-10T11:51:16Z</time>
      </trkpt>
      <trkpt lat="45.9379" lon="3.66326">
        <ele>904.85159333333</ele>
        <time>2017-04-10T11:51:23Z</time>
      </trkpt>
      <trkpt lat="45.93791" lon="3.66337">
        <ele>905.35162666667</ele>
        <time>2017-04-10T11:51:25Z</time>
      </trkpt>
      <trkpt lat="45.93791" lon="3.66343">
        <ele>905.55164</ele>
        <time>2017-04-10T11:51:32Z</time>
      </trkpt>
      <trkpt lat="45.93796" lon="3.66371">
        <ele>907.35182</ele>
        <time>2017-04-10T11:51:36Z</time>
      </trkpt>
      <trkpt lat="45.93797" lon="3.66386">
        <ele>908.85188666667</ele>
        <time>2017-04-10T11:51:41Z</time>
      </trkpt>
      <trkpt lat="45.93799" lon="3.66398">
        <ele>909.75194</ele>
        <time>2017-04-10T11:51:45Z</time>
      </trkpt>
      <trkpt lat="45.93799" lon="3.66411">
        <ele>910.15197333333</ele>
        <time>2017-04-10T11:51:49Z</time>
      </trkpt>
      <trkpt lat="45.93799" lon="3.66427">
        <ele>910.65196666667</ele>
        <time>2017-04-10T11:51:53Z</time>
      </trkpt>
      <trkpt lat="45.93799" lon="3.66446">
        <ele>911.35197333333</ele>
        <time>2017-04-10T11:51:58Z</time>
      </trkpt>
      <trkpt lat="45.938" lon="3.66462">
        <ele>911.85200666667</ele>
        <time>2017-04-10T11:52:02Z</time>
      </trkpt>
      <trkpt lat="45.93802" lon="3.66476">
        <ele>912.55206</ele>
        <time>2017-04-10T11:52:05Z</time>
      </trkpt>
      <trkpt lat="45.93803" lon="3.66491">
        <ele>913.05212</ele>
        <time>2017-04-10T11:52:10Z</time>
      </trkpt>
      <trkpt lat="45.93804" lon="3.665">
        <ele>913.75216666667</ele>
        <time>2017-04-10T11:52:14Z</time>
      </trkpt>
      <trkpt lat="45.93807" lon="3.66518">
        <ele>915.05228</ele>
        <time>2017-04-10T11:52:19Z</time>
      </trkpt>
      <trkpt lat="45.9381" lon="3.66531">
        <ele>915.65238666667</ele>
        <time>2017-04-10T11:52:23Z</time>
      </trkpt>
      <trkpt lat="45.93812" lon="3.66543">
        <ele>916.25249333333</ele>
        <time>2017-04-10T11:52:27Z</time>
      </trkpt>
      <trkpt lat="45.93814" lon="3.66553">
        <ele>916.85256666667</ele>
        <time>2017-04-10T11:52:29Z</time>
      </trkpt>
      <trkpt lat="45.93816" lon="3.66563">
        <ele>917.35262666667</ele>
        <time>2017-04-10T11:52:34Z</time>
      </trkpt>
      <trkpt lat="45.93817" lon="3.66574">
        <ele>917.95267333333</ele>
        <time>2017-04-10T11:52:36Z</time>
      </trkpt>
      <trkpt lat="45.93818" lon="3.66593">
        <ele>919.45272</ele>
        <time>2017-04-10T11:52:42Z</time>
      </trkpt>
      <trkpt lat="45.93818" lon="3.666">
        <ele>920.05272</ele>
        <time>2017-04-10T11:52:44Z</time>
      </trkpt>
      <trkpt lat="45.93817" lon="3.66621">
        <ele>922.25268</ele>
        <time>2017-04-10T11:52:52Z</time>
      </trkpt>
      <trkpt lat="45.93816" lon="3.66629">
        <ele>923.05262</ele>
        <time>2017-04-10T11:52:54Z</time>
      </trkpt>
      <trkpt lat="45.93815" lon="3.66636">
        <ele>923.45259333333</ele>
        <time>2017-04-10T11:53:00Z</time>
      </trkpt>
      <trkpt lat="45.93812" lon="3.66663">
        <ele>925.15246666667</ele>
        <time>2017-04-10T11:53:05Z</time>
      </trkpt>
      <trkpt lat="45.9381" lon="3.66673">
        <ele>926.05238666667</ele>
        <time>2017-04-10T11:53:09Z</time>
      </trkpt>
      <trkpt lat="45.93807" lon="3.66683">
        <ele>926.95229333333</ele>
        <time>2017-04-10T11:53:13Z</time>
      </trkpt>
      <trkpt lat="45.93805" lon="3.66693">
        <ele>927.25219333333</ele>
        <time>2017-04-10T11:53:17Z</time>
      </trkpt>
      <trkpt lat="45.938" lon="3.66707">
        <ele>928.75200666667</ele>
        <time>2017-04-10T11:53:22Z</time>
      </trkpt>
      <trkpt lat="45.93796" lon="3.66715">
        <ele>929.85184666667</ele>
        <time>2017-04-10T11:53:25Z</time>
      </trkpt>
      <trkpt lat="45.93789" lon="3.66726">
        <ele>930.75156</ele>
        <time>2017-04-10T11:53:29Z</time>
      </trkpt>
      <trkpt lat="45.93784" lon="3.66733">
        <ele>931.75134</ele>
        <time>2017-04-10T11:53:31Z</time>
      </trkpt>
      <trkpt lat="45.93776" lon="3.6674">
        <ele>932.25104</ele>
        <time>2017-04-10T11:53:36Z</time>
      </trkpt>
      <trkpt lat="45.93766" lon="3.66749">
        <ele>932.75065333333</ele>
        <time>2017-04-10T11:53:40Z</time>
      </trkpt>
      <trkpt lat="45.93755" lon="3.66758">
        <ele>932.95018666667</ele>
        <time>2017-04-10T11:53:43Z</time>
      </trkpt>
      <trkpt lat="45.93743" lon="3.66768">
        <ele>932.84973333333</ele>
        <time>2017-04-10T11:53:48Z</time>
      </trkpt>
      <trkpt lat="45.93728" lon="3.6678">
        <ele>932.84913333333</ele>
        <time>2017-04-10T11:53:53Z</time>
      </trkpt>
      <trkpt lat="45.93713" lon="3.66793">
        <ele>931.8485</ele>
        <time>2017-04-10T11:53:58Z</time>
      </trkpt>
      <trkpt lat="45.93704" lon="3.66801">
        <ele>931.54814666667</ele>
        <time>2017-04-10T11:54:01Z</time>
      </trkpt>
      <trkpt lat="45.93689" lon="3.66815">
        <ele>931.04757333333</ele>
        <time>2017-04-10T11:54:06Z</time>
      </trkpt>
      <trkpt lat="45.93687" lon="3.66817">
        <ele>931.04746666667</ele>
        <time>2017-04-10T11:54:13Z</time>
      </trkpt>
      <trkpt lat="45.93659" lon="3.66837">
        <ele>930.14636</ele>
        <time>2017-04-10T11:54:18Z</time>
      </trkpt>
      <trkpt lat="45.93647" lon="3.6684">
        <ele>929.94587333333</ele>
        <time>2017-04-10T11:54:21Z</time>
      </trkpt>
      <trkpt lat="45.93633" lon="3.66844">
        <ele>929.44532</ele>
        <time>2017-04-10T11:54:24Z</time>
      </trkpt>
      <trkpt lat="45.93607" lon="3.66854">
        <ele>929.24428</ele>
        <time>2017-04-10T11:54:28Z</time>
      </trkpt>
      <trkpt lat="45.93596" lon="3.66858">
        <ele>928.94383333333</ele>
        <time>2017-04-10T11:54:31Z</time>
      </trkpt>
      <trkpt lat="45.93579" lon="3.66866">
        <ele>928.64316</ele>
        <time>2017-04-10T11:54:36Z</time>
      </trkpt>
      <trkpt lat="45.93561" lon="3.66876">
        <ele>928.84244</ele>
        <time>2017-04-10T11:54:40Z</time>
      </trkpt>
      <trkpt lat="45.93548" lon="3.66884">
        <ele>929.54192666667</ele>
        <time>2017-04-10T11:54:44Z</time>
      </trkpt>
      <trkpt lat="45.93529" lon="3.66898">
        <ele>929.74116</ele>
        <time>2017-04-10T11:54:51Z</time>
      </trkpt>
      <trkpt lat="45.93519" lon="3.66905">
        <ele>929.84075333333</ele>
        <time>2017-04-10T11:54:55Z</time>
      </trkpt>
      <trkpt lat="45.9351" lon="3.6691">
        <ele>930.04038666667</ele>
        <time>2017-04-10T11:54:58Z</time>
      </trkpt>
      <trkpt lat="45.93491" lon="3.66914">
        <ele>929.93962</ele>
        <time>2017-04-10T11:55:02Z</time>
      </trkpt>
      <trkpt lat="45.93475" lon="3.66919">
        <ele>930.23900666667</ele>
        <time>2017-04-10T11:55:07Z</time>
      </trkpt>
      <trkpt lat="45.93454" lon="3.66925">
        <ele>931.13817333333</ele>
        <time>2017-04-10T11:55:11Z</time>
      </trkpt>
      <trkpt lat="45.93436" lon="3.6693">
        <ele>931.83742666667</ele>
        <time>2017-04-10T11:55:15Z</time>
      </trkpt>
      <trkpt lat="45.93427" lon="3.66934">
        <ele>932.33709333333</ele>
        <time>2017-04-10T11:55:17Z</time>
      </trkpt>
      <trkpt lat="45.93423" lon="3.66936">
        <ele>932.33690666667</ele>
        <time>2017-04-10T11:55:22Z</time>
      </trkpt>
      <trkpt lat="45.93387" lon="3.6696">
        <ele>932.63549333333</ele>
        <time>2017-04-10T11:55:27Z</time>
      </trkpt>
      <trkpt lat="45.93371" lon="3.66968">
        <ele>931.63484666667</ele>
        <time>2017-04-10T11:55:31Z</time>
      </trkpt>
      <trkpt lat="45.93353" lon="3.66973">
        <ele>930.83411333333</ele>
        <time>2017-04-10T11:55:36Z</time>
      </trkpt>
      <trkpt lat="45.93345" lon="3.66973">
        <ele>931.13379333333</ele>
        <time>2017-04-10T11:55:41Z</time>
      </trkpt>
      <trkpt lat="45.93312" lon="3.66976">
        <ele>932.93249333333</ele>
        <time>2017-04-10T11:55:46Z</time>
      </trkpt>
      <trkpt lat="45.93298" lon="3.66975">
        <ele>933.23192</ele>
        <time>2017-04-10T11:55:50Z</time>
      </trkpt>
      <trkpt lat="45.93261" lon="3.66956">
        <ele>932.33044666667</ele>
        <time>2017-04-10T11:55:54Z</time>
      </trkpt>
      <trkpt lat="45.93247" lon="3.66945">
        <ele>931.92988</ele>
        <time>2017-04-10T11:55:57Z</time>
      </trkpt>
      <trkpt lat="45.93231" lon="3.66933">
        <ele>930.32922666667</ele>
        <time>2017-04-10T11:56:00Z</time>
      </trkpt>
      <trkpt lat="45.93187" lon="3.66896">
        <ele>926.92748</ele>
        <time>2017-04-10T11:56:04Z</time>
      </trkpt>
      <trkpt lat="45.93143" lon="3.66855">
        <ele>923.02572666667</ele>
        <time>2017-04-10T11:56:09Z</time>
      </trkpt>
      <trkpt lat="45.93096" lon="3.66832">
        <ele>919.52384666667</ele>
        <time>2017-04-10T11:56:14Z</time>
      </trkpt>
      <trkpt lat="45.93071" lon="3.66818">
        <ele>918.12283333333</ele>
        <time>2017-04-10T11:56:17Z</time>
      </trkpt>
      <trkpt lat="45.93022" lon="3.66819">
        <ele>913.92086</ele>
        <time>2017-04-10T11:56:22Z</time>
      </trkpt>
      <trkpt lat="45.92979" lon="3.66825">
        <ele>910.91916666667</ele>
        <time>2017-04-10T11:56:26Z</time>
      </trkpt>
      <trkpt lat="45.92954" lon="3.66832">
        <ele>908.81814</ele>
        <time>2017-04-10T11:56:29Z</time>
      </trkpt>
      <trkpt lat="45.92921" lon="3.66842">
        <ele>905.01682666667</ele>
        <time>2017-04-10T11:56:34Z</time>
      </trkpt>
      <trkpt lat="45.92902" lon="3.66832">
        <ele>902.81606666667</ele>
        <time>2017-04-10T11:56:36Z</time>
      </trkpt>
      <trkpt lat="45.92895" lon="3.6683">
        <ele>902.01578666667</ele>
        <time>2017-04-10T11:56:49Z</time>
      </trkpt>
      <trkpt lat="45.92887" lon="3.66725">
        <ele>888.81547333333</ele>
        <time>2017-04-10T11:56:54Z</time>
      </trkpt>
      <trkpt lat="45.92912" lon="3.66691">
        <ele>885.01649333333</ele>
        <time>2017-04-10T11:56:58Z</time>
      </trkpt>
      <trkpt lat="45.92931" lon="3.66678">
        <ele>882.41722666667</ele>
        <time>2017-04-10T11:57:01Z</time>
      </trkpt>
      <trkpt lat="45.92955" lon="3.66661">
        <ele>879.21818666667</ele>
        <time>2017-04-10T11:57:05Z</time>
      </trkpt>
      <trkpt lat="45.92982" lon="3.66651">
        <ele>876.61928</ele>
        <time>2017-04-10T11:57:09Z</time>
      </trkpt>
      <trkpt lat="45.93008" lon="3.6664">
        <ele>875.62030666667</ele>
        <time>2017-04-10T11:57:14Z</time>
      </trkpt>
      <trkpt lat="45.9303" lon="3.66628">
        <ele>874.42118</ele>
        <time>2017-04-10T11:57:18Z</time>
      </trkpt>
      <trkpt lat="45.93047" lon="3.66604">
        <ele>871.72186666667</ele>
        <time>2017-04-10T11:57:22Z</time>
      </trkpt>
      <trkpt lat="45.93056" lon="3.66584">
        <ele>869.22223333333</ele>
        <time>2017-04-10T11:57:27Z</time>
      </trkpt>
      <trkpt lat="45.93064" lon="3.66571">
        <ele>867.22256</ele>
        <time>2017-04-10T11:57:31Z</time>
      </trkpt>
      <trkpt lat="45.93081" lon="3.66547">
        <ele>862.62324666667</ele>
        <time>2017-04-10T11:57:36Z</time>
      </trkpt>
      <trkpt lat="45.93087" lon="3.66539">
        <ele>860.92348666667</ele>
        <time>2017-04-10T11:57:43Z</time>
      </trkpt>
      <trkpt lat="45.93117" lon="3.66484">
        <ele>852.32466</ele>
        <time>2017-04-10T11:57:48Z</time>
      </trkpt>
      <trkpt lat="45.93125" lon="3.66472">
        <ele>849.925</ele>
        <time>2017-04-10T11:57:51Z</time>
      </trkpt>
      <trkpt lat="45.93138" lon="3.66453">
        <ele>846.62551333333</ele>
        <time>2017-04-10T11:57:55Z</time>
      </trkpt>
      <trkpt lat="45.93144" lon="3.66443">
        <ele>844.52574</ele>
        <time>2017-04-10T11:57:57Z</time>
      </trkpt>
      <trkpt lat="45.93153" lon="3.66431">
        <ele>840.42611333333</ele>
        <time>2017-04-10T11:58:01Z</time>
      </trkpt>
      <trkpt lat="45.9316" lon="3.6641">
        <ele>836.22641333333</ele>
        <time>2017-04-10T11:58:05Z</time>
      </trkpt>
      <trkpt lat="45.9316" lon="3.66405">
        <ele>835.02638666667</ele>
        <time>2017-04-10T11:58:09Z</time>
      </trkpt>
      <trkpt lat="45.9315" lon="3.66397">
        <ele>833.02598</ele>
        <time>2017-04-10T11:58:14Z</time>
      </trkpt>
      <trkpt lat="45.93143" lon="3.66395">
        <ele>831.32571333333</ele>
        <time>2017-04-10T11:58:22Z</time>
      </trkpt>
      <trkpt lat="45.93137" lon="3.6639">
        <ele>831.52546</ele>
        <time>2017-04-10T11:58:28Z</time>
      </trkpt>
      <trkpt lat="45.9313" lon="3.66386">
        <ele>830.92519333333</ele>
        <time>2017-04-10T11:58:34Z</time>
      </trkpt>
      <trkpt lat="45.93121" lon="3.66389">
        <ele>830.22483333333</ele>
        <time>2017-04-10T11:58:39Z</time>
      </trkpt>
      <trkpt lat="45.93106" lon="3.66394">
        <ele>829.42422666667</ele>
        <time>2017-04-10T11:58:43Z</time>
      </trkpt>
      <trkpt lat="45.931" lon="3.66396">
        <ele>829.02399333333</ele>
        <time>2017-04-10T11:58:45Z</time>
      </trkpt>
      <trkpt lat="45.93086" lon="3.66398">
        <ele>827.92344666667</ele>
        <time>2017-04-10T11:58:49Z</time>
      </trkpt>
      <trkpt lat="45.93077" lon="3.66399">
        <ele>827.22307333333</ele>
        <time>2017-04-10T11:58:54Z</time>
      </trkpt>
      <trkpt lat="45.93069" lon="3.66401">
        <ele>826.92274666667</ele>
        <time>2017-04-10T11:58:58Z</time>
      </trkpt>
      <trkpt lat="45.93044" lon="3.66403">
        <ele>826.72177333333</ele>
        <time>2017-04-10T11:59:03Z</time>
      </trkpt>
      <trkpt lat="45.93027" lon="3.66404">
        <ele>827.82108</ele>
        <time>2017-04-10T11:59:05Z</time>
      </trkpt>
      <trkpt lat="45.93008" lon="3.66404">
        <ele>828.8203</ele>
        <time>2017-04-10T11:59:10Z</time>
      </trkpt>
      <trkpt lat="45.93" lon="3.66404">
        <ele>828.52</ele>
        <time>2017-04-10T11:59:20Z</time>
      </trkpt>
      <trkpt lat="45.92994" lon="3.66404">
        <ele>828.41975333333</ele>
        <time>2017-04-10T11:59:24Z</time>
      </trkpt>
      <trkpt lat="45.92988" lon="3.66404">
        <ele>828.81953333333</ele>
        <time>2017-04-10T11:59:27Z</time>
      </trkpt>
      <trkpt lat="45.92974" lon="3.6641">
        <ele>827.81896666667</ele>
        <time>2017-04-10T11:59:32Z</time>
      </trkpt>
      <trkpt lat="45.92959" lon="3.66411">
        <ele>826.91837333333</ele>
        <time>2017-04-10T11:59:36Z</time>
      </trkpt>
      <trkpt lat="45.9294" lon="3.66412">
        <ele>826.31761333333</ele>
        <time>2017-04-10T11:59:42Z</time>
      </trkpt>
      <trkpt lat="45.92913" lon="3.66417">
        <ele>825.51652</ele>
        <time>2017-04-10T11:59:45Z</time>
      </trkpt>
      <trkpt lat="45.92874" lon="3.66417">
        <ele>824.21495333333</ele>
        <time>2017-04-10T11:59:53Z</time>
      </trkpt>
      <trkpt lat="45.92839" lon="3.6642">
        <ele>819.61355333333</ele>
        <time>2017-04-10T11:59:58Z</time>
      </trkpt>
      <trkpt lat="45.92822" lon="3.6642">
        <ele>816.41288666667</ele>
        <time>2017-04-10T12:00:02Z</time>
      </trkpt>
      <trkpt lat="45.92812" lon="3.66419">
        <ele>814.21249333333</ele>
        <time>2017-04-10T12:00:05Z</time>
      </trkpt>
      <trkpt lat="45.92804" lon="3.6642">
        <ele>812.41215333333</ele>
        <time>2017-04-10T12:00:10Z</time>
      </trkpt>
      <trkpt lat="45.92791" lon="3.66423">
        <ele>810.91164666667</ele>
        <time>2017-04-10T12:00:14Z</time>
      </trkpt>
      <trkpt lat="45.9278" lon="3.66423">
        <ele>809.61120666667</ele>
        <time>2017-04-10T12:00:16Z</time>
      </trkpt>
      <trkpt lat="45.92762" lon="3.66425">
        <ele>807.51047333333</ele>
        <time>2017-04-10T12:00:20Z</time>
      </trkpt>
      <trkpt lat="45.92731" lon="3.6643">
        <ele>804.80924</ele>
        <time>2017-04-10T12:00:24Z</time>
      </trkpt>
      <trkpt lat="45.92705" lon="3.66439">
        <ele>802.60820666667</ele>
        <time>2017-04-10T12:00:29Z</time>
      </trkpt>
      <trkpt lat="45.92698" lon="3.66439">
        <ele>801.50792</ele>
        <time>2017-04-10T12:00:31Z</time>
      </trkpt>
      <trkpt lat="45.92682" lon="3.66433">
        <ele>799.90726666667</ele>
        <time>2017-04-10T12:00:35Z</time>
      </trkpt>
      <trkpt lat="45.92665" lon="3.66414">
        <ele>798.00661333333</ele>
        <time>2017-04-10T12:00:39Z</time>
      </trkpt>
      <trkpt lat="45.92619" lon="3.66399">
        <ele>795.50477333333</ele>
        <time>2017-04-10T12:00:46Z</time>
      </trkpt>
      <trkpt lat="45.92602" lon="3.6638">
        <ele>792.90406666667</ele>
        <time>2017-04-10T12:00:50Z</time>
      </trkpt>
      <trkpt lat="45.92594" lon="3.66342">
        <ele>791.10375333333</ele>
        <time>2017-04-10T12:00:54Z</time>
      </trkpt>
      <trkpt lat="45.92592" lon="3.66305">
        <ele>789.20368666667</ele>
        <time>2017-04-10T12:00:57Z</time>
      </trkpt>
      <trkpt lat="45.92592" lon="3.66289">
        <ele>787.90366</ele>
        <time>2017-04-10T12:01:02Z</time>
      </trkpt>
      <trkpt lat="45.92593" lon="3.6628">
        <ele>787.70372</ele>
        <time>2017-04-10T12:01:07Z</time>
      </trkpt>
      <trkpt lat="45.92597" lon="3.6627">
        <ele>787.40386666667</ele>
        <time>2017-04-10T12:01:10Z</time>
      </trkpt>
      <trkpt lat="45.926" lon="3.66258">
        <ele>787.40399333333</ele>
        <time>2017-04-10T12:01:14Z</time>
      </trkpt>
      <trkpt lat="45.92605" lon="3.66221">
        <ele>786.90419333333</ele>
        <time>2017-04-10T12:01:19Z</time>
      </trkpt>
      <trkpt lat="45.92601" lon="3.66204">
        <ele>786.90404666667</ele>
        <time>2017-04-10T12:01:24Z</time>
      </trkpt>
      <trkpt lat="45.92601" lon="3.66196">
        <ele>786.60403333333</ele>
        <time>2017-04-10T12:01:28Z</time>
      </trkpt>
      <trkpt lat="45.92607" lon="3.66177">
        <ele>786.60429333333</ele>
        <time>2017-04-10T12:01:31Z</time>
      </trkpt>
      <trkpt lat="45.92609" lon="3.66162">
        <ele>786.90434666667</ele>
        <time>2017-04-10T12:01:35Z</time>
      </trkpt>
      <trkpt lat="45.92613" lon="3.6615">
        <ele>788.50451333333</ele>
        <time>2017-04-10T12:01:36Z</time>
      </trkpt>
      <trkpt lat="45.92617" lon="3.6614">
        <ele>789.20467333333</ele>
        <time>2017-04-10T12:01:41Z</time>
      </trkpt>
      <trkpt lat="45.92621" lon="3.66127">
        <ele>789.70484666667</ele>
        <time>2017-04-10T12:01:45Z</time>
      </trkpt>
      <trkpt lat="45.92624" lon="3.66118">
        <ele>788.80496</ele>
        <time>2017-04-10T12:01:52Z</time>
      </trkpt>
      <trkpt lat="45.92632" lon="3.66072">
        <ele>787.90527333333</ele>
        <time>2017-04-10T12:01:54Z</time>
      </trkpt>
      <trkpt lat="45.92634" lon="3.66038">
        <ele>786.10536666667</ele>
        <time>2017-04-10T12:02:00Z</time>
      </trkpt>
      <trkpt lat="45.92625" lon="3.66022">
        <ele>784.20498</ele>
        <time>2017-04-10T12:02:05Z</time>
      </trkpt>
      <trkpt lat="45.92618" lon="3.66013">
        <ele>782.60470666667</ele>
        <time>2017-04-10T12:02:08Z</time>
      </trkpt>
      <trkpt lat="45.92608" lon="3.66004">
        <ele>781.10433333333</ele>
        <time>2017-04-10T12:02:11Z</time>
      </trkpt>
      <trkpt lat="45.92593" lon="3.65993">
        <ele>777.80372</ele>
        <time>2017-04-10T12:02:15Z</time>
      </trkpt>
      <trkpt lat="45.92583" lon="3.65986">
        <ele>775.80331333333</ele>
        <time>2017-04-10T12:02:20Z</time>
      </trkpt>
      <trkpt lat="45.92575" lon="3.65983">
        <ele>774.50301333333</ele>
        <time>2017-04-10T12:02:25Z</time>
      </trkpt>
      <trkpt lat="45.92541" lon="3.6596">
        <ele>765.60164</ele>
        <time>2017-04-10T12:02:30Z</time>
      </trkpt>
      <trkpt lat="45.92549" lon="3.65931">
        <ele>760.30197333333</ele>
        <time>2017-04-10T12:02:35Z</time>
      </trkpt>
      <trkpt lat="45.92574" lon="3.65888">
        <ele>753.00295333333</ele>
        <time>2017-04-10T12:02:40Z</time>
      </trkpt>
      <trkpt lat="45.92593" lon="3.65865">
        <ele>748.30373333333</ele>
        <time>2017-04-10T12:02:44Z</time>
      </trkpt>
      <trkpt lat="45.92618" lon="3.6586">
        <ele>744.5047</ele>
        <time>2017-04-10T12:02:47Z</time>
      </trkpt>
      <trkpt lat="45.92624" lon="3.65862">
        <ele>743.90494</ele>
        <time>2017-04-10T12:02:50Z</time>
      </trkpt>
      <trkpt lat="45.92646" lon="3.65863">
        <ele>742.30582</ele>
        <time>2017-04-10T12:02:56Z</time>
      </trkpt>
      <trkpt lat="45.92686" lon="3.65855">
        <ele>736.60745333333</ele>
        <time>2017-04-10T12:03:01Z</time>
      </trkpt>
      <trkpt lat="45.92708" lon="3.65869">
        <ele>733.30832</ele>
        <time>2017-04-10T12:03:05Z</time>
      </trkpt>
      <trkpt lat="45.92711" lon="3.65875">
        <ele>733.00842</ele>
        <time>2017-04-10T12:03:07Z</time>
      </trkpt>
      <trkpt lat="45.92725" lon="3.65915">
        <ele>730.80899333333</ele>
        <time>2017-04-10T12:03:15Z</time>
      </trkpt>
      <trkpt lat="45.92734" lon="3.65909">
        <ele>730.40935333333</ele>
        <time>2017-04-10T12:03:19Z</time>
      </trkpt>
      <trkpt lat="45.92742" lon="3.65887">
        <ele>729.50967333333</ele>
        <time>2017-04-10T12:03:24Z</time>
      </trkpt>
      <trkpt lat="45.92748" lon="3.6586">
        <ele>727.30990666667</ele>
        <time>2017-04-10T12:03:28Z</time>
      </trkpt>
      <trkpt lat="45.92751" lon="3.6583">
        <ele>725.91003333333</ele>
        <time>2017-04-10T12:03:31Z</time>
      </trkpt>
      <trkpt lat="45.92755" lon="3.65799">
        <ele>725.41018666667</ele>
        <time>2017-04-10T12:03:36Z</time>
      </trkpt>
      <trkpt lat="45.92751" lon="3.6577">
        <ele>724.91004666667</ele>
        <time>2017-04-10T12:03:40Z</time>
      </trkpt>
      <trkpt lat="45.92744" lon="3.65747">
        <ele>724.40975333333</ele>
        <time>2017-04-10T12:03:45Z</time>
      </trkpt>
      <trkpt lat="45.9274" lon="3.65709">
        <ele>723.10961333333</ele>
        <time>2017-04-10T12:03:50Z</time>
      </trkpt>
      <trkpt lat="45.92738" lon="3.65684">
        <ele>723.10950666667</ele>
        <time>2017-04-10T12:03:55Z</time>
      </trkpt>
      <trkpt lat="45.92737" lon="3.65658">
        <ele>724.00946666667</ele>
        <time>2017-04-10T12:03:59Z</time>
      </trkpt>
      <trkpt lat="45.92733" lon="3.65635">
        <ele>724.90931333333</ele>
        <time>2017-04-10T12:04:02Z</time>
      </trkpt>
      <trkpt lat="45.92722" lon="3.65611">
        <ele>725.60888666667</ele>
        <time>2017-04-10T12:04:06Z</time>
      </trkpt>
      <trkpt lat="45.92716" lon="3.656">
        <ele>725.80862666667</ele>
        <time>2017-04-10T12:04:13Z</time>
      </trkpt>
      <trkpt lat="45.92688" lon="3.6557">
        <ele>726.90751333333</ele>
        <time>2017-04-10T12:04:16Z</time>
      </trkpt>
      <trkpt lat="45.92674" lon="3.65546">
        <ele>727.40695333333</ele>
        <time>2017-04-10T12:04:21Z</time>
      </trkpt>
      <trkpt lat="45.92669" lon="3.6553">
        <ele>728.10674666667</ele>
        <time>2017-04-10T12:04:25Z</time>
      </trkpt>
      <trkpt lat="45.92662" lon="3.65517">
        <ele>728.70647333333</ele>
        <time>2017-04-10T12:04:29Z</time>
      </trkpt>
      <trkpt lat="45.92651" lon="3.65502">
        <ele>729.10604</ele>
        <time>2017-04-10T12:04:34Z</time>
      </trkpt>
      <trkpt lat="45.92642" lon="3.6548">
        <ele>729.30566666667</ele>
        <time>2017-04-10T12:04:38Z</time>
      </trkpt>
      <trkpt lat="45.92639" lon="3.65471">
        <ele>729.40555333333</ele>
        <time>2017-04-10T12:04:40Z</time>
      </trkpt>
      <trkpt lat="45.92632" lon="3.65453">
        <ele>729.60528666667</ele>
        <time>2017-04-10T12:04:45Z</time>
      </trkpt>
      <trkpt lat="45.92626" lon="3.65435">
        <ele>729.50502</ele>
        <time>2017-04-10T12:04:48Z</time>
      </trkpt>
      <trkpt lat="45.92612" lon="3.65416">
        <ele>729.50448</ele>
        <time>2017-04-10T12:04:52Z</time>
      </trkpt>
      <trkpt lat="45.92586" lon="3.65394">
        <ele>728.60342666667</ele>
        <time>2017-04-10T12:04:56Z</time>
      </trkpt>
      <trkpt lat="45.92566" lon="3.65384">
        <ele>728.10262666667</ele>
        <time>2017-04-10T12:05:01Z</time>
      </trkpt>
      <trkpt lat="45.92544" lon="3.65376">
        <ele>726.60176666667</ele>
        <time>2017-04-10T12:05:05Z</time>
      </trkpt>
      <trkpt lat="45.92536" lon="3.65369">
        <ele>726.40144666667</ele>
        <time>2017-04-10T12:05:09Z</time>
      </trkpt>
      <trkpt lat="45.9252" lon="3.65357">
        <ele>724.70079333333</ele>
        <time>2017-04-10T12:05:13Z</time>
      </trkpt>
      <trkpt lat="45.92504" lon="3.65352">
        <ele>724.50017333333</ele>
        <time>2017-04-10T12:05:17Z</time>
      </trkpt>
      <trkpt lat="45.92492" lon="3.65349">
        <ele>722.99967333333</ele>
        <time>2017-04-10T12:05:22Z</time>
      </trkpt>
      <trkpt lat="45.9248" lon="3.65349">
        <ele>723.39918666667</ele>
        <time>2017-04-10T12:05:27Z</time>
      </trkpt>
      <trkpt lat="45.92474" lon="3.65347">
        <ele>723.99896</ele>
        <time>2017-04-10T12:05:30Z</time>
      </trkpt>
      <trkpt lat="45.92464" lon="3.65347">
        <ele>724.59854</ele>
        <time>2017-04-10T12:05:35Z</time>
      </trkpt>
      <trkpt lat="45.92456" lon="3.65346">
        <ele>725.89822</ele>
        <time>2017-04-10T12:05:40Z</time>
      </trkpt>
      <trkpt lat="45.92446" lon="3.65346">
        <ele>726.09782666667</ele>
        <time>2017-04-10T12:05:44Z</time>
      </trkpt>
      <trkpt lat="45.92438" lon="3.6535">
        <ele>727.2975</ele>
        <time>2017-04-10T12:05:49Z</time>
      </trkpt>
      <trkpt lat="45.92429" lon="3.65352">
        <ele>728.19717333333</ele>
        <time>2017-04-10T12:05:56Z</time>
      </trkpt>
      <trkpt lat="45.9242" lon="3.65357">
        <ele>728.49678</ele>
        <time>2017-04-10T12:06:00Z</time>
      </trkpt>
      <trkpt lat="45.92412" lon="3.65361">
        <ele>729.69646666667</ele>
        <time>2017-04-10T12:06:05Z</time>
      </trkpt>
      <trkpt lat="45.92403" lon="3.65362">
        <ele>729.89612</ele>
        <time>2017-04-10T12:06:11Z</time>
      </trkpt>
      <trkpt lat="45.92387" lon="3.65356">
        <ele>729.89548666667</ele>
        <time>2017-04-10T12:06:15Z</time>
      </trkpt>
      <trkpt lat="45.92374" lon="3.65345">
        <ele>730.29496</ele>
        <time>2017-04-10T12:06:20Z</time>
      </trkpt>
      <trkpt lat="45.92364" lon="3.65333">
        <ele>731.69454</ele>
        <time>2017-04-10T12:06:24Z</time>
      </trkpt>
      <trkpt lat="45.92358" lon="3.65328">
        <ele>732.09432</ele>
        <time>2017-04-10T12:06:33Z</time>
      </trkpt>
      <trkpt lat="45.92344" lon="3.65314">
        <ele>733.39375333333</ele>
        <time>2017-04-10T12:06:36Z</time>
      </trkpt>
      <trkpt lat="45.92336" lon="3.65308">
        <ele>734.39344666667</ele>
        <time>2017-04-10T12:06:41Z</time>
      </trkpt>
      <trkpt lat="45.9233" lon="3.65303">
        <ele>735.69320666667</ele>
        <time>2017-04-10T12:06:46Z</time>
      </trkpt>
      <trkpt lat="45.92322" lon="3.65301">
        <ele>736.29288</ele>
        <time>2017-04-10T12:06:49Z</time>
      </trkpt>
      <trkpt lat="45.92315" lon="3.65299">
        <ele>736.49259333333</ele>
        <time>2017-04-10T12:06:54Z</time>
      </trkpt>
      <trkpt lat="45.92307" lon="3.65297">
        <ele>737.29226</ele>
        <time>2017-04-10T12:06:58Z</time>
      </trkpt>
      <trkpt lat="45.92295" lon="3.65296">
        <ele>738.09179333333</ele>
        <time>2017-04-10T12:07:03Z</time>
      </trkpt>
      <trkpt lat="45.92284" lon="3.65296">
        <ele>737.99137333333</ele>
        <time>2017-04-10T12:07:08Z</time>
      </trkpt>
      <trkpt lat="45.92276" lon="3.65297">
        <ele>737.39104666667</ele>
        <time>2017-04-10T12:07:11Z</time>
      </trkpt>
      <trkpt lat="45.92265" lon="3.65297">
        <ele>737.09060666667</ele>
        <time>2017-04-10T12:07:15Z</time>
      </trkpt>
      <trkpt lat="45.92253" lon="3.65296">
        <ele>736.9901</ele>
        <time>2017-04-10T12:07:20Z</time>
      </trkpt>
      <trkpt lat="45.92245" lon="3.65297">
        <ele>737.28978</ele>
        <time>2017-04-10T12:07:23Z</time>
      </trkpt>
      <trkpt lat="45.92234" lon="3.65299">
        <ele>736.58935333333</ele>
        <time>2017-04-10T12:07:26Z</time>
      </trkpt>
      <trkpt lat="45.92218" lon="3.65305">
        <ele>735.48871333333</ele>
        <time>2017-04-10T12:07:30Z</time>
      </trkpt>
      <trkpt lat="45.92204" lon="3.65314">
        <ele>734.58814</ele>
        <time>2017-04-10T12:07:34Z</time>
      </trkpt>
      <trkpt lat="45.92187" lon="3.65328">
        <ele>731.48746666667</ele>
        <time>2017-04-10T12:07:39Z</time>
      </trkpt>
      <trkpt lat="45.92175" lon="3.6534">
        <ele>729.587</ele>
        <time>2017-04-10T12:07:42Z</time>
      </trkpt>
      <trkpt lat="45.92166" lon="3.65351">
        <ele>727.88662</ele>
        <time>2017-04-10T12:07:46Z</time>
      </trkpt>
      <trkpt lat="45.92149" lon="3.65365">
        <ele>726.08596</ele>
        <time>2017-04-10T12:07:49Z</time>
      </trkpt>
      <trkpt lat="45.9214" lon="3.65371">
        <ele>724.78558666667</ele>
        <time>2017-04-10T12:07:53Z</time>
      </trkpt>
      <trkpt lat="45.92135" lon="3.65374">
        <ele>724.48540666667</ele>
        <time>2017-04-10T12:08:00Z</time>
      </trkpt>
      <trkpt lat="45.92113" lon="3.65385">
        <ele>722.98452</ele>
        <time>2017-04-10T12:08:04Z</time>
      </trkpt>
      <trkpt lat="45.92101" lon="3.65392">
        <ele>722.28404666667</ele>
        <time>2017-04-10T12:08:08Z</time>
      </trkpt>
      <trkpt lat="45.9209" lon="3.654">
        <ele>721.88360666667</ele>
        <time>2017-04-10T12:08:13Z</time>
      </trkpt>
      <trkpt lat="45.92077" lon="3.65409">
        <ele>720.58306666667</ele>
        <time>2017-04-10T12:08:17Z</time>
      </trkpt>
      <trkpt lat="45.92065" lon="3.65415">
        <ele>719.3826</ele>
        <time>2017-04-10T12:08:21Z</time>
      </trkpt>
      <trkpt lat="45.92057" lon="3.65421">
        <ele>718.98226666667</ele>
        <time>2017-04-10T12:08:25Z</time>
      </trkpt>
      <trkpt lat="45.92046" lon="3.65426">
        <ele>719.88183333333</ele>
        <time>2017-04-10T12:08:29Z</time>
      </trkpt>
      <trkpt lat="45.92034" lon="3.65432">
        <ele>722.08135333333</ele>
        <time>2017-04-10T12:08:33Z</time>
      </trkpt>
      <trkpt lat="45.92025" lon="3.65437">
        <ele>724.08099333333</ele>
        <time>2017-04-10T12:08:36Z</time>
      </trkpt>
      <trkpt lat="45.92019" lon="3.6544">
        <ele>725.38076666667</ele>
        <time>2017-04-10T12:08:38Z</time>
      </trkpt>
      <trkpt lat="45.92006" lon="3.65448">
        <ele>728.78023333333</ele>
        <time>2017-04-10T12:08:43Z</time>
      </trkpt>
      <trkpt lat="45.91997" lon="3.65452">
        <ele>730.37986</ele>
        <time>2017-04-10T12:08:48Z</time>
      </trkpt>
      <trkpt lat="45.91983" lon="3.65459">
        <ele>732.47930666667</ele>
        <time>2017-04-10T12:08:53Z</time>
      </trkpt>
      <trkpt lat="45.91969" lon="3.65463">
        <ele>734.37876666667</ele>
        <time>2017-04-10T12:08:57Z</time>
      </trkpt>
      <trkpt lat="45.91961" lon="3.65465">
        <ele>736.17844666667</ele>
        <time>2017-04-10T12:09:00Z</time>
      </trkpt>
      <trkpt lat="45.91949" lon="3.65466">
        <ele>738.77794</ele>
        <time>2017-04-10T12:09:05Z</time>
      </trkpt>
      <trkpt lat="45.91944" lon="3.65465">
        <ele>739.57774666667</ele>
        <time>2017-04-10T12:09:07Z</time>
      </trkpt>
      <trkpt lat="45.91936" lon="3.65461">
        <ele>741.67745333333</ele>
        <time>2017-04-10T12:09:12Z</time>
      </trkpt>
      <trkpt lat="45.91929" lon="3.65448">
        <ele>745.37717333333</ele>
        <time>2017-04-10T12:09:16Z</time>
      </trkpt>
      <trkpt lat="45.91922" lon="3.65434">
        <ele>748.37686666667</ele>
        <time>2017-04-10T12:09:21Z</time>
      </trkpt>
      <trkpt lat="45.91915" lon="3.65427">
        <ele>751.27658</ele>
        <time>2017-04-10T12:09:25Z</time>
      </trkpt>
      <trkpt lat="45.91908" lon="3.6542">
        <ele>754.27630666667</ele>
        <time>2017-04-10T12:09:28Z</time>
      </trkpt>
      <trkpt lat="45.919" lon="3.65413">
        <ele>756.47601333333</ele>
        <time>2017-04-10T12:09:34Z</time>
      </trkpt>
      <trkpt lat="45.91895" lon="3.65409">
        <ele>757.67579333333</ele>
        <time>2017-04-10T12:09:38Z</time>
      </trkpt>
      <trkpt lat="45.91888" lon="3.65404">
        <ele>759.07551333333</ele>
        <time>2017-04-10T12:09:42Z</time>
      </trkpt>
      <trkpt lat="45.91878" lon="3.65398">
        <ele>761.07513333333</ele>
        <time>2017-04-10T12:09:47Z</time>
      </trkpt>
      <trkpt lat="45.91869" lon="3.65393">
        <ele>761.87476666667</ele>
        <time>2017-04-10T12:09:51Z</time>
      </trkpt>
      <trkpt lat="45.91859" lon="3.65388">
        <ele>761.97435333333</ele>
        <time>2017-04-10T12:09:56Z</time>
      </trkpt>
      <trkpt lat="45.91851" lon="3.6539">
        <ele>756.27402666667</ele>
        <time>2017-04-10T12:13:43Z</time>
      </trkpt>
      <trkpt lat="45.91852" lon="3.65376">
        <ele>749.67406666667</ele>
        <time>2017-04-10T12:13:48Z</time>
      </trkpt>
      <trkpt lat="45.91847" lon="3.65385">
        <ele>744.47388</ele>
        <time>2017-04-10T12:15:06Z</time>
      </trkpt>
      <trkpt lat="45.91857" lon="3.65368">
        <ele>746.57429333333</ele>
        <time>2017-04-10T12:15:10Z</time>
      </trkpt>
      <trkpt lat="45.91853" lon="3.65356">
        <ele>747.87410666667</ele>
        <time>2017-04-10T12:15:14Z</time>
      </trkpt>
      <trkpt lat="45.91841" lon="3.65344">
        <ele>750.07364</ele>
        <time>2017-04-10T12:15:19Z</time>
      </trkpt>
      <trkpt lat="45.91816" lon="3.65328">
        <ele>751.37262666667</ele>
        <time>2017-04-10T12:15:21Z</time>
      </trkpt>
      <trkpt lat="45.91796" lon="3.65319">
        <ele>751.37182</ele>
        <time>2017-04-10T12:15:31Z</time>
      </trkpt>
      <trkpt lat="45.91702" lon="3.65284">
        <ele>747.26807333333</ele>
        <time>2017-04-10T12:15:35Z</time>
      </trkpt>
      <trkpt lat="45.91696" lon="3.65276">
        <ele>746.76782666667</ele>
        <time>2017-04-10T12:15:38Z</time>
      </trkpt>
      <trkpt lat="45.91684" lon="3.6526">
        <ele>746.56737333333</ele>
        <time>2017-04-10T12:15:43Z</time>
      </trkpt>
      <trkpt lat="45.91672" lon="3.65249">
        <ele>745.56688666667</ele>
        <time>2017-04-10T12:15:49Z</time>
      </trkpt>
      <trkpt lat="45.91666" lon="3.65234">
        <ele>744.86664666667</ele>
        <time>2017-04-10T12:15:54Z</time>
      </trkpt>
      <trkpt lat="45.91666" lon="3.65223">
        <ele>744.66664</ele>
        <time>2017-04-10T12:15:58Z</time>
      </trkpt>
      <trkpt lat="45.91669" lon="3.65213">
        <ele>744.56674</ele>
        <time>2017-04-10T12:16:01Z</time>
      </trkpt>
      <trkpt lat="45.91672" lon="3.65202">
        <ele>744.66687333333</ele>
        <time>2017-04-10T12:16:04Z</time>
      </trkpt>
      <trkpt lat="45.91676" lon="3.65192">
        <ele>745.16704666667</ele>
        <time>2017-04-10T12:16:08Z</time>
      </trkpt>
      <trkpt lat="45.9168" lon="3.65186">
        <ele>746.1672</ele>
        <time>2017-04-10T12:16:12Z</time>
      </trkpt>
      <trkpt lat="45.91685" lon="3.65176">
        <ele>747.0674</ele>
        <time>2017-04-10T12:16:19Z</time>
      </trkpt>
      <trkpt lat="45.91691" lon="3.65148">
        <ele>749.86765333333</ele>
        <time>2017-04-10T12:16:24Z</time>
      </trkpt>
      <trkpt lat="45.91689" lon="3.65124">
        <ele>752.16757333333</ele>
        <time>2017-04-10T12:16:28Z</time>
      </trkpt>
      <trkpt lat="45.917" lon="3.65098">
        <ele>754.06798</ele>
        <time>2017-04-10T12:16:32Z</time>
      </trkpt>
      <trkpt lat="45.9173" lon="3.65079">
        <ele>755.76918</ele>
        <time>2017-04-10T12:16:37Z</time>
      </trkpt>
      <trkpt lat="45.91751" lon="3.65046">
        <ele>757.37004666667</ele>
        <time>2017-04-10T12:16:40Z</time>
      </trkpt>
      <trkpt lat="45.91764" lon="3.65015">
        <ele>757.27054666667</ele>
        <time>2017-04-10T12:16:44Z</time>
      </trkpt>
      <trkpt lat="45.91775" lon="3.64964">
        <ele>757.47098</ele>
        <time>2017-04-10T12:16:48Z</time>
      </trkpt>
      <trkpt lat="45.91771" lon="3.64931">
        <ele>758.37083333333</ele>
        <time>2017-04-10T12:16:52Z</time>
      </trkpt>
      <trkpt lat="45.9177" lon="3.64886">
        <ele>759.37078666667</ele>
        <time>2017-04-10T12:16:58Z</time>
      </trkpt>
      <trkpt lat="45.91779" lon="3.64884">
        <ele>759.67116666667</ele>
        <time>2017-04-10T12:17:00Z</time>
      </trkpt>
      <trkpt lat="45.91784" lon="3.64885">
        <ele>759.87136</ele>
        <time>2017-04-10T12:17:05Z</time>
      </trkpt>
      <trkpt lat="45.91816" lon="3.64873">
        <ele>759.37264</ele>
        <time>2017-04-10T12:17:10Z</time>
      </trkpt>
      <trkpt lat="45.91818" lon="3.64867">
        <ele>759.07272</ele>
        <time>2017-04-10T12:17:16Z</time>
      </trkpt>
      <trkpt lat="45.91834" lon="3.64814">
        <ele>757.07334666667</ele>
        <time>2017-04-10T12:17:20Z</time>
      </trkpt>
      <trkpt lat="45.91844" lon="3.64773">
        <ele>754.87374666667</ele>
        <time>2017-04-10T12:17:25Z</time>
      </trkpt>
      <trkpt lat="45.91859" lon="3.64735">
        <ele>753.07437333333</ele>
        <time>2017-04-10T12:17:30Z</time>
      </trkpt>
      <trkpt lat="45.91868" lon="3.64717">
        <ele>752.67471333333</ele>
        <time>2017-04-10T12:17:33Z</time>
      </trkpt>
      <trkpt lat="45.91879" lon="3.64686">
        <ele>751.47514</ele>
        <time>2017-04-10T12:17:37Z</time>
      </trkpt>
      <trkpt lat="45.9188" lon="3.64655">
        <ele>750.77518</ele>
        <time>2017-04-10T12:17:41Z</time>
      </trkpt>
      <trkpt lat="45.91878" lon="3.64641">
        <ele>750.67513333333</ele>
        <time>2017-04-10T12:17:43Z</time>
      </trkpt>
      <trkpt lat="45.91879" lon="3.64608">
        <ele>750.77514666667</ele>
        <time>2017-04-10T12:17:47Z</time>
      </trkpt>
      <trkpt lat="45.9188" lon="3.64574">
        <ele>751.07521333333</ele>
        <time>2017-04-10T12:17:52Z</time>
      </trkpt>
      <trkpt lat="45.9188" lon="3.64537">
        <ele>751.47519333333</ele>
        <time>2017-04-10T12:17:56Z</time>
      </trkpt>
      <trkpt lat="45.91889" lon="3.64496">
        <ele>751.27554666667</ele>
        <time>2017-04-10T12:18:00Z</time>
      </trkpt>
      <trkpt lat="45.91901" lon="3.64448">
        <ele>750.77603333333</ele>
        <time>2017-04-10T12:18:05Z</time>
      </trkpt>
      <trkpt lat="45.91902" lon="3.64415">
        <ele>749.97608666667</ele>
        <time>2017-04-10T12:18:09Z</time>
      </trkpt>
      <trkpt lat="45.91902" lon="3.64382">
        <ele>749.87608</ele>
        <time>2017-04-10T12:18:13Z</time>
      </trkpt>
      <trkpt lat="45.91897" lon="3.6435">
        <ele>749.87588</ele>
        <time>2017-04-10T12:18:17Z</time>
      </trkpt>
      <trkpt lat="45.91889" lon="3.6432">
        <ele>749.87557333333</ele>
        <time>2017-04-10T12:18:21Z</time>
      </trkpt>
      <trkpt lat="45.91882" lon="3.64292">
        <ele>749.27528666667</ele>
        <time>2017-04-10T12:18:24Z</time>
      </trkpt>
      <trkpt lat="45.91878" lon="3.6427">
        <ele>749.57511333333</ele>
        <time>2017-04-10T12:18:28Z</time>
      </trkpt>
      <trkpt lat="45.91871" lon="3.64241">
        <ele>750.57485333333</ele>
        <time>2017-04-10T12:18:32Z</time>
      </trkpt>
      <trkpt lat="45.91861" lon="3.64197">
        <ele>751.77444666667</ele>
        <time>2017-04-10T12:18:36Z</time>
      </trkpt>
      <trkpt lat="45.91856" lon="3.6416">
        <ele>751.97425333333</ele>
        <time>2017-04-10T12:18:41Z</time>
      </trkpt>
      <trkpt lat="45.9186" lon="3.64128">
        <ele>752.77438</ele>
        <time>2017-04-10T12:18:45Z</time>
      </trkpt>
      <trkpt lat="45.91875" lon="3.64102">
        <ele>752.57498666667</ele>
        <time>2017-04-10T12:18:50Z</time>
      </trkpt>
      <trkpt lat="45.91887" lon="3.64076">
        <ele>751.37549333333</ele>
        <time>2017-04-10T12:18:54Z</time>
      </trkpt>
      <trkpt lat="45.91912" lon="3.64049">
        <ele>748.07648666667</ele>
        <time>2017-04-10T12:18:58Z</time>
      </trkpt>
      <trkpt lat="45.91934" lon="3.64045">
        <ele>746.37736666667</ele>
        <time>2017-04-10T12:19:03Z</time>
      </trkpt>
      <trkpt lat="45.91958" lon="3.64043">
        <ele>739.27830666667</ele>
        <time>2017-04-10T12:19:08Z</time>
      </trkpt>
      <trkpt lat="45.91981" lon="3.64028">
        <ele>735.97924</ele>
        <time>2017-04-10T12:19:12Z</time>
      </trkpt>
      <trkpt lat="45.9199" lon="3.6401">
        <ele>734.2796</ele>
        <time>2017-04-10T12:19:17Z</time>
      </trkpt>
      <trkpt lat="45.91997" lon="3.63984">
        <ele>733.57988</ele>
        <time>2017-04-10T12:19:21Z</time>
      </trkpt>
      <trkpt lat="45.92001" lon="3.63962">
        <ele>732.68005333333</ele>
        <time>2017-04-10T12:19:24Z</time>
      </trkpt>
      <trkpt lat="45.92005" lon="3.63931">
        <ele>732.5802</ele>
        <time>2017-04-10T12:19:28Z</time>
      </trkpt>
      <trkpt lat="45.92008" lon="3.639">
        <ele>732.68031333333</ele>
        <time>2017-04-10T12:19:32Z</time>
      </trkpt>
      <trkpt lat="45.92011" lon="3.63872">
        <ele>732.08044</ele>
        <time>2017-04-10T12:19:36Z</time>
      </trkpt>
      <trkpt lat="45.92014" lon="3.63847">
        <ele>732.58056</ele>
        <time>2017-04-10T12:19:40Z</time>
      </trkpt>
      <trkpt lat="45.92018" lon="3.63826">
        <ele>732.98070666667</ele>
        <time>2017-04-10T12:19:44Z</time>
      </trkpt>
      <trkpt lat="45.92021" lon="3.63793">
        <ele>733.38085333333</ele>
        <time>2017-04-10T12:19:48Z</time>
      </trkpt>
      <trkpt lat="45.92026" lon="3.63755">
        <ele>733.78102</ele>
        <time>2017-04-10T12:19:51Z</time>
      </trkpt>
      <trkpt lat="45.92024" lon="3.63734">
        <ele>733.08094</ele>
        <time>2017-04-10T12:19:56Z</time>
      </trkpt>
      <trkpt lat="45.91995" lon="3.63715">
        <ele>721.4798</ele>
        <time>2017-04-10T12:20:01Z</time>
      </trkpt>
      <trkpt lat="45.91968" lon="3.63706">
        <ele>713.47872666667</ele>
        <time>2017-04-10T12:20:05Z</time>
      </trkpt>
      <trkpt lat="45.91941" lon="3.63693">
        <ele>706.17762666667</ele>
        <time>2017-04-10T12:20:09Z</time>
      </trkpt>
      <trkpt lat="45.91918" lon="3.63675">
        <ele>702.27673333333</ele>
        <time>2017-04-10T12:20:12Z</time>
      </trkpt>
      <trkpt lat="45.91904" lon="3.63661">
        <ele>701.17615333333</ele>
        <time>2017-04-10T12:20:16Z</time>
      </trkpt>
      <trkpt lat="45.91898" lon="3.63655">
        <ele>700.57592</ele>
        <time>2017-04-10T12:20:19Z</time>
      </trkpt>
      <trkpt lat="45.91892" lon="3.63652">
        <ele>700.87567333333</ele>
        <time>2017-04-10T12:20:23Z</time>
      </trkpt>
      <trkpt lat="45.91884" lon="3.63651">
        <ele>700.47534</ele>
        <time>2017-04-10T12:20:27Z</time>
      </trkpt>
      <trkpt lat="45.9188" lon="3.6365">
        <ele>700.77521333333</ele>
        <time>2017-04-10T12:20:31Z</time>
      </trkpt>
      <trkpt lat="45.91871" lon="3.63658">
        <ele>700.57484</ele>
        <time>2017-04-10T12:20:35Z</time>
      </trkpt>
      <trkpt lat="45.91858" lon="3.63665">
        <ele>701.27430666667</ele>
        <time>2017-04-10T12:20:39Z</time>
      </trkpt>
      <trkpt lat="45.91855" lon="3.6367">
        <ele>701.3742</ele>
        <time>2017-04-10T12:20:41Z</time>
      </trkpt>
      <trkpt lat="45.91852" lon="3.63677">
        <ele>701.37406</ele>
        <time>2017-04-10T12:20:44Z</time>
      </trkpt>
      <trkpt lat="45.91848" lon="3.63695">
        <ele>702.57391333333</ele>
        <time>2017-04-10T12:20:49Z</time>
      </trkpt>
      <trkpt lat="45.91843" lon="3.63708">
        <ele>702.37370666667</ele>
        <time>2017-04-10T12:20:53Z</time>
      </trkpt>
      <trkpt lat="45.91837" lon="3.63721">
        <ele>704.57346666667</ele>
        <time>2017-04-10T12:20:57Z</time>
      </trkpt>
      <trkpt lat="45.91833" lon="3.63731">
        <ele>704.4733</ele>
        <time>2017-04-10T12:21:00Z</time>
      </trkpt>
      <trkpt lat="45.91827" lon="3.63745">
        <ele>705.57306666667</ele>
        <time>2017-04-10T12:21:05Z</time>
      </trkpt>
      <trkpt lat="45.91818" lon="3.63759">
        <ele>707.37270666667</ele>
        <time>2017-04-10T12:21:09Z</time>
      </trkpt>
      <trkpt lat="45.91807" lon="3.63765">
        <ele>705.67228666667</ele>
        <time>2017-04-10T12:21:13Z</time>
      </trkpt>
      <trkpt lat="45.91782" lon="3.63779">
        <ele>704.77128666667</ele>
        <time>2017-04-10T12:21:18Z</time>
      </trkpt>
      <trkpt lat="45.91756" lon="3.63807">
        <ele>701.97024666667</ele>
        <time>2017-04-10T12:21:23Z</time>
      </trkpt>
      <trkpt lat="45.91736" lon="3.63833">
        <ele>699.46942666667</ele>
        <time>2017-04-10T12:21:25Z</time>
      </trkpt>
      <trkpt lat="45.91717" lon="3.63857">
        <ele>696.16869333333</ele>
        <time>2017-04-10T12:21:29Z</time>
      </trkpt>
      <trkpt lat="45.91697" lon="3.63895">
        <ele>690.36787333333</ele>
        <time>2017-04-10T12:21:34Z</time>
      </trkpt>
      <trkpt lat="45.91678" lon="3.63894">
        <ele>688.46711333333</ele>
        <time>2017-04-10T12:21:37Z</time>
      </trkpt>
      <trkpt lat="45.91663" lon="3.63901">
        <ele>689.36651333333</ele>
        <time>2017-04-10T12:21:42Z</time>
      </trkpt>
      <trkpt lat="45.91651" lon="3.63912">
        <ele>690.16605333333</ele>
        <time>2017-04-10T12:21:46Z</time>
      </trkpt>
      <trkpt lat="45.91641" lon="3.63925">
        <ele>690.76562</ele>
        <time>2017-04-10T12:21:50Z</time>
      </trkpt>
      <trkpt lat="45.91633" lon="3.6394">
        <ele>689.96532</ele>
        <time>2017-04-10T12:21:55Z</time>
      </trkpt>
      <trkpt lat="45.91624" lon="3.63953">
        <ele>689.76494666667</ele>
        <time>2017-04-10T12:21:59Z</time>
      </trkpt>
      <trkpt lat="45.91606" lon="3.63972">
        <ele>690.06424666667</ele>
        <time>2017-04-10T12:22:03Z</time>
      </trkpt>
      <trkpt lat="45.91593" lon="3.63975">
        <ele>689.16371333333</ele>
        <time>2017-04-10T12:22:06Z</time>
      </trkpt>
      <trkpt lat="45.91579" lon="3.63965">
        <ele>688.36314666667</ele>
        <time>2017-04-10T12:22:10Z</time>
      </trkpt>
      <trkpt lat="45.91567" lon="3.63949">
        <ele>687.56268666667</ele>
        <time>2017-04-10T12:22:15Z</time>
      </trkpt>
      <trkpt lat="45.91571" lon="3.63933">
        <ele>686.66284</ele>
        <time>2017-04-10T12:22:20Z</time>
      </trkpt>
      <trkpt lat="45.91572" lon="3.63924">
        <ele>686.06288666667</ele>
        <time>2017-04-10T12:22:26Z</time>
      </trkpt>
      <trkpt lat="45.91567" lon="3.63904">
        <ele>687.16268666667</ele>
        <time>2017-04-10T12:22:29Z</time>
      </trkpt>
      <trkpt lat="45.9156" lon="3.63895">
        <ele>689.06241333333</ele>
        <time>2017-04-10T12:22:36Z</time>
      </trkpt>
      <trkpt lat="45.91546" lon="3.63869">
        <ele>694.86184666667</ele>
        <time>2017-04-10T12:22:41Z</time>
      </trkpt>
      <trkpt lat="45.91541" lon="3.63856">
        <ele>697.16165333333</ele>
        <time>2017-04-10T12:22:45Z</time>
      </trkpt>
      <trkpt lat="45.91535" lon="3.63842">
        <ele>699.86139333333</ele>
        <time>2017-04-10T12:22:49Z</time>
      </trkpt>
      <trkpt lat="45.91532" lon="3.63831">
        <ele>701.56126666667</ele>
        <time>2017-04-10T12:22:54Z</time>
      </trkpt>
      <trkpt lat="45.91534" lon="3.63824">
        <ele>703.16134666667</ele>
        <time>2017-04-10T12:23:00Z</time>
      </trkpt>
      <trkpt lat="45.91539" lon="3.63812">
        <ele>705.76154</ele>
        <time>2017-04-10T12:23:04Z</time>
      </trkpt>
      <trkpt lat="45.91538" lon="3.63792">
        <ele>708.96151333333</ele>
        <time>2017-04-10T12:23:08Z</time>
      </trkpt>
      <trkpt lat="45.91538" lon="3.63781">
        <ele>710.26152</ele>
        <time>2017-04-10T12:23:12Z</time>
      </trkpt>
      <trkpt lat="45.91534" lon="3.63766">
        <ele>711.16135333333</ele>
        <time>2017-04-10T12:23:17Z</time>
      </trkpt>
      <trkpt lat="45.91532" lon="3.6376">
        <ele>711.66128</ele>
        <time>2017-04-10T12:23:22Z</time>
      </trkpt>
      <trkpt lat="45.91529" lon="3.6374">
        <ele>715.26116</ele>
        <time>2017-04-10T12:23:25Z</time>
      </trkpt>
      <trkpt lat="45.91531" lon="3.63724">
        <ele>716.36122666667</ele>
        <time>2017-04-10T12:23:29Z</time>
      </trkpt>
      <trkpt lat="45.91524" lon="3.63717">
        <ele>714.26095333333</ele>
        <time>2017-04-10T12:23:34Z</time>
      </trkpt>
      <trkpt lat="45.91515" lon="3.63709">
        <ele>714.36060666667</ele>
        <time>2017-04-10T12:23:39Z</time>
      </trkpt>
      <trkpt lat="45.91512" lon="3.63706">
        <ele>714.76049333333</ele>
        <time>2017-04-10T12:23:40Z</time>
      </trkpt>
      <trkpt lat="45.91504" lon="3.63701">
        <ele>714.86016666667</ele>
        <time>2017-04-10T12:23:49Z</time>
      </trkpt>
      <trkpt lat="45.91483" lon="3.63705">
        <ele>711.95932</ele>
        <time>2017-04-10T12:23:52Z</time>
      </trkpt>
      <trkpt lat="45.91472" lon="3.63702">
        <ele>710.35888</ele>
        <time>2017-04-10T12:23:56Z</time>
      </trkpt>
      <trkpt lat="45.91446" lon="3.63695">
        <ele>707.05784666667</ele>
        <time>2017-04-10T12:24:00Z</time>
      </trkpt>
      <trkpt lat="45.91424" lon="3.63687">
        <ele>704.85694</ele>
        <time>2017-04-10T12:24:04Z</time>
      </trkpt>
      <trkpt lat="45.91402" lon="3.63681">
        <ele>700.05606666667</ele>
        <time>2017-04-10T12:24:07Z</time>
      </trkpt>
      <trkpt lat="45.91377" lon="3.63675">
        <ele>695.65509333333</ele>
        <time>2017-04-10T12:24:11Z</time>
      </trkpt>
      <trkpt lat="45.91353" lon="3.6367">
        <ele>691.85413333333</ele>
        <time>2017-04-10T12:24:16Z</time>
      </trkpt>
      <trkpt lat="45.91311" lon="3.63648">
        <ele>686.45244</ele>
        <time>2017-04-10T12:24:20Z</time>
      </trkpt>
      <trkpt lat="45.91287" lon="3.63596">
        <ele>681.55147333333</ele>
        <time>2017-04-10T12:24:25Z</time>
      </trkpt>
      <trkpt lat="45.91282" lon="3.63574">
        <ele>680.05128</ele>
        <time>2017-04-10T12:24:35Z</time>
      </trkpt>
      <trkpt lat="45.9124" lon="3.63491">
        <ele>675.4496</ele>
        <time>2017-04-10T12:24:40Z</time>
      </trkpt>
      <trkpt lat="45.91229" lon="3.63485">
        <ele>676.34915333333</ele>
        <time>2017-04-10T12:24:43Z</time>
      </trkpt>
      <trkpt lat="45.91202" lon="3.63472">
        <ele>676.94809333333</ele>
        <time>2017-04-10T12:24:46Z</time>
      </trkpt>
      <trkpt lat="45.91169" lon="3.63458">
        <ele>677.34676666667</ele>
        <time>2017-04-10T12:24:51Z</time>
      </trkpt>
      <trkpt lat="45.91139" lon="3.63467">
        <ele>677.84555333333</ele>
        <time>2017-04-10T12:24:54Z</time>
      </trkpt>
      <trkpt lat="45.91115" lon="3.63488">
        <ele>677.2446</ele>
        <time>2017-04-10T12:24:58Z</time>
      </trkpt>
      <trkpt lat="45.91093" lon="3.63509">
        <ele>676.84371333333</ele>
        <time>2017-04-10T12:25:03Z</time>
      </trkpt>
      <trkpt lat="45.91069" lon="3.63527">
        <ele>677.14274666667</ele>
        <time>2017-04-10T12:25:08Z</time>
      </trkpt>
      <trkpt lat="45.91052" lon="3.63534">
        <ele>678.54209333333</ele>
        <time>2017-04-10T12:25:12Z</time>
      </trkpt>
      <trkpt lat="45.91041" lon="3.63532">
        <ele>678.84164666667</ele>
        <time>2017-04-10T12:25:16Z</time>
      </trkpt>
      <trkpt lat="45.91014" lon="3.63505">
        <ele>677.64057333333</ele>
        <time>2017-04-10T12:25:21Z</time>
      </trkpt>
      <trkpt lat="45.91006" lon="3.63485">
        <ele>676.74024</ele>
        <time>2017-04-10T12:25:25Z</time>
      </trkpt>
      <trkpt lat="45.91005" lon="3.6348">
        <ele>676.64018</ele>
        <time>2017-04-10T12:25:31Z</time>
      </trkpt>
      <trkpt lat="45.90998" lon="3.63441">
        <ele>678.53992</ele>
        <time>2017-04-10T12:25:35Z</time>
      </trkpt>
      <trkpt lat="45.90997" lon="3.63434">
        <ele>679.63986666667</ele>
        <time>2017-04-10T12:25:36Z</time>
      </trkpt>
      <trkpt lat="45.90994" lon="3.63425">
        <ele>680.33977333333</ele>
        <time>2017-04-10T12:25:41Z</time>
      </trkpt>
      <trkpt lat="45.90989" lon="3.63417">
        <ele>681.13957333333</ele>
        <time>2017-04-10T12:25:46Z</time>
      </trkpt>
      <trkpt lat="45.90976" lon="3.63408">
        <ele>682.33904666667</ele>
        <time>2017-04-10T12:25:50Z</time>
      </trkpt>
      <trkpt lat="45.9097" lon="3.63415">
        <ele>684.83879333333</ele>
        <time>2017-04-10T12:25:57Z</time>
      </trkpt>
      <trkpt lat="45.90963" lon="3.63418">
        <ele>685.8385</ele>
        <time>2017-04-10T12:26:01Z</time>
      </trkpt>
      <trkpt lat="45.90956" lon="3.63422">
        <ele>686.63823333333</ele>
        <time>2017-04-10T12:26:05Z</time>
      </trkpt>
      <trkpt lat="45.90949" lon="3.63428">
        <ele>687.33796</ele>
        <time>2017-04-10T12:26:10Z</time>
      </trkpt>
      <trkpt lat="45.90942" lon="3.63434">
        <ele>688.63769333333</ele>
        <time>2017-04-10T12:26:13Z</time>
      </trkpt>
      <trkpt lat="45.90935" lon="3.63439">
        <ele>690.13738</ele>
        <time>2017-04-10T12:26:20Z</time>
      </trkpt>
      <trkpt lat="45.90924" lon="3.63445">
        <ele>691.83694</ele>
        <time>2017-04-10T12:26:23Z</time>
      </trkpt>
      <trkpt lat="45.90922" lon="3.63445">
        <ele>692.13687333333</ele>
        <time>2017-04-10T12:26:30Z</time>
      </trkpt>
      <trkpt lat="45.90898" lon="3.6345">
        <ele>693.23591333333</ele>
        <time>2017-04-10T12:26:34Z</time>
      </trkpt>
      <trkpt lat="45.90889" lon="3.63451">
        <ele>693.03556666667</ele>
        <time>2017-04-10T12:26:36Z</time>
      </trkpt>
      <trkpt lat="45.90874" lon="3.63451">
        <ele>694.83495333333</ele>
        <time>2017-04-10T12:26:45Z</time>
      </trkpt>
      <trkpt lat="45.90867" lon="3.63449">
        <ele>696.63467333333</ele>
        <time>2017-04-10T12:26:49Z</time>
      </trkpt>
      <trkpt lat="45.90855" lon="3.6344">
        <ele>698.03419333333</ele>
        <time>2017-04-10T12:26:53Z</time>
      </trkpt>
      <trkpt lat="45.90847" lon="3.63436">
        <ele>699.03386</ele>
        <time>2017-04-10T12:26:57Z</time>
      </trkpt>
      <trkpt lat="45.90839" lon="3.63431">
        <ele>700.73355333333</ele>
        <time>2017-04-10T12:27:01Z</time>
      </trkpt>
      <trkpt lat="45.90833" lon="3.63425">
        <ele>701.93332</ele>
        <time>2017-04-10T12:27:04Z</time>
      </trkpt>
      <trkpt lat="45.90824" lon="3.63415">
        <ele>702.53294</ele>
        <time>2017-04-10T12:27:08Z</time>
      </trkpt>
      <trkpt lat="45.90811" lon="3.63409">
        <ele>700.63242</ele>
        <time>2017-04-10T12:27:12Z</time>
      </trkpt>
      <trkpt lat="45.90796" lon="3.63405">
        <ele>699.43184</ele>
        <time>2017-04-10T12:27:17Z</time>
      </trkpt>
      <trkpt lat="45.9078" lon="3.634">
        <ele>700.13118</ele>
        <time>2017-04-10T12:27:21Z</time>
      </trkpt>
      <trkpt lat="45.90761" lon="3.63391">
        <ele>698.83042666667</ele>
        <time>2017-04-10T12:27:25Z</time>
      </trkpt>
      <trkpt lat="45.90746" lon="3.63384">
        <ele>697.82982666667</ele>
        <time>2017-04-10T12:27:29Z</time>
      </trkpt>
      <trkpt lat="45.90738" lon="3.63382">
        <ele>697.52951333333</ele>
        <time>2017-04-10T12:27:31Z</time>
      </trkpt>
      <trkpt lat="45.90726" lon="3.63377">
        <ele>696.92905333333</ele>
        <time>2017-04-10T12:27:36Z</time>
      </trkpt>
      <trkpt lat="45.90699" lon="3.63367">
        <ele>696.32795333333</ele>
        <time>2017-04-10T12:27:40Z</time>
      </trkpt>
      <trkpt lat="45.90682" lon="3.63362">
        <ele>695.92726</ele>
        <time>2017-04-10T12:27:45Z</time>
      </trkpt>
      <trkpt lat="45.90659" lon="3.63356">
        <ele>695.32636666667</ele>
        <time>2017-04-10T12:27:50Z</time>
      </trkpt>
      <trkpt lat="45.90646" lon="3.63356">
        <ele>695.02582666667</ele>
        <time>2017-04-10T12:27:52Z</time>
      </trkpt>
      <trkpt lat="45.90614" lon="3.63351">
        <ele>694.02454666667</ele>
        <time>2017-04-10T12:28:00Z</time>
      </trkpt>
      <trkpt lat="45.90594" lon="3.63334">
        <ele>693.92374666667</ele>
        <time>2017-04-10T12:28:05Z</time>
      </trkpt>
      <trkpt lat="45.90587" lon="3.63314">
        <ele>694.12346</ele>
        <time>2017-04-10T12:28:09Z</time>
      </trkpt>
      <trkpt lat="45.90597" lon="3.63287">
        <ele>694.12387333333</ele>
        <time>2017-04-10T12:28:14Z</time>
      </trkpt>
      <trkpt lat="45.90605" lon="3.63263">
        <ele>694.7242</ele>
        <time>2017-04-10T12:28:18Z</time>
      </trkpt>
      <trkpt lat="45.90606" lon="3.63257">
        <ele>694.92425333333</ele>
        <time>2017-04-10T12:28:19Z</time>
      </trkpt>
      <trkpt lat="45.90608" lon="3.63212">
        <ele>695.92431333333</ele>
        <time>2017-04-10T12:28:27Z</time>
      </trkpt>
      <trkpt lat="45.90605" lon="3.63173">
        <ele>696.22418666667</ele>
        <time>2017-04-10T12:28:32Z</time>
      </trkpt>
      <trkpt lat="45.90595" lon="3.63142">
        <ele>696.02379333333</ele>
        <time>2017-04-10T12:28:36Z</time>
      </trkpt>
      <trkpt lat="45.90582" lon="3.63121">
        <ele>696.52326666667</ele>
        <time>2017-04-10T12:28:41Z</time>
      </trkpt>
      <trkpt lat="45.90567" lon="3.63098">
        <ele>696.22268666667</ele>
        <time>2017-04-10T12:28:44Z</time>
      </trkpt>
      <trkpt lat="45.90555" lon="3.63071">
        <ele>696.0222</ele>
        <time>2017-04-10T12:28:48Z</time>
      </trkpt>
      <trkpt lat="45.90546" lon="3.63042">
        <ele>695.62185333333</ele>
        <time>2017-04-10T12:28:52Z</time>
      </trkpt>
      <trkpt lat="45.90544" lon="3.63026">
        <ele>695.62174666667</ele>
        <time>2017-04-10T12:28:54Z</time>
      </trkpt>
      <trkpt lat="45.90541" lon="3.62996">
        <ele>696.52165333333</ele>
        <time>2017-04-10T12:29:00Z</time>
      </trkpt>
      <trkpt lat="45.90551" lon="3.62964">
        <ele>698.62204</ele>
        <time>2017-04-10T12:29:04Z</time>
      </trkpt>
      <trkpt lat="45.90564" lon="3.62952">
        <ele>699.62255333333</ele>
        <time>2017-04-10T12:29:07Z</time>
      </trkpt>
      <trkpt lat="45.90572" lon="3.62945">
        <ele>700.62288</ele>
        <time>2017-04-10T12:29:15Z</time>
      </trkpt>
      <trkpt lat="45.90592" lon="3.62916">
        <ele>703.42369333333</ele>
        <time>2017-04-10T12:29:16Z</time>
      </trkpt>
      <trkpt lat="45.90599" lon="3.62908">
        <ele>704.92394666667</ele>
        <time>2017-04-10T12:29:21Z</time>
      </trkpt>
      <trkpt lat="45.90625" lon="3.62904">
        <ele>705.325</ele>
        <time>2017-04-10T12:29:25Z</time>
      </trkpt>
      <trkpt lat="45.90638" lon="3.62905">
        <ele>706.12552666667</ele>
        <time>2017-04-10T12:29:29Z</time>
      </trkpt>
      <trkpt lat="45.9065" lon="3.62903">
        <ele>706.52600666667</ele>
        <time>2017-04-10T12:29:33Z</time>
      </trkpt>
      <trkpt lat="45.90673" lon="3.62892">
        <ele>706.72690666667</ele>
        <time>2017-04-10T12:29:38Z</time>
      </trkpt>
      <trkpt lat="45.9068" lon="3.62887">
        <ele>706.52718666667</ele>
        <time>2017-04-10T12:29:48Z</time>
      </trkpt>
      <trkpt lat="45.90702" lon="3.62873">
        <ele>707.32806</ele>
        <time>2017-04-10T12:29:52Z</time>
      </trkpt>
      <trkpt lat="45.90712" lon="3.62868">
        <ele>708.02849333333</ele>
        <time>2017-04-10T12:29:55Z</time>
      </trkpt>
      <trkpt lat="45.90725" lon="3.62858">
        <ele>708.729</ele>
        <time>2017-04-10T12:29:59Z</time>
      </trkpt>
      <trkpt lat="45.90735" lon="3.62849">
        <ele>709.82938666667</ele>
        <time>2017-04-10T12:30:02Z</time>
      </trkpt>
      <trkpt lat="45.90746" lon="3.62842">
        <ele>711.22984666667</ele>
        <time>2017-04-10T12:30:06Z</time>
      </trkpt>
      <trkpt lat="45.90762" lon="3.6283">
        <ele>711.63046666667</ele>
        <time>2017-04-10T12:30:11Z</time>
      </trkpt>
      <trkpt lat="45.90771" lon="3.62823">
        <ele>711.63082666667</ele>
        <time>2017-04-10T12:30:14Z</time>
      </trkpt>
      <trkpt lat="45.90781" lon="3.62812">
        <ele>712.63123333333</ele>
        <time>2017-04-10T12:30:18Z</time>
      </trkpt>
      <trkpt lat="45.90786" lon="3.62807">
        <ele>712.53142</ele>
        <time>2017-04-10T12:30:26Z</time>
      </trkpt>
      <trkpt lat="45.90816" lon="3.6277">
        <ele>714.33262</ele>
        <time>2017-04-10T12:30:31Z</time>
      </trkpt>
      <trkpt lat="45.90828" lon="3.62757">
        <ele>715.83312666667</ele>
        <time>2017-04-10T12:30:35Z</time>
      </trkpt>
      <trkpt lat="45.90841" lon="3.62745">
        <ele>716.93365333333</ele>
        <time>2017-04-10T12:30:39Z</time>
      </trkpt>
      <trkpt lat="45.90855" lon="3.6273">
        <ele>717.73419333333</ele>
        <time>2017-04-10T12:30:42Z</time>
      </trkpt>
      <trkpt lat="45.9088" lon="3.62705">
        <ele>719.03521333333</ele>
        <time>2017-04-10T12:30:49Z</time>
      </trkpt>
      <trkpt lat="45.90906" lon="3.62684">
        <ele>720.13625333333</ele>
        <time>2017-04-10T12:30:54Z</time>
      </trkpt>
      <trkpt lat="45.90928" lon="3.62668">
        <ele>721.03711333333</ele>
        <time>2017-04-10T12:30:57Z</time>
      </trkpt>
      <trkpt lat="45.90957" lon="3.62648">
        <ele>721.43826</ele>
        <time>2017-04-10T12:31:01Z</time>
      </trkpt>
      <trkpt lat="45.90975" lon="3.62627">
        <ele>721.03898666667</ele>
        <time>2017-04-10T12:31:06Z</time>
      </trkpt>
      <trkpt lat="45.90988" lon="3.62611">
        <ele>720.9395</ele>
        <time>2017-04-10T12:31:09Z</time>
      </trkpt>
      <trkpt lat="45.91008" lon="3.62579">
        <ele>718.7403</ele>
        <time>2017-04-10T12:31:14Z</time>
      </trkpt>
      <trkpt lat="45.91019" lon="3.62551">
        <ele>716.84076666667</ele>
        <time>2017-04-10T12:31:17Z</time>
      </trkpt>
      <trkpt lat="45.91037" lon="3.62521">
        <ele>714.54148666667</ele>
        <time>2017-04-10T12:31:21Z</time>
      </trkpt>
      <trkpt lat="45.91053" lon="3.62497">
        <ele>713.34213333333</ele>
        <time>2017-04-10T12:31:25Z</time>
      </trkpt>
      <trkpt lat="45.91069" lon="3.62472">
        <ele>712.54277333333</ele>
        <time>2017-04-10T12:31:30Z</time>
      </trkpt>
      <trkpt lat="45.91081" lon="3.6245">
        <ele>712.14324</ele>
        <time>2017-04-10T12:31:35Z</time>
      </trkpt>
      <trkpt lat="45.91095" lon="3.62427">
        <ele>711.44380666667</ele>
        <time>2017-04-10T12:31:39Z</time>
      </trkpt>
      <trkpt lat="45.91098" lon="3.62421">
        <ele>711.24393333333</ele>
        <time>2017-04-10T12:31:41Z</time>
      </trkpt>
      <trkpt lat="45.91112" lon="3.62382">
        <ele>710.24449333333</ele>
        <time>2017-04-10T12:31:47Z</time>
      </trkpt>
      <trkpt lat="45.91118" lon="3.62338">
        <ele>709.14473333333</ele>
        <time>2017-04-10T12:31:52Z</time>
      </trkpt>
      <trkpt lat="45.91118" lon="3.62317">
        <ele>708.84472666667</ele>
        <time>2017-04-10T12:31:56Z</time>
      </trkpt>
      <trkpt lat="45.91119" lon="3.62299">
        <ele>709.64477333333</ele>
        <time>2017-04-10T12:32:01Z</time>
      </trkpt>
      <trkpt lat="45.91129" lon="3.62274">
        <ele>708.54516666667</ele>
        <time>2017-04-10T12:32:05Z</time>
      </trkpt>
      <trkpt lat="45.91149" lon="3.62249">
        <ele>706.14594</ele>
        <time>2017-04-10T12:32:09Z</time>
      </trkpt>
      <trkpt lat="45.91158" lon="3.62241">
        <ele>705.14630666667</ele>
        <time>2017-04-10T12:32:10Z</time>
      </trkpt>
      <trkpt lat="45.91204" lon="3.62181">
        <ele>698.54815333333</ele>
        <time>2017-04-10T12:32:22Z</time>
      </trkpt>
      <trkpt lat="45.91234" lon="3.62149">
        <ele>694.94934666667</ele>
        <time>2017-04-10T12:32:27Z</time>
      </trkpt>
      <trkpt lat="45.91242" lon="3.62152">
        <ele>693.94968666667</ele>
        <time>2017-04-10T12:32:29Z</time>
      </trkpt>
      <trkpt lat="45.91254" lon="3.62161">
        <ele>690.85014666667</ele>
        <time>2017-04-10T12:32:35Z</time>
      </trkpt>
      <trkpt lat="45.91268" lon="3.6217">
        <ele>688.65071333333</ele>
        <time>2017-04-10T12:32:40Z</time>
      </trkpt>
      <trkpt lat="45.91279" lon="3.6217">
        <ele>687.65116666667</ele>
        <time>2017-04-10T12:32:44Z</time>
      </trkpt>
      <trkpt lat="45.91289" lon="3.62164">
        <ele>686.45157333333</ele>
        <time>2017-04-10T12:32:48Z</time>
      </trkpt>
      <trkpt lat="45.91298" lon="3.62157">
        <ele>685.65190666667</ele>
        <time>2017-04-10T12:32:53Z</time>
      </trkpt>
      <trkpt lat="45.9131" lon="3.62145">
        <ele>684.85238</ele>
        <time>2017-04-10T12:32:59Z</time>
      </trkpt>
      <trkpt lat="45.91321" lon="3.62139">
        <ele>683.85282666667</ele>
        <time>2017-04-10T12:33:04Z</time>
      </trkpt>
      <trkpt lat="45.91326" lon="3.62131">
        <ele>683.15304666667</ele>
        <time>2017-04-10T12:33:07Z</time>
      </trkpt>
      <trkpt lat="45.91335" lon="3.62117">
        <ele>682.65339333333</ele>
        <time>2017-04-10T12:33:11Z</time>
      </trkpt>
      <trkpt lat="45.91338" lon="3.62113">
        <ele>682.75352666667</ele>
        <time>2017-04-10T12:33:13Z</time>
      </trkpt>
      <trkpt lat="45.91344" lon="3.62104">
        <ele>683.45374666667</ele>
        <time>2017-04-10T12:33:19Z</time>
      </trkpt>
      <trkpt lat="45.91361" lon="3.62084">
        <ele>686.15442666667</ele>
        <time>2017-04-10T12:33:24Z</time>
      </trkpt>
      <trkpt lat="45.9137" lon="3.62074">
        <ele>686.45480666667</ele>
        <time>2017-04-10T12:33:28Z</time>
      </trkpt>
      <trkpt lat="45.91391" lon="3.62061">
        <ele>686.25562</ele>
        <time>2017-04-10T12:33:33Z</time>
      </trkpt>
      <trkpt lat="45.91405" lon="3.6205">
        <ele>688.65618666667</ele>
        <time>2017-04-10T12:33:37Z</time>
      </trkpt>
      <trkpt lat="45.91428" lon="3.62021">
        <ele>697.45711333333</ele>
        <time>2017-04-10T12:33:46Z</time>
      </trkpt>
      <trkpt lat="45.91441" lon="3.61999">
        <ele>700.85763333333</ele>
        <time>2017-04-10T12:33:51Z</time>
      </trkpt>
      <trkpt lat="45.91447" lon="3.61987">
        <ele>703.05787333333</ele>
        <time>2017-04-10T12:33:54Z</time>
      </trkpt>
      <trkpt lat="45.91454" lon="3.61971">
        <ele>706.65814666667</ele>
        <time>2017-04-10T12:33:59Z</time>
      </trkpt>
      <trkpt lat="45.91457" lon="3.61964">
        <ele>708.15828</ele>
        <time>2017-04-10T12:34:02Z</time>
      </trkpt>
      <trkpt lat="45.91466" lon="3.61935">
        <ele>712.45862</ele>
        <time>2017-04-10T12:34:07Z</time>
      </trkpt>
      <trkpt lat="45.91471" lon="3.61898">
        <ele>713.75882</ele>
        <time>2017-04-10T12:34:12Z</time>
      </trkpt>
      <trkpt lat="45.91474" lon="3.6189">
        <ele>714.05897333333</ele>
        <time>2017-04-10T12:34:13Z</time>
      </trkpt>
      <trkpt lat="45.9151" lon="3.61847">
        <ele>715.16040666667</ele>
        <time>2017-04-10T12:34:19Z</time>
      </trkpt>
      <trkpt lat="45.91518" lon="3.61811">
        <ele>715.16073333333</ele>
        <time>2017-04-10T12:34:24Z</time>
      </trkpt>
      <trkpt lat="45.91514" lon="3.61792">
        <ele>715.06054</ele>
        <time>2017-04-10T12:34:27Z</time>
      </trkpt>
      <trkpt lat="45.91507" lon="3.61777">
        <ele>714.56029333333</ele>
        <time>2017-04-10T12:34:29Z</time>
      </trkpt>
      <trkpt lat="45.91504" lon="3.61769">
        <ele>713.86016666667</ele>
        <time>2017-04-10T12:34:34Z</time>
      </trkpt>
      <trkpt lat="45.91517" lon="3.61715">
        <ele>715.06069333333</ele>
        <time>2017-04-10T12:34:36Z</time>
      </trkpt>
      <trkpt lat="45.91534" lon="3.61725">
        <ele>715.96135333333</ele>
        <time>2017-04-10T12:34:44Z</time>
      </trkpt>
      <trkpt lat="45.91543" lon="3.61729">
        <ele>718.16171333333</ele>
        <time>2017-04-10T12:34:48Z</time>
      </trkpt>
      <trkpt lat="45.91558" lon="3.61732">
        <ele>720.16230666667</ele>
        <time>2017-04-10T12:34:53Z</time>
      </trkpt>
      <trkpt lat="45.91565" lon="3.61738">
        <ele>721.36261333333</ele>
        <time>2017-04-10T12:34:58Z</time>
      </trkpt>
      <trkpt lat="45.91583" lon="3.61747">
        <ele>721.46333333333</ele>
        <time>2017-04-10T12:35:03Z</time>
      </trkpt>
      <trkpt lat="45.91597" lon="3.61754">
        <ele>722.56388666667</ele>
        <time>2017-04-10T12:35:07Z</time>
      </trkpt>
      <trkpt lat="45.91609" lon="3.6176">
        <ele>723.76437333333</ele>
        <time>2017-04-10T12:35:11Z</time>
      </trkpt>
      <trkpt lat="45.91615" lon="3.61768">
        <ele>724.26458</ele>
        <time>2017-04-10T12:35:14Z</time>
      </trkpt>
      <trkpt lat="45.91621" lon="3.61783">
        <ele>726.76482</ele>
        <time>2017-04-10T12:35:19Z</time>
      </trkpt>
      <trkpt lat="45.91627" lon="3.618">
        <ele>727.96509333333</ele>
        <time>2017-04-10T12:35:23Z</time>
      </trkpt>
      <trkpt lat="45.91638" lon="3.61839">
        <ele>728.56552</ele>
        <time>2017-04-10T12:35:28Z</time>
      </trkpt>
      <trkpt lat="45.91653" lon="3.61862">
        <ele>728.36611333333</ele>
        <time>2017-04-10T12:35:33Z</time>
      </trkpt>
      <trkpt lat="45.91683" lon="3.61888">
        <ele>728.6673</ele>
        <time>2017-04-10T12:35:37Z</time>
      </trkpt>
      <trkpt lat="45.91698" lon="3.61912">
        <ele>729.16790666667</ele>
        <time>2017-04-10T12:35:41Z</time>
      </trkpt>
      <trkpt lat="45.91713" lon="3.61955">
        <ele>728.66853333333</ele>
        <time>2017-04-10T12:35:45Z</time>
      </trkpt>
      <trkpt lat="45.9172" lon="3.61976">
        <ele>727.3688</ele>
        <time>2017-04-10T12:35:50Z</time>
      </trkpt>
      <trkpt lat="45.91728" lon="3.6198">
        <ele>727.16910666667</ele>
        <time>2017-04-10T12:35:54Z</time>
      </trkpt>
      <trkpt lat="45.91739" lon="3.61984">
        <ele>726.26954</ele>
        <time>2017-04-10T12:35:59Z</time>
      </trkpt>
      <trkpt lat="45.91746" lon="3.61987">
        <ele>724.16985333333</ele>
        <time>2017-04-10T12:36:05Z</time>
      </trkpt>
      <trkpt lat="45.91755" lon="3.61988">
        <ele>721.27019333333</ele>
        <time>2017-04-10T12:36:08Z</time>
      </trkpt>
      <trkpt lat="45.91762" lon="3.61992">
        <ele>720.07047333333</ele>
        <time>2017-04-10T12:36:12Z</time>
      </trkpt>
      <trkpt lat="45.9178" lon="3.62001">
        <ele>719.97118666667</ele>
        <time>2017-04-10T12:36:17Z</time>
      </trkpt>
      <trkpt lat="45.91786" lon="3.62005">
        <ele>719.77145333333</ele>
        <time>2017-04-10T12:36:19Z</time>
      </trkpt>
      <trkpt lat="45.91791" lon="3.62005">
        <ele>719.67164</ele>
        <time>2017-04-10T12:36:24Z</time>
      </trkpt>
      <trkpt lat="45.91802" lon="3.62001">
        <ele>721.07207333333</ele>
        <time>2017-04-10T12:36:27Z</time>
      </trkpt>
      <trkpt lat="45.9181" lon="3.62">
        <ele>720.07239333333</ele>
        <time>2017-04-10T12:36:32Z</time>
      </trkpt>
      <trkpt lat="45.91819" lon="3.61992">
        <ele>718.07275333333</ele>
        <time>2017-04-10T12:36:36Z</time>
      </trkpt>
      <trkpt lat="45.91824" lon="3.61988">
        <ele>716.57296666667</ele>
        <time>2017-04-10T12:36:44Z</time>
      </trkpt>
      <trkpt lat="45.91837" lon="3.61979">
        <ele>715.37349333333</ele>
        <time>2017-04-10T12:36:47Z</time>
      </trkpt>
      <trkpt lat="45.91846" lon="3.61965">
        <ele>712.67384</ele>
        <time>2017-04-10T12:36:57Z</time>
      </trkpt>
      <trkpt lat="45.91849" lon="3.6196">
        <ele>712.47396666667</ele>
        <time>2017-04-10T12:37:00Z</time>
      </trkpt>
      <trkpt lat="45.91854" lon="3.61953">
        <ele>712.17417333333</ele>
        <time>2017-04-10T12:37:04Z</time>
      </trkpt>
      <trkpt lat="45.9186" lon="3.61944">
        <ele>712.47438666667</ele>
        <time>2017-04-10T12:37:08Z</time>
      </trkpt>
      <trkpt lat="45.91865" lon="3.61933">
        <ele>713.2746</ele>
        <time>2017-04-10T12:37:15Z</time>
      </trkpt>
      <trkpt lat="45.91871" lon="3.61919">
        <ele>713.67484</ele>
        <time>2017-04-10T12:37:18Z</time>
      </trkpt>
      <trkpt lat="45.91873" lon="3.61917">
        <ele>713.9749</ele>
        <time>2017-04-10T12:37:24Z</time>
      </trkpt>
      <trkpt lat="45.91883" lon="3.61891">
        <ele>717.27532</ele>
        <time>2017-04-10T12:37:28Z</time>
      </trkpt>
      <trkpt lat="45.91889" lon="3.61874">
        <ele>719.97554666667</ele>
        <time>2017-04-10T12:37:33Z</time>
      </trkpt>
      <trkpt lat="45.9189" lon="3.61867">
        <ele>721.87558</ele>
        <time>2017-04-10T12:37:37Z</time>
      </trkpt>
      <trkpt lat="45.91895" lon="3.61848">
        <ele>724.9758</ele>
        <time>2017-04-10T12:37:41Z</time>
      </trkpt>
      <trkpt lat="45.919" lon="3.61829">
        <ele>727.77598666667</ele>
        <time>2017-04-10T12:37:45Z</time>
      </trkpt>
      <trkpt lat="45.91907" lon="3.61802">
        <ele>731.57626666667</ele>
        <time>2017-04-10T12:37:49Z</time>
      </trkpt>
      <trkpt lat="45.9191" lon="3.61786">
        <ele>733.5764</ele>
        <time>2017-04-10T12:37:53Z</time>
      </trkpt>
      <trkpt lat="45.91915" lon="3.61769">
        <ele>734.57660666667</ele>
        <time>2017-04-10T12:37:55Z</time>
      </trkpt>
      <trkpt lat="45.91926" lon="3.61736">
        <ele>737.57703333333</ele>
        <time>2017-04-10T12:38:00Z</time>
      </trkpt>
      <trkpt lat="45.91934" lon="3.61712">
        <ele>739.97737333333</ele>
        <time>2017-04-10T12:38:05Z</time>
      </trkpt>
      <trkpt lat="45.91943" lon="3.61695">
        <ele>740.97773333333</ele>
        <time>2017-04-10T12:38:08Z</time>
      </trkpt>
      <trkpt lat="45.91949" lon="3.61675">
        <ele>742.17795333333</ele>
        <time>2017-04-10T12:38:12Z</time>
      </trkpt>
      <trkpt lat="45.91959" lon="3.61655">
        <ele>742.57835333333</ele>
        <time>2017-04-10T12:38:16Z</time>
      </trkpt>
      <trkpt lat="45.91969" lon="3.61631">
        <ele>743.77874</ele>
        <time>2017-04-10T12:38:21Z</time>
      </trkpt>
      <trkpt lat="45.91976" lon="3.61612">
        <ele>744.17902666667</ele>
        <time>2017-04-10T12:38:24Z</time>
      </trkpt>
      <trkpt lat="45.91981" lon="3.616">
        <ele>744.97922666667</ele>
        <time>2017-04-10T12:38:27Z</time>
      </trkpt>
      <trkpt lat="45.91996" lon="3.61579">
        <ele>746.07982666667</ele>
        <time>2017-04-10T12:38:32Z</time>
      </trkpt>
      <trkpt lat="45.92008" lon="3.61571">
        <ele>747.08032666667</ele>
        <time>2017-04-10T12:38:34Z</time>
      </trkpt>
      <trkpt lat="45.92027" lon="3.6156">
        <ele>746.08107333333</ele>
        <time>2017-04-10T12:38:38Z</time>
      </trkpt>
      <trkpt lat="45.9204" lon="3.61536">
        <ele>744.68159333333</ele>
        <time>2017-04-10T12:38:43Z</time>
      </trkpt>
      <trkpt lat="45.92056" lon="3.61518">
        <ele>744.68224</ele>
        <time>2017-04-10T12:38:46Z</time>
      </trkpt>
      <trkpt lat="45.92072" lon="3.61506">
        <ele>743.38289333333</ele>
        <time>2017-04-10T12:38:50Z</time>
      </trkpt>
      <trkpt lat="45.92082" lon="3.61495">
        <ele>742.98326666667</ele>
        <time>2017-04-10T12:38:53Z</time>
      </trkpt>
      <trkpt lat="45.92098" lon="3.61475">
        <ele>741.28390666667</ele>
        <time>2017-04-10T12:38:56Z</time>
      </trkpt>
      <trkpt lat="45.92106" lon="3.61472">
        <ele>741.18422</ele>
        <time>2017-04-10T12:39:00Z</time>
      </trkpt>
      <trkpt lat="45.92115" lon="3.61468">
        <ele>740.98458666667</ele>
        <time>2017-04-10T12:39:04Z</time>
      </trkpt>
      <trkpt lat="45.92123" lon="3.61465">
        <ele>741.28492</ele>
        <time>2017-04-10T12:39:10Z</time>
      </trkpt>
      <trkpt lat="45.92131" lon="3.61468">
        <ele>740.28524666667</ele>
        <time>2017-04-10T12:39:16Z</time>
      </trkpt>
      <trkpt lat="45.92141" lon="3.61467">
        <ele>736.38563333333</ele>
        <time>2017-04-10T12:39:20Z</time>
      </trkpt>
      <trkpt lat="45.92158" lon="3.61473">
        <ele>732.68631333333</ele>
        <time>2017-04-10T12:39:25Z</time>
      </trkpt>
      <trkpt lat="45.92169" lon="3.61475">
        <ele>731.58676666667</ele>
        <time>2017-04-10T12:39:28Z</time>
      </trkpt>
      <trkpt lat="45.92177" lon="3.61475">
        <ele>730.88706</ele>
        <time>2017-04-10T12:39:32Z</time>
      </trkpt>
      <trkpt lat="45.92183" lon="3.61471">
        <ele>731.48733333333</ele>
        <time>2017-04-10T12:39:36Z</time>
      </trkpt>
      <trkpt lat="45.92189" lon="3.61468">
        <ele>731.78755333333</ele>
        <time>2017-04-10T12:39:40Z</time>
      </trkpt>
      <trkpt lat="45.92195" lon="3.61468">
        <ele>731.78778666667</ele>
        <time>2017-04-10T12:39:43Z</time>
      </trkpt>
      <trkpt lat="45.92203" lon="3.61466">
        <ele>730.58812666667</ele>
        <time>2017-04-10T12:39:49Z</time>
      </trkpt>
      <trkpt lat="45.92214" lon="3.61462">
        <ele>729.98854666667</ele>
        <time>2017-04-10T12:39:53Z</time>
      </trkpt>
      <trkpt lat="45.9222" lon="3.61458">
        <ele>729.6888</ele>
        <time>2017-04-10T12:39:56Z</time>
      </trkpt>
      <trkpt lat="45.92228" lon="3.61455">
        <ele>728.98912</ele>
        <time>2017-04-10T12:40:05Z</time>
      </trkpt>
      <trkpt lat="45.92236" lon="3.61449">
        <ele>729.38943333333</ele>
        <time>2017-04-10T12:40:12Z</time>
      </trkpt>
      <trkpt lat="45.92243" lon="3.61443">
        <ele>728.58970666667</ele>
        <time>2017-04-10T12:40:16Z</time>
      </trkpt>
      <trkpt lat="45.92246" lon="3.61436">
        <ele>728.58984</ele>
        <time>2017-04-10T12:40:22Z</time>
      </trkpt>
      <trkpt lat="45.9226" lon="3.61428">
        <ele>728.5904</ele>
        <time>2017-04-10T12:40:27Z</time>
      </trkpt>
      <trkpt lat="45.92265" lon="3.61421">
        <ele>728.69058666667</ele>
        <time>2017-04-10T12:40:31Z</time>
      </trkpt>
      <trkpt lat="45.92268" lon="3.61413">
        <ele>728.99070666667</ele>
        <time>2017-04-10T12:40:34Z</time>
      </trkpt>
      <trkpt lat="45.92274" lon="3.61401">
        <ele>729.69094666667</ele>
        <time>2017-04-10T12:40:38Z</time>
      </trkpt>
      <trkpt lat="45.9228" lon="3.6139">
        <ele>730.99118666667</ele>
        <time>2017-04-10T12:40:42Z</time>
      </trkpt>
      <trkpt lat="45.92288" lon="3.61374">
        <ele>732.39152666667</ele>
        <time>2017-04-10T12:40:47Z</time>
      </trkpt>
      <trkpt lat="45.92295" lon="3.61361">
        <ele>734.29178</ele>
        <time>2017-04-10T12:40:51Z</time>
      </trkpt>
      <trkpt lat="45.92302" lon="3.61347">
        <ele>735.69208666667</ele>
        <time>2017-04-10T12:40:54Z</time>
      </trkpt>
      <trkpt lat="45.92309" lon="3.61336">
        <ele>737.89234</ele>
        <time>2017-04-10T12:40:58Z</time>
      </trkpt>
      <trkpt lat="45.92317" lon="3.6132">
        <ele>740.39268</ele>
        <time>2017-04-10T12:41:02Z</time>
      </trkpt>
      <trkpt lat="45.92333" lon="3.61298">
        <ele>742.99332666667</ele>
        <time>2017-04-10T12:41:06Z</time>
      </trkpt>
      <trkpt lat="45.92354" lon="3.61271">
        <ele>745.19416</ele>
        <time>2017-04-10T12:41:11Z</time>
      </trkpt>
      <trkpt lat="45.9237" lon="3.61245">
        <ele>744.9948</ele>
        <time>2017-04-10T12:41:16Z</time>
      </trkpt>
      <trkpt lat="45.92383" lon="3.61206">
        <ele>744.8953</ele>
        <time>2017-04-10T12:41:21Z</time>
      </trkpt>
      <trkpt lat="45.92387" lon="3.61173">
        <ele>744.19549333333</ele>
        <time>2017-04-10T12:41:25Z</time>
      </trkpt>
      <trkpt lat="45.92387" lon="3.61131">
        <ele>744.09546</ele>
        <time>2017-04-10T12:41:29Z</time>
      </trkpt>
      <trkpt lat="45.92393" lon="3.61105">
        <ele>743.49572</ele>
        <time>2017-04-10T12:41:33Z</time>
      </trkpt>
      <trkpt lat="45.92404" lon="3.6107">
        <ele>742.19614</ele>
        <time>2017-04-10T12:41:37Z</time>
      </trkpt>
      <trkpt lat="45.92413" lon="3.61052">
        <ele>740.39652</ele>
        <time>2017-04-10T12:41:40Z</time>
      </trkpt>
      <trkpt lat="45.92418" lon="3.61042">
        <ele>740.09672666667</ele>
        <time>2017-04-10T12:41:44Z</time>
      </trkpt>
      <trkpt lat="45.92423" lon="3.61034">
        <ele>739.89690666667</ele>
        <time>2017-04-10T12:41:47Z</time>
      </trkpt>
      <trkpt lat="45.92426" lon="3.61022">
        <ele>739.39702666667</ele>
        <time>2017-04-10T12:41:50Z</time>
      </trkpt>
      <trkpt lat="45.92432" lon="3.61">
        <ele>738.79728666667</ele>
        <time>2017-04-10T12:41:54Z</time>
      </trkpt>
      <trkpt lat="45.92445" lon="3.60979">
        <ele>738.59780666667</ele>
        <time>2017-04-10T12:42:00Z</time>
      </trkpt>
      <trkpt lat="45.92466" lon="3.60962">
        <ele>739.39862</ele>
        <time>2017-04-10T12:42:05Z</time>
      </trkpt>
      <trkpt lat="45.92472" lon="3.6096">
        <ele>739.39888666667</ele>
        <time>2017-04-10T12:42:09Z</time>
      </trkpt>
      <trkpt lat="45.92486" lon="3.60959">
        <ele>739.79944666667</ele>
        <time>2017-04-10T12:42:14Z</time>
      </trkpt>
      <trkpt lat="45.92498" lon="3.60965">
        <ele>737.1999</ele>
        <time>2017-04-10T12:42:18Z</time>
      </trkpt>
      <trkpt lat="45.9251" lon="3.60963">
        <ele>737.30039333333</ele>
        <time>2017-04-10T12:42:22Z</time>
      </trkpt>
      <trkpt lat="45.92525" lon="3.6096">
        <ele>736.40098</ele>
        <time>2017-04-10T12:42:26Z</time>
      </trkpt>
      <trkpt lat="45.92541" lon="3.60965">
        <ele>735.80163333333</ele>
        <time>2017-04-10T12:42:31Z</time>
      </trkpt>
      <trkpt lat="45.92557" lon="3.60966">
        <ele>732.80226666667</ele>
        <time>2017-04-10T12:42:36Z</time>
      </trkpt>
      <trkpt lat="45.92562" lon="3.60963">
        <ele>730.10248</ele>
        <time>2017-04-10T12:42:39Z</time>
      </trkpt>
      <trkpt lat="45.9257" lon="3.60958">
        <ele>729.30279333333</ele>
        <time>2017-04-10T12:42:43Z</time>
      </trkpt>
      <trkpt lat="45.92577" lon="3.60954">
        <ele>728.40306666667</ele>
        <time>2017-04-10T12:42:50Z</time>
      </trkpt>
      <trkpt lat="45.92585" lon="3.60941">
        <ele>727.20338666667</ele>
        <time>2017-04-10T12:42:53Z</time>
      </trkpt>
      <trkpt lat="45.92591" lon="3.60932">
        <ele>726.40364</ele>
        <time>2017-04-10T12:42:59Z</time>
      </trkpt>
      <trkpt lat="45.92599" lon="3.6092">
        <ele>726.30394</ele>
        <time>2017-04-10T12:43:02Z</time>
      </trkpt>
      <trkpt lat="45.92606" lon="3.60909">
        <ele>726.20422666667</ele>
        <time>2017-04-10T12:43:05Z</time>
      </trkpt>
      <trkpt lat="45.92615" lon="3.60886">
        <ele>726.00461333333</ele>
        <time>2017-04-10T12:43:08Z</time>
      </trkpt>
      <trkpt lat="45.92618" lon="3.60853">
        <ele>726.00471333333</ele>
        <time>2017-04-10T12:43:12Z</time>
      </trkpt>
      <trkpt lat="45.9262" lon="3.60836">
        <ele>725.90481333333</ele>
        <time>2017-04-10T12:43:17Z</time>
      </trkpt>
      <trkpt lat="45.92625" lon="3.60801">
        <ele>726.50501333333</ele>
        <time>2017-04-10T12:43:19Z</time>
      </trkpt>
      <trkpt lat="45.92635" lon="3.6075">
        <ele>722.8054</ele>
        <time>2017-04-10T12:43:28Z</time>
      </trkpt>
      <trkpt lat="45.92639" lon="3.60727">
        <ele>722.50556</ele>
        <time>2017-04-10T12:43:33Z</time>
      </trkpt>
      <trkpt lat="45.92645" lon="3.607">
        <ele>722.60581333333</ele>
        <time>2017-04-10T12:43:37Z</time>
      </trkpt>
      <trkpt lat="45.92645" lon="3.60681">
        <ele>723.90578666667</ele>
        <time>2017-04-10T12:43:40Z</time>
      </trkpt>
      <trkpt lat="45.9264" lon="3.60665">
        <ele>725.40558</ele>
        <time>2017-04-10T12:43:45Z</time>
      </trkpt>
      <trkpt lat="45.92631" lon="3.60647">
        <ele>727.60524666667</ele>
        <time>2017-04-10T12:43:49Z</time>
      </trkpt>
      <trkpt lat="45.9263" lon="3.60634">
        <ele>729.20519333333</ele>
        <time>2017-04-10T12:43:53Z</time>
      </trkpt>
      <trkpt lat="45.92629" lon="3.60626">
        <ele>729.90515333333</ele>
        <time>2017-04-10T12:43:55Z</time>
      </trkpt>
      <trkpt lat="45.92628" lon="3.60601">
        <ele>730.00510666667</ele>
        <time>2017-04-10T12:44:00Z</time>
      </trkpt>
      <trkpt lat="45.92633" lon="3.60573">
        <ele>725.80531333333</ele>
        <time>2017-04-10T12:44:05Z</time>
      </trkpt>
      <trkpt lat="45.92636" lon="3.60548">
        <ele>720.30544</ele>
        <time>2017-04-10T12:44:09Z</time>
      </trkpt>
      <trkpt lat="45.92637" lon="3.60528">
        <ele>718.60546</ele>
        <time>2017-04-10T12:44:14Z</time>
      </trkpt>
      <trkpt lat="45.92636" lon="3.60516">
        <ele>719.00544666667</ele>
        <time>2017-04-10T12:44:18Z</time>
      </trkpt>
      <trkpt lat="45.92637" lon="3.60505">
        <ele>720.00546</ele>
        <time>2017-04-10T12:44:22Z</time>
      </trkpt>
      <trkpt lat="45.92635" lon="3.60494">
        <ele>720.70538666667</ele>
        <time>2017-04-10T12:44:26Z</time>
      </trkpt>
      <trkpt lat="45.92635" lon="3.6048">
        <ele>720.20540666667</ele>
        <time>2017-04-10T12:44:32Z</time>
      </trkpt>
      <trkpt lat="45.92631" lon="3.60465">
        <ele>718.70522</ele>
        <time>2017-04-10T12:44:37Z</time>
      </trkpt>
      <trkpt lat="45.92628" lon="3.60447">
        <ele>717.40512</ele>
        <time>2017-04-10T12:44:41Z</time>
      </trkpt>
      <trkpt lat="45.92626" lon="3.60439">
        <ele>716.50504</ele>
        <time>2017-04-10T12:44:45Z</time>
      </trkpt>
      <trkpt lat="45.92623" lon="3.60429">
        <ele>716.10490666667</ele>
        <time>2017-04-10T12:44:49Z</time>
      </trkpt>
      <trkpt lat="45.92618" lon="3.60422">
        <ele>715.90472666667</ele>
        <time>2017-04-10T12:44:54Z</time>
      </trkpt>
      <trkpt lat="45.9261" lon="3.60408">
        <ele>713.80438666667</ele>
        <time>2017-04-10T12:44:59Z</time>
      </trkpt>
      <trkpt lat="45.92606" lon="3.60403">
        <ele>714.00424666667</ele>
        <time>2017-04-10T12:45:01Z</time>
      </trkpt>
      <trkpt lat="45.92597" lon="3.60388">
        <ele>712.90387333333</ele>
        <time>2017-04-10T12:45:06Z</time>
      </trkpt>
      <trkpt lat="45.9258" lon="3.60376">
        <ele>707.5032</ele>
        <time>2017-04-10T12:45:11Z</time>
      </trkpt>
      <trkpt lat="45.92572" lon="3.6037">
        <ele>706.40286</ele>
        <time>2017-04-10T12:45:13Z</time>
      </trkpt>
      <trkpt lat="45.92579" lon="3.60355">
        <ele>704.70315333333</ele>
        <time>2017-04-10T12:45:18Z</time>
      </trkpt>
      <trkpt lat="45.92589" lon="3.60345">
        <ele>702.20355333333</ele>
        <time>2017-04-10T12:45:22Z</time>
      </trkpt>
      <trkpt lat="45.92598" lon="3.60338">
        <ele>697.8039</ele>
        <time>2017-04-10T12:45:26Z</time>
      </trkpt>
      <trkpt lat="45.92606" lon="3.60331">
        <ele>694.10425333333</ele>
        <time>2017-04-10T12:45:30Z</time>
      </trkpt>
      <trkpt lat="45.92615" lon="3.60324">
        <ele>691.30459333333</ele>
        <time>2017-04-10T12:45:34Z</time>
      </trkpt>
      <trkpt lat="45.92623" lon="3.60313">
        <ele>689.40490666667</ele>
        <time>2017-04-10T12:45:38Z</time>
      </trkpt>
      <trkpt lat="45.92626" lon="3.60305">
        <ele>688.70504666667</ele>
        <time>2017-04-10T12:45:41Z</time>
      </trkpt>
      <trkpt lat="45.92635" lon="3.60285">
        <ele>687.30538</ele>
        <time>2017-04-10T12:45:48Z</time>
      </trkpt>
      <trkpt lat="45.92637" lon="3.60279">
        <ele>686.90548666667</ele>
        <time>2017-04-10T12:45:50Z</time>
      </trkpt>
      <trkpt lat="45.92645" lon="3.60251">
        <ele>685.70579333333</ele>
        <time>2017-04-10T12:45:59Z</time>
      </trkpt>
      <trkpt lat="45.92646" lon="3.6023">
        <ele>684.20583333333</ele>
        <time>2017-04-10T12:46:04Z</time>
      </trkpt>
      <trkpt lat="45.92642" lon="3.60215">
        <ele>683.60568666667</ele>
        <time>2017-04-10T12:46:08Z</time>
      </trkpt>
      <trkpt lat="45.92633" lon="3.60191">
        <ele>682.7053</ele>
        <time>2017-04-10T12:46:13Z</time>
      </trkpt>
      <trkpt lat="45.92621" lon="3.6017">
        <ele>682.10482</ele>
        <time>2017-04-10T12:46:17Z</time>
      </trkpt>
      <trkpt lat="45.92605" lon="3.6014">
        <ele>681.70421333333</ele>
        <time>2017-04-10T12:46:21Z</time>
      </trkpt>
      <trkpt lat="45.926" lon="3.60119">
        <ele>682.30399333333</ele>
        <time>2017-04-10T12:46:26Z</time>
      </trkpt>
      <trkpt lat="45.92599" lon="3.60104">
        <ele>683.30396666667</ele>
        <time>2017-04-10T12:46:30Z</time>
      </trkpt>
      <trkpt lat="45.92599" lon="3.60094">
        <ele>683.90396</ele>
        <time>2017-04-10T12:46:33Z</time>
      </trkpt>
      <trkpt lat="45.92604" lon="3.60056">
        <ele>683.00414666667</ele>
        <time>2017-04-10T12:46:39Z</time>
      </trkpt>
      <trkpt lat="45.92605" lon="3.60036">
        <ele>683.20420666667</ele>
        <time>2017-04-10T12:46:43Z</time>
      </trkpt>
      <trkpt lat="45.92607" lon="3.60014">
        <ele>683.50426</ele>
        <time>2017-04-10T12:46:47Z</time>
      </trkpt>
      <trkpt lat="45.92608" lon="3.60001">
        <ele>684.10433333333</ele>
        <time>2017-04-10T12:46:50Z</time>
      </trkpt>
      <trkpt lat="45.92609" lon="3.59985">
        <ele>685.20436</ele>
        <time>2017-04-10T12:46:53Z</time>
      </trkpt>
      <trkpt lat="45.92609" lon="3.59976">
        <ele>686.10435333333</ele>
        <time>2017-04-10T12:46:57Z</time>
      </trkpt>
      <trkpt lat="45.9261" lon="3.59967">
        <ele>686.70440666667</ele>
        <time>2017-04-10T12:47:00Z</time>
      </trkpt>
      <trkpt lat="45.92612" lon="3.59949">
        <ele>688.20448</ele>
        <time>2017-04-10T12:47:05Z</time>
      </trkpt>
      <trkpt lat="45.92612" lon="3.59929">
        <ele>688.60449333333</ele>
        <time>2017-04-10T12:47:09Z</time>
      </trkpt>
      <trkpt lat="45.92613" lon="3.59917">
        <ele>689.2045</ele>
        <time>2017-04-10T12:47:12Z</time>
      </trkpt>
      <trkpt lat="45.92613" lon="3.59905">
        <ele>690.40453333333</ele>
        <time>2017-04-10T12:47:16Z</time>
      </trkpt>
      <trkpt lat="45.92613" lon="3.59891">
        <ele>691.10452666667</ele>
        <time>2017-04-10T12:47:19Z</time>
      </trkpt>
      <trkpt lat="45.92613" lon="3.59868">
        <ele>691.30452</ele>
        <time>2017-04-10T12:47:24Z</time>
      </trkpt>
      <trkpt lat="45.92612" lon="3.59846">
        <ele>691.60448</ele>
        <time>2017-04-10T12:47:28Z</time>
      </trkpt>
      <trkpt lat="45.92611" lon="3.59829">
        <ele>692.00444666667</ele>
        <time>2017-04-10T12:47:33Z</time>
      </trkpt>
      <trkpt lat="45.9261" lon="3.59811">
        <ele>691.80438</ele>
        <time>2017-04-10T12:47:37Z</time>
      </trkpt>
      <trkpt lat="45.9261" lon="3.59796">
        <ele>691.7044</ele>
        <time>2017-04-10T12:47:41Z</time>
      </trkpt>
      <trkpt lat="45.92613" lon="3.59785">
        <ele>692.30452</ele>
        <time>2017-04-10T12:47:45Z</time>
      </trkpt>
      <trkpt lat="45.92618" lon="3.59776">
        <ele>693.20470666667</ele>
        <time>2017-04-10T12:47:49Z</time>
      </trkpt>
      <trkpt lat="45.92621" lon="3.59775">
        <ele>693.80482666667</ele>
        <time>2017-04-10T12:47:52Z</time>
      </trkpt>
      <trkpt lat="45.92625" lon="3.59767">
        <ele>695.10501333333</ele>
        <time>2017-04-10T12:47:57Z</time>
      </trkpt>
      <trkpt lat="45.92629" lon="3.59756">
        <ele>696.10516</ele>
        <time>2017-04-10T12:48:00Z</time>
      </trkpt>
      <trkpt lat="45.92633" lon="3.59742">
        <ele>695.90532</ele>
        <time>2017-04-10T12:48:05Z</time>
      </trkpt>
      <trkpt lat="45.92635" lon="3.5973">
        <ele>696.60538666667</ele>
        <time>2017-04-10T12:48:09Z</time>
      </trkpt>
      <trkpt lat="45.92638" lon="3.59719">
        <ele>698.20550666667</ele>
        <time>2017-04-10T12:48:13Z</time>
      </trkpt>
      <trkpt lat="45.92642" lon="3.59706">
        <ele>700.90566666667</ele>
        <time>2017-04-10T12:48:17Z</time>
      </trkpt>
      <trkpt lat="45.92645" lon="3.59696">
        <ele>702.7058</ele>
        <time>2017-04-10T12:48:20Z</time>
      </trkpt>
      <trkpt lat="45.92649" lon="3.59683">
        <ele>704.70595333333</ele>
        <time>2017-04-10T12:48:24Z</time>
      </trkpt>
      <trkpt lat="45.92652" lon="3.5967">
        <ele>705.50609333333</ele>
        <time>2017-04-10T12:48:26Z</time>
      </trkpt>
      <trkpt lat="45.9266" lon="3.59645">
        <ele>706.20640666667</ele>
        <time>2017-04-10T12:48:30Z</time>
      </trkpt>
      <trkpt lat="45.92673" lon="3.59607">
        <ele>705.60693333333</ele>
        <time>2017-04-10T12:48:35Z</time>
      </trkpt>
      <trkpt lat="45.92685" lon="3.59575">
        <ele>702.90741333333</ele>
        <time>2017-04-10T12:48:40Z</time>
      </trkpt>
      <trkpt lat="45.92689" lon="3.59563">
        <ele>702.30755333333</ele>
        <time>2017-04-10T12:48:41Z</time>
      </trkpt>
      <trkpt lat="45.92719" lon="3.59493">
        <ele>700.50876666667</ele>
        <time>2017-04-10T12:48:52Z</time>
      </trkpt>
      <trkpt lat="45.92727" lon="3.59481">
        <ele>700.30907333333</ele>
        <time>2017-04-10T12:48:54Z</time>
      </trkpt>
      <trkpt lat="45.92747" lon="3.59452">
        <ele>697.70988</ele>
        <time>2017-04-10T12:49:00Z</time>
      </trkpt>
      <trkpt lat="45.92775" lon="3.59416">
        <ele>694.91101333333</ele>
        <time>2017-04-10T12:49:05Z</time>
      </trkpt>
      <trkpt lat="45.92797" lon="3.59381">
        <ele>692.51186666667</ele>
        <time>2017-04-10T12:49:09Z</time>
      </trkpt>
      <trkpt lat="45.92809" lon="3.59348">
        <ele>690.31234666667</ele>
        <time>2017-04-10T12:49:13Z</time>
      </trkpt>
      <trkpt lat="45.92819" lon="3.59322">
        <ele>688.41274666667</ele>
        <time>2017-04-10T12:49:17Z</time>
      </trkpt>
      <trkpt lat="45.92831" lon="3.59286">
        <ele>685.01325333333</ele>
        <time>2017-04-10T12:49:21Z</time>
      </trkpt>
      <trkpt lat="45.92844" lon="3.5924">
        <ele>682.51376</ele>
        <time>2017-04-10T12:49:24Z</time>
      </trkpt>
      <trkpt lat="45.9285" lon="3.59217">
        <ele>680.81398666667</ele>
        <time>2017-04-10T12:49:31Z</time>
      </trkpt>
      <trkpt lat="45.92866" lon="3.59164">
        <ele>674.41462666667</ele>
        <time>2017-04-10T12:49:35Z</time>
      </trkpt>
      <trkpt lat="45.92869" lon="3.59153">
        <ele>672.21475333333</ele>
        <time>2017-04-10T12:49:39Z</time>
      </trkpt>
      <trkpt lat="45.92871" lon="3.59148">
        <ele>670.41484</ele>
        <time>2017-04-10T12:49:41Z</time>
      </trkpt>
      <trkpt lat="45.92874" lon="3.5914">
        <ele>669.11496</ele>
        <time>2017-04-10T12:49:45Z</time>
      </trkpt>
      <trkpt lat="45.92879" lon="3.5913">
        <ele>667.21515333333</ele>
        <time>2017-04-10T12:49:50Z</time>
      </trkpt>
      <trkpt lat="45.92884" lon="3.5912">
        <ele>667.91536666667</ele>
        <time>2017-04-10T12:49:56Z</time>
      </trkpt>
      <trkpt lat="45.92883" lon="3.59112">
        <ele>667.31532</ele>
        <time>2017-04-10T12:50:00Z</time>
      </trkpt>
      <trkpt lat="45.92883" lon="3.591">
        <ele>666.6153</ele>
        <time>2017-04-10T12:50:04Z</time>
      </trkpt>
      <trkpt lat="45.9289" lon="3.59084">
        <ele>665.31561333333</ele>
        <time>2017-04-10T12:50:08Z</time>
      </trkpt>
      <trkpt lat="45.92895" lon="3.59068">
        <ele>665.4158</ele>
        <time>2017-04-10T12:50:11Z</time>
      </trkpt>
      <trkpt lat="45.92907" lon="3.59034">
        <ele>666.71627333333</ele>
        <time>2017-04-10T12:50:18Z</time>
      </trkpt>
      <trkpt lat="45.92913" lon="3.59015">
        <ele>667.21651333333</ele>
        <time>2017-04-10T12:50:21Z</time>
      </trkpt>
      <trkpt lat="45.9292" lon="3.58987">
        <ele>667.2168</ele>
        <time>2017-04-10T12:50:26Z</time>
      </trkpt>
      <trkpt lat="45.92927" lon="3.58961">
        <ele>667.51708666667</ele>
        <time>2017-04-10T12:50:30Z</time>
      </trkpt>
      <trkpt lat="45.92932" lon="3.58953">
        <ele>667.81726</ele>
        <time>2017-04-10T12:50:33Z</time>
      </trkpt>
      <trkpt lat="45.92936" lon="3.58943">
        <ele>667.11742666667</ele>
        <time>2017-04-10T12:50:39Z</time>
      </trkpt>
      <trkpt lat="45.92964" lon="3.58925">
        <ele>661.11857333333</ele>
        <time>2017-04-10T12:50:44Z</time>
      </trkpt>
      <trkpt lat="45.92998" lon="3.58915">
        <ele>655.11990666667</ele>
        <time>2017-04-10T12:50:48Z</time>
      </trkpt>
      <trkpt lat="45.93041" lon="3.5889">
        <ele>647.12164666667</ele>
        <time>2017-04-10T12:50:52Z</time>
      </trkpt>
      <trkpt lat="45.93066" lon="3.58866">
        <ele>639.82262666667</ele>
        <time>2017-04-10T12:50:56Z</time>
      </trkpt>
      <trkpt lat="45.931" lon="3.58834">
        <ele>633.22400666667</ele>
        <time>2017-04-10T12:51:00Z</time>
      </trkpt>
      <trkpt lat="45.93132" lon="3.58793">
        <ele>626.92527333333</ele>
        <time>2017-04-10T12:51:04Z</time>
      </trkpt>
      <trkpt lat="45.93161" lon="3.58736">
        <ele>622.32644</ele>
        <time>2017-04-10T12:51:09Z</time>
      </trkpt>
      <trkpt lat="45.93192" lon="3.58686">
        <ele>613.02768</ele>
        <time>2017-04-10T12:51:14Z</time>
      </trkpt>
      <trkpt lat="45.93203" lon="3.58672">
        <ele>611.02812</ele>
        <time>2017-04-10T12:51:17Z</time>
      </trkpt>
      <trkpt lat="45.93229" lon="3.58643">
        <ele>603.22914666667</ele>
        <time>2017-04-10T12:51:22Z</time>
      </trkpt>
      <trkpt lat="45.93243" lon="3.58628">
        <ele>598.3297</ele>
        <time>2017-04-10T12:51:24Z</time>
      </trkpt>
      <trkpt lat="45.93256" lon="3.5861">
        <ele>594.03022666667</ele>
        <time>2017-04-10T12:51:28Z</time>
      </trkpt>
      <trkpt lat="45.93275" lon="3.58585">
        <ele>589.63101333333</ele>
        <time>2017-04-10T12:51:32Z</time>
      </trkpt>
      <trkpt lat="45.93295" lon="3.58555">
        <ele>584.23178666667</ele>
        <time>2017-04-10T12:51:36Z</time>
      </trkpt>
      <trkpt lat="45.93311" lon="3.58519">
        <ele>579.73242666667</ele>
        <time>2017-04-10T12:51:41Z</time>
      </trkpt>
      <trkpt lat="45.93324" lon="3.58481">
        <ele>576.23294</ele>
        <time>2017-04-10T12:51:45Z</time>
      </trkpt>
      <trkpt lat="45.93338" lon="3.58446">
        <ele>572.5335</ele>
        <time>2017-04-10T12:51:49Z</time>
      </trkpt>
      <trkpt lat="45.93345" lon="3.58398">
        <ele>568.33378</ele>
        <time>2017-04-10T12:51:54Z</time>
      </trkpt>
      <trkpt lat="45.93349" lon="3.58377">
        <ele>566.83396666667</ele>
        <time>2017-04-10T12:51:55Z</time>
      </trkpt>
      <trkpt lat="45.93354" lon="3.58337">
        <ele>563.13416</ele>
        <time>2017-04-10T12:52:00Z</time>
      </trkpt>
      <trkpt lat="45.93369" lon="3.58306">
        <ele>559.93475333333</ele>
        <time>2017-04-10T12:52:06Z</time>
      </trkpt>
      <trkpt lat="45.93395" lon="3.58287">
        <ele>557.03578</ele>
        <time>2017-04-10T12:52:10Z</time>
      </trkpt>
      <trkpt lat="45.93411" lon="3.58306">
        <ele>554.43644</ele>
        <time>2017-04-10T12:52:15Z</time>
      </trkpt>
      <trkpt lat="45.93422" lon="3.58349">
        <ele>552.03688</ele>
        <time>2017-04-10T12:52:18Z</time>
      </trkpt>
      <trkpt lat="45.93426" lon="3.58359">
        <ele>551.53705333333</ele>
        <time>2017-04-10T12:52:20Z</time>
      </trkpt>
      <trkpt lat="45.93436" lon="3.58378">
        <ele>550.53743333333</ele>
        <time>2017-04-10T12:52:28Z</time>
      </trkpt>
      <trkpt lat="45.93493" lon="3.5845">
        <ele>545.5397</ele>
        <time>2017-04-10T12:52:31Z</time>
      </trkpt>
      <trkpt lat="45.93501" lon="3.58451">
        <ele>544.84003333333</ele>
        <time>2017-04-10T12:52:37Z</time>
      </trkpt>
      <trkpt lat="45.93563" lon="3.58456">
        <ele>543.74252</ele>
        <time>2017-04-10T12:52:41Z</time>
      </trkpt>
      <trkpt lat="45.93581" lon="3.58455">
        <ele>544.24324666667</ele>
        <time>2017-04-10T12:52:45Z</time>
      </trkpt>
      <trkpt lat="45.93598" lon="3.58458">
        <ele>545.54391333333</ele>
        <time>2017-04-10T12:52:49Z</time>
      </trkpt>
      <trkpt lat="45.93613" lon="3.58467">
        <ele>545.84452666667</ele>
        <time>2017-04-10T12:52:53Z</time>
      </trkpt>
      <trkpt lat="45.9363" lon="3.58469">
        <ele>546.54518666667</ele>
        <time>2017-04-10T12:52:56Z</time>
      </trkpt>
      <trkpt lat="45.93638" lon="3.58469">
        <ele>547.14551333333</ele>
        <time>2017-04-10T12:53:00Z</time>
      </trkpt>
      <trkpt lat="45.93665" lon="3.5847">
        <ele>546.44660666667</ele>
        <time>2017-04-10T12:53:05Z</time>
      </trkpt>
      <trkpt lat="45.93678" lon="3.58471">
        <ele>545.94712</ele>
        <time>2017-04-10T12:53:09Z</time>
      </trkpt>
      <trkpt lat="45.937" lon="3.5846">
        <ele>545.74799333333</ele>
        <time>2017-04-10T12:53:13Z</time>
      </trkpt>
      <trkpt lat="45.93717" lon="3.58438">
        <ele>546.94866666667</ele>
        <time>2017-04-10T12:53:21Z</time>
      </trkpt>
      <trkpt lat="45.93726" lon="3.58427">
        <ele>547.34902</ele>
        <time>2017-04-10T12:53:24Z</time>
      </trkpt>
      <trkpt lat="45.93736" lon="3.58426">
        <ele>548.54943333333</ele>
        <time>2017-04-10T12:53:29Z</time>
      </trkpt>
      <trkpt lat="45.93745" lon="3.58428">
        <ele>550.84979333333</ele>
        <time>2017-04-10T12:53:33Z</time>
      </trkpt>
      <trkpt lat="45.93754" lon="3.58431">
        <ele>552.95016666667</ele>
        <time>2017-04-10T12:53:37Z</time>
      </trkpt>
      <trkpt lat="45.93763" lon="3.58433">
        <ele>553.25051333333</ele>
        <time>2017-04-10T12:53:40Z</time>
      </trkpt>
      <trkpt lat="45.93769" lon="3.58435">
        <ele>553.65076</ele>
        <time>2017-04-10T12:53:44Z</time>
      </trkpt>
      <trkpt lat="45.93778" lon="3.58437">
        <ele>553.85110666667</ele>
        <time>2017-04-10T12:53:48Z</time>
      </trkpt>
      <trkpt lat="45.93783" lon="3.58439">
        <ele>553.75130666667</ele>
        <time>2017-04-10T12:53:50Z</time>
      </trkpt>
      <trkpt lat="45.93793" lon="3.58446">
        <ele>554.2517</ele>
        <time>2017-04-10T12:53:54Z</time>
      </trkpt>
      <trkpt lat="45.938" lon="3.58451">
        <ele>554.45199333333</ele>
        <time>2017-04-10T12:53:59Z</time>
      </trkpt>
      <trkpt lat="45.93808" lon="3.58452">
        <ele>556.65230666667</ele>
        <time>2017-04-10T12:54:04Z</time>
      </trkpt>
      <trkpt lat="45.93815" lon="3.58456">
        <ele>558.65260666667</ele>
        <time>2017-04-10T12:54:08Z</time>
      </trkpt>
      <trkpt lat="45.9382" lon="3.58457">
        <ele>560.95281333333</ele>
        <time>2017-04-10T12:54:11Z</time>
      </trkpt>
      <trkpt lat="45.93825" lon="3.58458">
        <ele>563.45299333333</ele>
        <time>2017-04-10T12:54:15Z</time>
      </trkpt>
      <trkpt lat="45.93833" lon="3.58452">
        <ele>567.1533</ele>
        <time>2017-04-10T12:54:24Z</time>
      </trkpt>
      <trkpt lat="45.9385" lon="3.58438">
        <ele>569.654</ele>
        <time>2017-04-10T12:54:29Z</time>
      </trkpt>
      <trkpt lat="45.93851" lon="3.58436">
        <ele>569.95405333333</ele>
        <time>2017-04-10T12:54:30Z</time>
      </trkpt>
      <trkpt lat="45.9386" lon="3.58421">
        <ele>568.75439333333</ele>
        <time>2017-04-10T12:54:37Z</time>
      </trkpt>
      <trkpt lat="45.93867" lon="3.58407">
        <ele>566.55469333333</ele>
        <time>2017-04-10T12:54:41Z</time>
      </trkpt>
      <trkpt lat="45.93873" lon="3.58397">
        <ele>565.5549</ele>
        <time>2017-04-10T12:54:45Z</time>
      </trkpt>
      <trkpt lat="45.93881" lon="3.58389">
        <ele>564.05522666667</ele>
        <time>2017-04-10T12:54:47Z</time>
      </trkpt>
      <trkpt lat="45.93889" lon="3.58383">
        <ele>563.35556</ele>
        <time>2017-04-10T12:54:52Z</time>
      </trkpt>
      <trkpt lat="45.93897" lon="3.58382">
        <ele>564.55587333333</ele>
        <time>2017-04-10T12:54:58Z</time>
      </trkpt>
      <trkpt lat="45.93904" lon="3.58385">
        <ele>567.05615333333</ele>
        <time>2017-04-10T12:55:03Z</time>
      </trkpt>
      <trkpt lat="45.9391" lon="3.58389">
        <ele>567.45638666667</ele>
        <time>2017-04-10T12:55:07Z</time>
      </trkpt>
      <trkpt lat="45.93915" lon="3.58398">
        <ele>567.8566</ele>
        <time>2017-04-10T12:55:12Z</time>
      </trkpt>
      <trkpt lat="45.93917" lon="3.58402">
        <ele>568.15668</ele>
        <time>2017-04-10T12:55:20Z</time>
      </trkpt>
      <trkpt lat="45.93924" lon="3.58421">
        <ele>570.05696</ele>
        <time>2017-04-10T12:55:23Z</time>
      </trkpt>
      <trkpt lat="45.93927" lon="3.58441">
        <ele>570.05708666667</ele>
        <time>2017-04-10T12:55:31Z</time>
      </trkpt>
      <trkpt lat="45.9393" lon="3.58459">
        <ele>569.45720666667</ele>
        <time>2017-04-10T12:55:36Z</time>
      </trkpt>
      <trkpt lat="45.93934" lon="3.58474">
        <ele>569.15734666667</ele>
        <time>2017-04-10T12:55:40Z</time>
      </trkpt>
      <trkpt lat="45.93937" lon="3.58485">
        <ele>569.05747333333</ele>
        <time>2017-04-10T12:55:45Z</time>
      </trkpt>
      <trkpt lat="45.93941" lon="3.58502">
        <ele>569.65765333333</ele>
        <time>2017-04-10T12:55:52Z</time>
      </trkpt>
      <trkpt lat="45.93944" lon="3.58511">
        <ele>569.75774666667</ele>
        <time>2017-04-10T12:55:54Z</time>
      </trkpt>
      <trkpt lat="45.93947" lon="3.58522">
        <ele>569.55787333333</ele>
        <time>2017-04-10T12:56:00Z</time>
      </trkpt>
      <trkpt lat="45.93951" lon="3.58543">
        <ele>570.25805333333</ele>
        <time>2017-04-10T12:56:05Z</time>
      </trkpt>
      <trkpt lat="45.93952" lon="3.58553">
        <ele>571.15808666667</ele>
        <time>2017-04-10T12:56:09Z</time>
      </trkpt>
      <trkpt lat="45.93951" lon="3.58564">
        <ele>570.65802666667</ele>
        <time>2017-04-10T12:56:13Z</time>
      </trkpt>
      <trkpt lat="45.9395" lon="3.58573">
        <ele>571.058</ele>
        <time>2017-04-10T12:56:17Z</time>
      </trkpt>
      <trkpt lat="45.93949" lon="3.5859">
        <ele>573.25794</ele>
        <time>2017-04-10T12:56:24Z</time>
      </trkpt>
      <trkpt lat="45.93947" lon="3.58604">
        <ele>575.25788666667</ele>
        <time>2017-04-10T12:56:26Z</time>
      </trkpt>
      <trkpt lat="45.93947" lon="3.58607">
        <ele>575.65786</ele>
        <time>2017-04-10T12:56:36Z</time>
      </trkpt>
      <trkpt lat="45.93936" lon="3.58647">
        <ele>578.75745333333</ele>
        <time>2017-04-10T12:56:41Z</time>
      </trkpt>
      <trkpt lat="45.93935" lon="3.58649">
        <ele>578.95740666667</ele>
        <time>2017-04-10T12:56:43Z</time>
      </trkpt>
      <trkpt lat="45.93926" lon="3.58669">
        <ele>579.95702666667</ele>
        <time>2017-04-10T12:56:48Z</time>
      </trkpt>
      <trkpt lat="45.93922" lon="3.58678">
        <ele>580.45687333333</ele>
        <time>2017-04-10T12:56:51Z</time>
      </trkpt>
      <trkpt lat="45.93916" lon="3.58693">
        <ele>581.75663333333</ele>
        <time>2017-04-10T12:56:56Z</time>
      </trkpt>
      <trkpt lat="45.93907" lon="3.58705">
        <ele>583.35626</ele>
        <time>2017-04-10T12:57:01Z</time>
      </trkpt>
      <trkpt lat="45.93902" lon="3.58714">
        <ele>583.25609333333</ele>
        <time>2017-04-10T12:57:04Z</time>
      </trkpt>
      <trkpt lat="45.93897" lon="3.58728">
        <ele>583.75586666667</ele>
        <time>2017-04-10T12:57:08Z</time>
      </trkpt>
      <trkpt lat="45.93893" lon="3.58734">
        <ele>583.35573333333</ele>
        <time>2017-04-10T12:57:10Z</time>
      </trkpt>
      <trkpt lat="45.93884" lon="3.58756">
        <ele>583.05536666667</ele>
        <time>2017-04-10T12:57:19Z</time>
      </trkpt>
      <trkpt lat="45.93882" lon="3.58765">
        <ele>582.55526</ele>
        <time>2017-04-10T12:57:23Z</time>
      </trkpt>
      <trkpt lat="45.93879" lon="3.58777">
        <ele>582.55514</ele>
        <time>2017-04-10T12:57:28Z</time>
      </trkpt>
      <trkpt lat="45.93873" lon="3.58786">
        <ele>582.85492</ele>
        <time>2017-04-10T12:57:31Z</time>
      </trkpt>
      <trkpt lat="45.93871" lon="3.58791">
        <ele>582.85484666667</ele>
        <time>2017-04-10T12:57:34Z</time>
      </trkpt>
      <trkpt lat="45.93866" lon="3.58803">
        <ele>584.15463333333</ele>
        <time>2017-04-10T12:57:40Z</time>
      </trkpt>
      <trkpt lat="45.93862" lon="3.58813">
        <ele>585.75446666667</ele>
        <time>2017-04-10T12:57:45Z</time>
      </trkpt>
      <trkpt lat="45.93858" lon="3.58824">
        <ele>586.55430666667</ele>
        <time>2017-04-10T12:57:51Z</time>
      </trkpt>
      <trkpt lat="45.93854" lon="3.58836">
        <ele>587.85416</ele>
        <time>2017-04-10T12:57:55Z</time>
      </trkpt>
      <trkpt lat="45.93848" lon="3.58848">
        <ele>588.55392</ele>
        <time>2017-04-10T12:57:59Z</time>
      </trkpt>
      <trkpt lat="45.93845" lon="3.58859">
        <ele>589.15379333333</ele>
        <time>2017-04-10T12:58:03Z</time>
      </trkpt>
      <trkpt lat="45.93844" lon="3.58862">
        <ele>589.45374666667</ele>
        <time>2017-04-10T12:58:06Z</time>
      </trkpt>
      <trkpt lat="45.9384" lon="3.5887">
        <ele>589.5536</ele>
        <time>2017-04-10T12:58:10Z</time>
      </trkpt>
      <trkpt lat="45.93837" lon="3.5888">
        <ele>590.05346</ele>
        <time>2017-04-10T12:58:15Z</time>
      </trkpt>
      <trkpt lat="45.93832" lon="3.58889">
        <ele>591.45328</ele>
        <time>2017-04-10T12:58:24Z</time>
      </trkpt>
      <trkpt lat="45.93826" lon="3.58898">
        <ele>592.25304</ele>
        <time>2017-04-10T12:58:30Z</time>
      </trkpt>
      <trkpt lat="45.93819" lon="3.58904">
        <ele>593.15275333333</ele>
        <time>2017-04-10T12:58:38Z</time>
      </trkpt>
      <trkpt lat="45.93812" lon="3.5891">
        <ele>594.95247333333</ele>
        <time>2017-04-10T12:58:45Z</time>
      </trkpt>
      <trkpt lat="45.9381" lon="3.58911">
        <ele>595.7524</ele>
        <time>2017-04-10T12:58:47Z</time>
      </trkpt>
      <trkpt lat="45.93803" lon="3.58919">
        <ele>599.35213333333</ele>
        <time>2017-04-10T12:58:57Z</time>
      </trkpt>
      <trkpt lat="45.93799" lon="3.58925">
        <ele>600.45194</ele>
        <time>2017-04-10T12:59:05Z</time>
      </trkpt>
      <trkpt lat="45.93789" lon="3.58935">
        <ele>602.35157333333</ele>
        <time>2017-04-10T12:59:09Z</time>
      </trkpt>
      <trkpt lat="45.93783" lon="3.58943">
        <ele>603.75133333333</ele>
        <time>2017-04-10T12:59:16Z</time>
      </trkpt>
      <trkpt lat="45.9378" lon="3.58954">
        <ele>604.25118666667</ele>
        <time>2017-04-10T12:59:21Z</time>
      </trkpt>
      <trkpt lat="45.93778" lon="3.58966">
        <ele>604.9511</ele>
        <time>2017-04-10T12:59:29Z</time>
      </trkpt>
      <trkpt lat="45.93779" lon="3.58978">
        <ele>605.75117333333</ele>
        <time>2017-04-10T12:59:36Z</time>
      </trkpt>
      <trkpt lat="45.93783" lon="3.58989">
        <ele>606.45132666667</ele>
        <time>2017-04-10T12:59:43Z</time>
      </trkpt>
      <trkpt lat="45.93786" lon="3.58998">
        <ele>606.55144</ele>
        <time>2017-04-10T12:59:47Z</time>
      </trkpt>
      <trkpt lat="45.93787" lon="3.5901">
        <ele>606.45148666667</ele>
        <time>2017-04-10T12:59:52Z</time>
      </trkpt>
      <trkpt lat="45.93788" lon="3.59025">
        <ele>606.05152666667</ele>
        <time>2017-04-10T12:59:57Z</time>
      </trkpt>
      <trkpt lat="45.9379" lon="3.59038">
        <ele>606.15158666667</ele>
        <time>2017-04-10T13:00:02Z</time>
      </trkpt>
      <trkpt lat="45.93791" lon="3.59051">
        <ele>606.65162</ele>
        <time>2017-04-10T13:00:09Z</time>
      </trkpt>
      <trkpt lat="45.93793" lon="3.59064">
        <ele>607.05172</ele>
        <time>2017-04-10T13:00:12Z</time>
      </trkpt>
      <trkpt lat="45.93794" lon="3.59079">
        <ele>607.85177333333</ele>
        <time>2017-04-10T13:00:20Z</time>
      </trkpt>
      <trkpt lat="45.93793" lon="3.59089">
        <ele>608.45172666667</ele>
        <time>2017-04-10T13:00:26Z</time>
      </trkpt>
      <trkpt lat="45.93791" lon="3.59102">
        <ele>608.75164</ele>
        <time>2017-04-10T13:00:31Z</time>
      </trkpt>
      <trkpt lat="45.93792" lon="3.59112">
        <ele>608.05167333333</ele>
        <time>2017-04-10T13:00:34Z</time>
      </trkpt>
      <trkpt lat="45.93794" lon="3.59123">
        <ele>607.95174</ele>
        <time>2017-04-10T13:00:38Z</time>
      </trkpt>
      <trkpt lat="45.93793" lon="3.59134">
        <ele>608.15171333333</ele>
        <time>2017-04-10T13:00:44Z</time>
      </trkpt>
      <trkpt lat="45.93792" lon="3.59145">
        <ele>608.35168</ele>
        <time>2017-04-10T13:00:47Z</time>
      </trkpt>
      <trkpt lat="45.9379" lon="3.59164">
        <ele>608.4516</ele>
        <time>2017-04-10T13:00:54Z</time>
      </trkpt>
      <trkpt lat="45.93789" lon="3.59175">
        <ele>609.15154</ele>
        <time>2017-04-10T13:01:00Z</time>
      </trkpt>
      <trkpt lat="45.93786" lon="3.59187">
        <ele>610.15144666667</ele>
        <time>2017-04-10T13:01:04Z</time>
      </trkpt>
      <trkpt lat="45.93785" lon="3.59199">
        <ele>611.35138</ele>
        <time>2017-04-10T13:01:10Z</time>
      </trkpt>
      <trkpt lat="45.93783" lon="3.59211">
        <ele>612.45130666667</ele>
        <time>2017-04-10T13:01:14Z</time>
      </trkpt>
      <trkpt lat="45.93781" lon="3.59221">
        <ele>613.75123333333</ele>
        <time>2017-04-10T13:01:18Z</time>
      </trkpt>
      <trkpt lat="45.93778" lon="3.59231">
        <ele>615.45112</ele>
        <time>2017-04-10T13:01:23Z</time>
      </trkpt>
      <trkpt lat="45.93777" lon="3.5924">
        <ele>616.15107333333</ele>
        <time>2017-04-10T13:01:28Z</time>
      </trkpt>
      <trkpt lat="45.93776" lon="3.59245">
        <ele>616.85102666667</ele>
        <time>2017-04-10T13:01:30Z</time>
      </trkpt>
      <trkpt lat="45.93773" lon="3.5926">
        <ele>618.25093333333</ele>
        <time>2017-04-10T13:01:39Z</time>
      </trkpt>
      <trkpt lat="45.93773" lon="3.59266">
        <ele>618.6509</ele>
        <time>2017-04-10T13:01:41Z</time>
      </trkpt>
      <trkpt lat="45.93771" lon="3.59279">
        <ele>619.95084666667</ele>
        <time>2017-04-10T13:01:49Z</time>
      </trkpt>
      <trkpt lat="45.9377" lon="3.59292">
        <ele>620.6508</ele>
        <time>2017-04-10T13:02:39Z</time>
      </trkpt>
      <trkpt lat="45.9377" lon="3.59301">
        <ele>618.35081333333</ele>
        <time>2017-04-10T13:02:43Z</time>
      </trkpt>
      <trkpt lat="45.9377" lon="3.59308">
        <ele>618.75081333333</ele>
        <time>2017-04-10T13:02:50Z</time>
      </trkpt>
      <trkpt lat="45.93771" lon="3.59325">
        <ele>619.75082</ele>
        <time>2017-04-10T13:02:54Z</time>
      </trkpt>
      <trkpt lat="45.93771" lon="3.59335">
        <ele>620.25082</ele>
        <time>2017-04-10T13:02:58Z</time>
      </trkpt>
      <trkpt lat="45.9377" lon="3.59349">
        <ele>621.55080666667</ele>
        <time>2017-04-10T13:03:03Z</time>
      </trkpt>
      <trkpt lat="45.93772" lon="3.59361">
        <ele>623.65086</ele>
        <time>2017-04-10T13:03:10Z</time>
      </trkpt>
      <trkpt lat="45.93774" lon="3.59372">
        <ele>626.25094</ele>
        <time>2017-04-10T13:03:20Z</time>
      </trkpt>
      <trkpt lat="45.93774" lon="3.59384">
        <ele>626.95097333333</ele>
        <time>2017-04-10T13:03:25Z</time>
      </trkpt>
      <trkpt lat="45.93773" lon="3.59397">
        <ele>627.65092</ele>
        <time>2017-04-10T13:03:30Z</time>
      </trkpt>
      <trkpt lat="45.93772" lon="3.59407">
        <ele>628.05086666667</ele>
        <time>2017-04-10T13:03:35Z</time>
      </trkpt>
      <trkpt lat="45.9377" lon="3.59425">
        <ele>628.45078</ele>
        <time>2017-04-10T13:03:38Z</time>
      </trkpt>
      <trkpt lat="45.93766" lon="3.59439">
        <ele>628.65062</ele>
        <time>2017-04-10T13:03:42Z</time>
      </trkpt>
      <trkpt lat="45.93762" lon="3.59453">
        <ele>628.95048</ele>
        <time>2017-04-10T13:03:46Z</time>
      </trkpt>
      <trkpt lat="45.93757" lon="3.5947">
        <ele>628.65026666667</ele>
        <time>2017-04-10T13:03:50Z</time>
      </trkpt>
      <trkpt lat="45.93751" lon="3.5949">
        <ele>629.05005333333</ele>
        <time>2017-04-10T13:03:55Z</time>
      </trkpt>
      <trkpt lat="45.93747" lon="3.59514">
        <ele>629.04987333333</ele>
        <time>2017-04-10T13:03:58Z</time>
      </trkpt>
      <trkpt lat="45.93741" lon="3.59545">
        <ele>628.74962666667</ele>
        <time>2017-04-10T13:04:03Z</time>
      </trkpt>
      <trkpt lat="45.93729" lon="3.59569">
        <ele>628.24914666667</ele>
        <time>2017-04-10T13:04:06Z</time>
      </trkpt>
      <trkpt lat="45.93706" lon="3.59583">
        <ele>627.74824</ele>
        <time>2017-04-10T13:04:10Z</time>
      </trkpt>
      <trkpt lat="45.93673" lon="3.59601">
        <ele>626.74692666667</ele>
        <time>2017-04-10T13:04:14Z</time>
      </trkpt>
      <trkpt lat="45.93657" lon="3.59632">
        <ele>624.94627333333</ele>
        <time>2017-04-10T13:04:18Z</time>
      </trkpt>
      <trkpt lat="45.93639" lon="3.59653">
        <ele>624.04556666667</ele>
        <time>2017-04-10T13:04:22Z</time>
      </trkpt>
      <trkpt lat="45.9361" lon="3.59692">
        <ele>619.44438666667</ele>
        <time>2017-04-10T13:04:26Z</time>
      </trkpt>
      <trkpt lat="45.93603" lon="3.59716">
        <ele>617.1441</ele>
        <time>2017-04-10T13:04:29Z</time>
      </trkpt>
      <trkpt lat="45.93603" lon="3.59736">
        <ele>614.84411333333</ele>
        <time>2017-04-10T13:04:33Z</time>
      </trkpt>
      <trkpt lat="45.936" lon="3.59747">
        <ele>615.64401333333</ele>
        <time>2017-04-10T13:04:44Z</time>
      </trkpt>
      <trkpt lat="45.93603" lon="3.5976">
        <ele>617.24413333333</ele>
        <time>2017-04-10T13:04:52Z</time>
      </trkpt>
      <trkpt lat="45.93608" lon="3.5977">
        <ele>617.94431333333</ele>
        <time>2017-04-10T13:04:57Z</time>
      </trkpt>
      <trkpt lat="45.93614" lon="3.59777">
        <ele>619.24454</ele>
        <time>2017-04-10T13:05:03Z</time>
      </trkpt>
      <trkpt lat="45.93618" lon="3.59785">
        <ele>620.04471333333</ele>
        <time>2017-04-10T13:05:06Z</time>
      </trkpt>
      <trkpt lat="45.93621" lon="3.59796">
        <ele>621.14482</ele>
        <time>2017-04-10T13:05:13Z</time>
      </trkpt>
      <trkpt lat="45.93623" lon="3.59807">
        <ele>622.84492</ele>
        <time>2017-04-10T13:05:25Z</time>
      </trkpt>
      <trkpt lat="45.9363" lon="3.59826">
        <ele>624.34518666667</ele>
        <time>2017-04-10T13:05:30Z</time>
      </trkpt>
      <trkpt lat="45.93633" lon="3.59835">
        <ele>624.64531333333</ele>
        <time>2017-04-10T13:05:35Z</time>
      </trkpt>
      <trkpt lat="45.93635" lon="3.59844">
        <ele>625.2454</ele>
        <time>2017-04-10T13:05:37Z</time>
      </trkpt>
      <trkpt lat="45.93637" lon="3.59855">
        <ele>626.44548666667</ele>
        <time>2017-04-10T13:05:43Z</time>
      </trkpt>
      <trkpt lat="45.9364" lon="3.59866">
        <ele>627.8456</ele>
        <time>2017-04-10T13:05:49Z</time>
      </trkpt>
      <trkpt lat="45.93642" lon="3.5987">
        <ele>628.24566666667</ele>
        <time>2017-04-10T13:05:51Z</time>
      </trkpt>
      <trkpt lat="45.93649" lon="3.5988">
        <ele>628.44595333333</ele>
        <time>2017-04-10T13:05:58Z</time>
      </trkpt>
      <trkpt lat="45.93653" lon="3.59886">
        <ele>628.74613333333</ele>
        <time>2017-04-10T13:06:02Z</time>
      </trkpt>
      <trkpt lat="45.93658" lon="3.59895">
        <ele>629.14632666667</ele>
        <time>2017-04-10T13:06:08Z</time>
      </trkpt>
      <trkpt lat="45.93664" lon="3.59903">
        <ele>630.04657333333</ele>
        <time>2017-04-10T13:06:14Z</time>
      </trkpt>
      <trkpt lat="45.9367" lon="3.59909">
        <ele>630.24681333333</ele>
        <time>2017-04-10T13:06:20Z</time>
      </trkpt>
      <trkpt lat="45.93674" lon="3.59913">
        <ele>630.24696</ele>
        <time>2017-04-10T13:06:22Z</time>
      </trkpt>
      <trkpt lat="45.93686" lon="3.59928">
        <ele>631.04742666667</ele>
        <time>2017-04-10T13:06:31Z</time>
      </trkpt>
      <trkpt lat="45.93688" lon="3.59939">
        <ele>629.04752</ele>
        <time>2017-04-10T13:06:48Z</time>
      </trkpt>
      <trkpt lat="45.93696" lon="3.59954">
        <ele>628.14782</ele>
        <time>2017-04-10T13:06:52Z</time>
      </trkpt>
      <trkpt lat="45.93699" lon="3.59971">
        <ele>626.34795333333</ele>
        <time>2017-04-10T13:06:57Z</time>
      </trkpt>
      <trkpt lat="45.937" lon="3.59992">
        <ele>625.14798</ele>
        <time>2017-04-10T13:07:01Z</time>
      </trkpt>
      <trkpt lat="45.93697" lon="3.60013">
        <ele>624.64787333333</ele>
        <time>2017-04-10T13:07:05Z</time>
      </trkpt>
      <trkpt lat="45.93695" lon="3.60033">
        <ele>625.34779333333</ele>
        <time>2017-04-10T13:07:08Z</time>
      </trkpt>
      <trkpt lat="45.9369" lon="3.6006">
        <ele>624.44759333333</ele>
        <time>2017-04-10T13:07:13Z</time>
      </trkpt>
      <trkpt lat="45.93687" lon="3.60074">
        <ele>624.64748</ele>
        <time>2017-04-10T13:07:15Z</time>
      </trkpt>
      <trkpt lat="45.93674" lon="3.60155">
        <ele>624.34694</ele>
        <time>2017-04-10T13:07:24Z</time>
      </trkpt>
      <trkpt lat="45.93672" lon="3.60202">
        <ele>624.04687333333</ele>
        <time>2017-04-10T13:07:29Z</time>
      </trkpt>
      <trkpt lat="45.93678" lon="3.60251">
        <ele>623.5471</ele>
        <time>2017-04-10T13:07:34Z</time>
      </trkpt>
      <trkpt lat="45.93699" lon="3.6029">
        <ele>621.74797333333</ele>
        <time>2017-04-10T13:07:39Z</time>
      </trkpt>
      <trkpt lat="45.93716" lon="3.60311">
        <ele>620.14862666667</ele>
        <time>2017-04-10T13:07:41Z</time>
      </trkpt>
      <trkpt lat="45.93721" lon="3.60319">
        <ele>619.54885333333</ele>
        <time>2017-04-10T13:07:48Z</time>
      </trkpt>
      <trkpt lat="45.93749" lon="3.60367">
        <ele>613.24994666667</ele>
        <time>2017-04-10T13:07:53Z</time>
      </trkpt>
      <trkpt lat="45.93748" lon="3.60373">
        <ele>606.54990666667</ele>
        <time>2017-04-10T13:09:23Z</time>
      </trkpt>
      <trkpt lat="45.93747" lon="3.60396">
        <ele>605.14989333333</ele>
        <time>2017-04-10T13:09:27Z</time>
      </trkpt>
      <trkpt lat="45.93736" lon="3.60418">
        <ele>603.64942</ele>
        <time>2017-04-10T13:09:31Z</time>
      </trkpt>
      <trkpt lat="45.93716" lon="3.60448">
        <ele>602.34865333333</ele>
        <time>2017-04-10T13:09:36Z</time>
      </trkpt>
      <trkpt lat="45.93701" lon="3.60479">
        <ele>600.74802666667</ele>
        <time>2017-04-10T13:09:39Z</time>
      </trkpt>
      <trkpt lat="45.93694" lon="3.60496">
        <ele>600.04776</ele>
        <time>2017-04-10T13:09:42Z</time>
      </trkpt>
      <trkpt lat="45.93678" lon="3.60537">
        <ele>598.54712666667</ele>
        <time>2017-04-10T13:09:46Z</time>
      </trkpt>
      <trkpt lat="45.93668" lon="3.60585">
        <ele>597.34671333333</ele>
        <time>2017-04-10T13:09:50Z</time>
      </trkpt>
      <trkpt lat="45.93641" lon="3.60622">
        <ele>596.64562</ele>
        <time>2017-04-10T13:09:54Z</time>
      </trkpt>
      <trkpt lat="45.93604" lon="3.60639">
        <ele>595.94416</ele>
        <time>2017-04-10T13:09:58Z</time>
      </trkpt>
      <trkpt lat="45.93569" lon="3.60654">
        <ele>595.34276</ele>
        <time>2017-04-10T13:10:02Z</time>
      </trkpt>
      <trkpt lat="45.9353" lon="3.60702">
        <ele>594.34118666667</ele>
        <time>2017-04-10T13:10:07Z</time>
      </trkpt>
      <trkpt lat="45.9349" lon="3.60707">
        <ele>593.6396</ele>
        <time>2017-04-10T13:10:10Z</time>
      </trkpt>
      <trkpt lat="45.93451" lon="3.60712">
        <ele>593.03803333333</ele>
        <time>2017-04-10T13:10:15Z</time>
      </trkpt>
      <trkpt lat="45.93416" lon="3.60765">
        <ele>592.33664666667</ele>
        <time>2017-04-10T13:10:19Z</time>
      </trkpt>
      <trkpt lat="45.93393" lon="3.60816">
        <ele>591.03572666667</ele>
        <time>2017-04-10T13:10:24Z</time>
      </trkpt>
      <trkpt lat="45.93374" lon="3.60882">
        <ele>584.43496666667</ele>
        <time>2017-04-10T13:10:29Z</time>
      </trkpt>
      <trkpt lat="45.93351" lon="3.60886">
        <ele>582.63402666667</ele>
        <time>2017-04-10T13:10:32Z</time>
      </trkpt>
      <trkpt lat="45.93348" lon="3.60884">
        <ele>582.4339</ele>
        <time>2017-04-10T13:10:34Z</time>
      </trkpt>
      <trkpt lat="45.93339" lon="3.60876">
        <ele>581.63356666667</ele>
        <time>2017-04-10T13:10:40Z</time>
      </trkpt>
      <trkpt lat="45.93329" lon="3.60864">
        <ele>582.03315333333</ele>
        <time>2017-04-10T13:10:44Z</time>
      </trkpt>
      <trkpt lat="45.93323" lon="3.60858">
        <ele>582.5329</ele>
        <time>2017-04-10T13:10:46Z</time>
      </trkpt>
      <trkpt lat="45.93313" lon="3.60844">
        <ele>583.43252666667</ele>
        <time>2017-04-10T13:10:50Z</time>
      </trkpt>
      <trkpt lat="45.93307" lon="3.60831">
        <ele>584.23228</ele>
        <time>2017-04-10T13:10:54Z</time>
      </trkpt>
      <trkpt lat="45.93303" lon="3.60823">
        <ele>585.23211333333</ele>
        <time>2017-04-10T13:10:57Z</time>
      </trkpt>
      <trkpt lat="45.93299" lon="3.60813">
        <ele>587.23194666667</ele>
        <time>2017-04-10T13:11:01Z</time>
      </trkpt>
      <trkpt lat="45.93297" lon="3.60809">
        <ele>588.23186</ele>
        <time>2017-04-10T13:11:02Z</time>
      </trkpt>
      <trkpt lat="45.93292" lon="3.60792">
        <ele>590.53167333333</ele>
        <time>2017-04-10T13:11:09Z</time>
      </trkpt>
      <trkpt lat="45.9329" lon="3.60788">
        <ele>591.33161333333</ele>
        <time>2017-04-10T13:11:11Z</time>
      </trkpt>
      <trkpt lat="45.93283" lon="3.60775">
        <ele>593.3313</ele>
        <time>2017-04-10T13:11:17Z</time>
      </trkpt>
      <trkpt lat="45.93279" lon="3.60771">
        <ele>594.23117333333</ele>
        <time>2017-04-10T13:11:21Z</time>
      </trkpt>
      <trkpt lat="45.93271" lon="3.60759">
        <ele>598.13085333333</ele>
        <time>2017-04-10T13:11:25Z</time>
      </trkpt>
      <trkpt lat="45.93256" lon="3.6075">
        <ele>603.23022</ele>
        <time>2017-04-10T13:11:33Z</time>
      </trkpt>
      <trkpt lat="45.93246" lon="3.60746">
        <ele>604.92984666667</ele>
        <time>2017-04-10T13:11:37Z</time>
      </trkpt>
      <trkpt lat="45.93238" lon="3.60745">
        <ele>606.92952</ele>
        <time>2017-04-10T13:11:41Z</time>
      </trkpt>
      <trkpt lat="45.93229" lon="3.60748">
        <ele>608.52914666667</ele>
        <time>2017-04-10T13:11:45Z</time>
      </trkpt>
      <trkpt lat="45.93225" lon="3.6075">
        <ele>609.32899333333</ele>
        <time>2017-04-10T13:11:47Z</time>
      </trkpt>
      <trkpt lat="45.93218" lon="3.60751">
        <ele>609.6287</ele>
        <time>2017-04-10T13:12:05Z</time>
      </trkpt>
      <trkpt lat="45.93205" lon="3.60766">
        <ele>606.52819333333</ele>
        <time>2017-04-10T13:12:08Z</time>
      </trkpt>
      <trkpt lat="45.93199" lon="3.60783">
        <ele>605.42796</ele>
        <time>2017-04-10T13:12:13Z</time>
      </trkpt>
      <trkpt lat="45.93194" lon="3.60814">
        <ele>603.42776</ele>
        <time>2017-04-10T13:12:17Z</time>
      </trkpt>
      <trkpt lat="45.93177" lon="3.60855">
        <ele>601.72708666667</ele>
        <time>2017-04-10T13:12:21Z</time>
      </trkpt>
      <trkpt lat="45.93155" lon="3.60898">
        <ele>600.22618</ele>
        <time>2017-04-10T13:12:25Z</time>
      </trkpt>
      <trkpt lat="45.93139" lon="3.60981">
        <ele>597.42556</ele>
        <time>2017-04-10T13:12:33Z</time>
      </trkpt>
      <trkpt lat="45.93124" lon="3.61012">
        <ele>595.42497333333</ele>
        <time>2017-04-10T13:12:38Z</time>
      </trkpt>
      <trkpt lat="45.93113" lon="3.61031">
        <ele>594.8245</ele>
        <time>2017-04-10T13:12:42Z</time>
      </trkpt>
      <trkpt lat="45.931" lon="3.61037">
        <ele>595.22401333333</ele>
        <time>2017-04-10T13:12:46Z</time>
      </trkpt>
      <trkpt lat="45.93085" lon="3.61055">
        <ele>596.02338666667</ele>
        <time>2017-04-10T13:12:53Z</time>
      </trkpt>
      <trkpt lat="45.93073" lon="3.6107">
        <ele>597.52293333333</ele>
        <time>2017-04-10T13:12:58Z</time>
      </trkpt>
      <trkpt lat="45.93067" lon="3.61077">
        <ele>597.82269333333</ele>
        <time>2017-04-10T13:13:05Z</time>
      </trkpt>
      <trkpt lat="45.93057" lon="3.61095">
        <ele>599.22228</ele>
        <time>2017-04-10T13:13:10Z</time>
      </trkpt>
      <trkpt lat="45.93052" lon="3.61102">
        <ele>600.42208</ele>
        <time>2017-04-10T13:13:11Z</time>
      </trkpt>
      <trkpt lat="45.93044" lon="3.61118">
        <ele>605.22177333333</ele>
        <time>2017-04-10T13:13:20Z</time>
      </trkpt>
      <trkpt lat="45.93042" lon="3.61128">
        <ele>607.62167333333</ele>
        <time>2017-04-10T13:13:25Z</time>
      </trkpt>
      <trkpt lat="45.93039" lon="3.61141">
        <ele>611.62157333333</ele>
        <time>2017-04-10T13:13:30Z</time>
      </trkpt>
      <trkpt lat="45.93038" lon="3.6115">
        <ele>613.32152</ele>
        <time>2017-04-10T13:13:33Z</time>
      </trkpt>
      <trkpt lat="45.93038" lon="3.6116">
        <ele>615.22153333333</ele>
        <time>2017-04-10T13:13:36Z</time>
      </trkpt>
      <trkpt lat="45.93038" lon="3.61175">
        <ele>618.02152</ele>
        <time>2017-04-10T13:13:40Z</time>
      </trkpt>
      <trkpt lat="45.93036" lon="3.61193">
        <ele>621.42144</ele>
        <time>2017-04-10T13:13:45Z</time>
      </trkpt>
      <trkpt lat="45.93036" lon="3.61218">
        <ele>627.12144666667</ele>
        <time>2017-04-10T13:13:53Z</time>
      </trkpt>
      <trkpt lat="45.93034" lon="3.61232">
        <ele>629.62135333333</ele>
        <time>2017-04-10T13:13:56Z</time>
      </trkpt>
      <trkpt lat="45.93031" lon="3.61242">
        <ele>631.42122666667</ele>
        <time>2017-04-10T13:14:00Z</time>
      </trkpt>
      <trkpt lat="45.93021" lon="3.6126">
        <ele>634.62083333333</ele>
        <time>2017-04-10T13:14:07Z</time>
      </trkpt>
      <trkpt lat="45.93009" lon="3.61272">
        <ele>637.22037333333</ele>
        <time>2017-04-10T13:14:12Z</time>
      </trkpt>
      <trkpt lat="45.93" lon="3.61282">
        <ele>638.72001333333</ele>
        <time>2017-04-10T13:14:15Z</time>
      </trkpt>
      <trkpt lat="45.9299" lon="3.61293">
        <ele>640.61959333333</ele>
        <time>2017-04-10T13:14:18Z</time>
      </trkpt>
      <trkpt lat="45.92976" lon="3.61312">
        <ele>643.81903333333</ele>
        <time>2017-04-10T13:14:26Z</time>
      </trkpt>
      <trkpt lat="45.92967" lon="3.61321">
        <ele>646.21869333333</ele>
        <time>2017-04-10T13:14:30Z</time>
      </trkpt>
      <trkpt lat="45.92959" lon="3.61337">
        <ele>648.41835333333</ele>
        <time>2017-04-10T13:14:35Z</time>
      </trkpt>
      <trkpt lat="45.92952" lon="3.61339">
        <ele>649.41806666667</ele>
        <time>2017-04-10T13:14:37Z</time>
      </trkpt>
      <trkpt lat="45.9294" lon="3.61342">
        <ele>652.21760666667</ele>
        <time>2017-04-10T13:14:41Z</time>
      </trkpt>
      <trkpt lat="45.92932" lon="3.61346">
        <ele>654.11728666667</ele>
        <time>2017-04-10T13:14:44Z</time>
      </trkpt>
      <trkpt lat="45.92921" lon="3.61349">
        <ele>656.21685333333</ele>
        <time>2017-04-10T13:14:49Z</time>
      </trkpt>
      <trkpt lat="45.92903" lon="3.6134">
        <ele>657.41612666667</ele>
        <time>2017-04-10T13:14:53Z</time>
      </trkpt>
      <trkpt lat="45.92894" lon="3.61343">
        <ele>658.41575333333</ele>
        <time>2017-04-10T13:14:58Z</time>
      </trkpt>
      <trkpt lat="45.92877" lon="3.61347">
        <ele>659.61508666667</ele>
        <time>2017-04-10T13:15:00Z</time>
      </trkpt>
      <trkpt lat="45.9286" lon="3.61348">
        <ele>659.61438666667</ele>
        <time>2017-04-10T13:15:05Z</time>
      </trkpt>
      <trkpt lat="45.9285" lon="3.61354">
        <ele>655.31399333333</ele>
        <time>2017-04-10T13:15:09Z</time>
      </trkpt>
      <trkpt lat="45.92839" lon="3.61364">
        <ele>647.71357333333</ele>
        <time>2017-04-10T13:15:12Z</time>
      </trkpt>
      <trkpt lat="45.92829" lon="3.61368">
        <ele>646.01316</ele>
        <time>2017-04-10T13:15:16Z</time>
      </trkpt>
      <trkpt lat="45.92814" lon="3.61374">
        <ele>644.41255333333</ele>
        <time>2017-04-10T13:15:20Z</time>
      </trkpt>
      <trkpt lat="45.92802" lon="3.6138">
        <ele>643.31208666667</ele>
        <time>2017-04-10T13:15:23Z</time>
      </trkpt>
      <trkpt lat="45.92785" lon="3.61389">
        <ele>641.9114</ele>
        <time>2017-04-10T13:15:29Z</time>
      </trkpt>
      <trkpt lat="45.92774" lon="3.614">
        <ele>642.41094666667</ele>
        <time>2017-04-10T13:15:34Z</time>
      </trkpt>
      <trkpt lat="45.9276" lon="3.61414">
        <ele>643.31041333333</ele>
        <time>2017-04-10T13:15:39Z</time>
      </trkpt>
      <trkpt lat="45.92749" lon="3.61426">
        <ele>644.40994666667</ele>
        <time>2017-04-10T13:15:43Z</time>
      </trkpt>
      <trkpt lat="45.92739" lon="3.61441">
        <ele>645.40954</ele>
        <time>2017-04-10T13:15:47Z</time>
      </trkpt>
      <trkpt lat="45.92727" lon="3.61454">
        <ele>646.30908</ele>
        <time>2017-04-10T13:15:51Z</time>
      </trkpt>
      <trkpt lat="45.92722" lon="3.6146">
        <ele>646.60889333333</ele>
        <time>2017-04-10T13:15:52Z</time>
      </trkpt>
      <trkpt lat="45.92712" lon="3.61476">
        <ele>648.00849333333</ele>
        <time>2017-04-10T13:15:57Z</time>
      </trkpt>
      <trkpt lat="45.92704" lon="3.61487">
        <ele>649.50814</ele>
        <time>2017-04-10T13:16:01Z</time>
      </trkpt>
      <trkpt lat="45.92694" lon="3.61498">
        <ele>652.10776</ele>
        <time>2017-04-10T13:16:06Z</time>
      </trkpt>
      <trkpt lat="45.92687" lon="3.61505">
        <ele>653.70748</ele>
        <time>2017-04-10T13:16:10Z</time>
      </trkpt>
      <trkpt lat="45.92677" lon="3.61508">
        <ele>655.70708</ele>
        <time>2017-04-10T13:16:12Z</time>
      </trkpt>
      <trkpt lat="45.92659" lon="3.61516">
        <ele>654.80634</ele>
        <time>2017-04-10T13:16:17Z</time>
      </trkpt>
      <trkpt lat="45.92647" lon="3.61519">
        <ele>656.70588666667</ele>
        <time>2017-04-10T13:16:22Z</time>
      </trkpt>
      <trkpt lat="45.92634" lon="3.61522">
        <ele>658.60535333333</ele>
        <time>2017-04-10T13:16:27Z</time>
      </trkpt>
      <trkpt lat="45.92629" lon="3.61523">
        <ele>660.00517333333</ele>
        <time>2017-04-10T13:16:29Z</time>
      </trkpt>
      <trkpt lat="45.9262" lon="3.6153">
        <ele>662.50478</ele>
        <time>2017-04-10T13:16:34Z</time>
      </trkpt>
      <trkpt lat="45.92606" lon="3.61546">
        <ele>666.00424</ele>
        <time>2017-04-10T13:16:38Z</time>
      </trkpt>
      <trkpt lat="45.92604" lon="3.61558">
        <ele>668.60416</ele>
        <time>2017-04-10T13:16:42Z</time>
      </trkpt>
      <trkpt lat="45.92604" lon="3.61565">
        <ele>669.80415333333</ele>
        <time>2017-04-10T13:16:45Z</time>
      </trkpt>
      <trkpt lat="45.92605" lon="3.61582">
        <ele>673.2042</ele>
        <time>2017-04-10T13:16:50Z</time>
      </trkpt>
      <trkpt lat="45.92602" lon="3.61596">
        <ele>676.00407333333</ele>
        <time>2017-04-10T13:16:54Z</time>
      </trkpt>
      <trkpt lat="45.92595" lon="3.61613">
        <ele>679.90378666667</ele>
        <time>2017-04-10T13:16:59Z</time>
      </trkpt>
      <trkpt lat="45.92589" lon="3.61625">
        <ele>682.70357333333</ele>
        <time>2017-04-10T13:17:02Z</time>
      </trkpt>
      <trkpt lat="45.92582" lon="3.61639">
        <ele>685.60329333333</ele>
        <time>2017-04-10T13:17:06Z</time>
      </trkpt>
      <trkpt lat="45.92576" lon="3.61651">
        <ele>688.40303333333</ele>
        <time>2017-04-10T13:17:11Z</time>
      </trkpt>
      <trkpt lat="45.92569" lon="3.61667">
        <ele>691.90274</ele>
        <time>2017-04-10T13:17:16Z</time>
      </trkpt>
      <trkpt lat="45.92565" lon="3.61676">
        <ele>693.70258666667</ele>
        <time>2017-04-10T13:17:20Z</time>
      </trkpt>
      <trkpt lat="45.92563" lon="3.61681">
        <ele>694.6025</ele>
        <time>2017-04-10T13:17:22Z</time>
      </trkpt>
      <trkpt lat="45.92555" lon="3.61706">
        <ele>696.90220666667</ele>
        <time>2017-04-10T13:17:27Z</time>
      </trkpt>
      <trkpt lat="45.92548" lon="3.61719">
        <ele>698.00191333333</ele>
        <time>2017-04-10T13:17:30Z</time>
      </trkpt>
      <trkpt lat="45.92544" lon="3.61732">
        <ele>699.50174666667</ele>
        <time>2017-04-10T13:17:35Z</time>
      </trkpt>
      <trkpt lat="45.9254" lon="3.61743">
        <ele>699.70160666667</ele>
        <time>2017-04-10T13:17:38Z</time>
      </trkpt>
      <trkpt lat="45.92535" lon="3.61754">
        <ele>699.70139333333</ele>
        <time>2017-04-10T13:17:41Z</time>
      </trkpt>
      <trkpt lat="45.92531" lon="3.61767">
        <ele>699.20124</ele>
        <time>2017-04-10T13:17:45Z</time>
      </trkpt>
      <trkpt lat="45.92524" lon="3.61784">
        <ele>698.70094</ele>
        <time>2017-04-10T13:17:50Z</time>
      </trkpt>
      <trkpt lat="45.9252" lon="3.6179">
        <ele>698.20079333333</ele>
        <time>2017-04-10T13:17:53Z</time>
      </trkpt>
      <trkpt lat="45.9251" lon="3.6181">
        <ele>697.70038666667</ele>
        <time>2017-04-10T13:17:57Z</time>
      </trkpt>
      <trkpt lat="45.92503" lon="3.61824">
        <ele>697.70011333333</ele>
        <time>2017-04-10T13:18:02Z</time>
      </trkpt>
      <trkpt lat="45.92495" lon="3.61836">
        <ele>696.79981333333</ele>
        <time>2017-04-10T13:18:07Z</time>
      </trkpt>
      <trkpt lat="45.9249" lon="3.61848">
        <ele>695.39958</ele>
        <time>2017-04-10T13:18:10Z</time>
      </trkpt>
      <trkpt lat="45.92488" lon="3.6185">
        <ele>694.49952666667</ele>
        <time>2017-04-10T13:18:21Z</time>
      </trkpt>
      <trkpt lat="45.92479" lon="3.61868">
        <ele>689.49917333333</ele>
        <time>2017-04-10T13:18:24Z</time>
      </trkpt>
      <trkpt lat="45.92473" lon="3.61871">
        <ele>687.89892</ele>
        <time>2017-04-10T13:18:29Z</time>
      </trkpt>
      <trkpt lat="45.92465" lon="3.61881">
        <ele>685.69860666667</ele>
        <time>2017-04-10T13:18:33Z</time>
      </trkpt>
      <trkpt lat="45.92465" lon="3.61889">
        <ele>684.39859333333</ele>
        <time>2017-04-10T13:18:37Z</time>
      </trkpt>
      <trkpt lat="45.92468" lon="3.619">
        <ele>681.99871333333</ele>
        <time>2017-04-10T13:18:43Z</time>
      </trkpt>
      <trkpt lat="45.92473" lon="3.61907">
        <ele>678.49892666667</ele>
        <time>2017-04-10T13:18:49Z</time>
      </trkpt>
      <trkpt lat="45.92482" lon="3.61912">
        <ele>676.39926</ele>
        <time>2017-04-10T13:19:02Z</time>
      </trkpt>
      <trkpt lat="45.92488" lon="3.61918">
        <ele>664.99953333333</ele>
        <time>2017-04-10T13:19:06Z</time>
      </trkpt>
      <trkpt lat="45.92493" lon="3.61928">
        <ele>643.29973333333</ele>
        <time>2017-04-10T13:19:15Z</time>
      </trkpt>
      <trkpt lat="45.92501" lon="3.61922">
        <ele>634.00005333333</ele>
        <time>2017-04-10T13:19:20Z</time>
      </trkpt>
      <trkpt lat="45.92507" lon="3.61917">
        <ele>631.20028666667</ele>
        <time>2017-04-10T13:19:24Z</time>
      </trkpt>
      <trkpt lat="45.92513" lon="3.61911">
        <ele>628.20052666667</ele>
        <time>2017-04-10T13:19:28Z</time>
      </trkpt>
      <trkpt lat="45.92522" lon="3.61907">
        <ele>625.10086</ele>
        <time>2017-04-10T13:19:33Z</time>
      </trkpt>
      <trkpt lat="45.9253" lon="3.61904">
        <ele>623.3012</ele>
        <time>2017-04-10T13:19:38Z</time>
      </trkpt>
      <trkpt lat="45.92543" lon="3.61897">
        <ele>620.60171333333</ele>
        <time>2017-04-10T13:19:42Z</time>
      </trkpt>
      <trkpt lat="45.92547" lon="3.61895">
        <ele>619.60186</ele>
        <time>2017-04-10T13:19:47Z</time>
      </trkpt>
      <trkpt lat="45.9255" lon="3.61882">
        <ele>616.802</ele>
        <time>2017-04-10T13:19:51Z</time>
      </trkpt>
      <trkpt lat="45.92551" lon="3.61871">
        <ele>616.10204666667</ele>
        <time>2017-04-10T13:19:57Z</time>
      </trkpt>
      <trkpt lat="45.92553" lon="3.61859">
        <ele>616.30211333333</ele>
        <time>2017-04-10T13:20:01Z</time>
      </trkpt>
      <trkpt lat="45.92554" lon="3.6185">
        <ele>616.20217333333</ele>
        <time>2017-04-10T13:20:05Z</time>
      </trkpt>
      <trkpt lat="45.92556" lon="3.61838">
        <ele>616.20225333333</ele>
        <time>2017-04-10T13:20:10Z</time>
      </trkpt>
      <trkpt lat="45.92559" lon="3.61831">
        <ele>616.20235333333</ele>
        <time>2017-04-10T13:20:16Z</time>
      </trkpt>
      <trkpt lat="45.92561" lon="3.61821">
        <ele>615.70242666667</ele>
        <time>2017-04-10T13:20:20Z</time>
      </trkpt>
      <trkpt lat="45.92566" lon="3.61811">
        <ele>615.20264</ele>
        <time>2017-04-10T13:20:26Z</time>
      </trkpt>
      <trkpt lat="45.9257" lon="3.61802">
        <ele>615.30278666667</ele>
        <time>2017-04-10T13:20:30Z</time>
      </trkpt>
      <trkpt lat="45.92572" lon="3.61797">
        <ele>615.70288</ele>
        <time>2017-04-10T13:20:32Z</time>
      </trkpt>
      <trkpt lat="45.92577" lon="3.61784">
        <ele>616.30308</ele>
        <time>2017-04-10T13:20:39Z</time>
      </trkpt>
      <trkpt lat="45.92581" lon="3.61776">
        <ele>617.10325333333</ele>
        <time>2017-04-10T13:20:43Z</time>
      </trkpt>
      <trkpt lat="45.92584" lon="3.61772">
        <ele>618.30336666667</ele>
        <time>2017-04-10T13:20:46Z</time>
      </trkpt>
      <trkpt lat="45.92589" lon="3.61765">
        <ele>620.50354666667</ele>
        <time>2017-04-10T13:20:53Z</time>
      </trkpt>
      <trkpt lat="45.92594" lon="3.61756">
        <ele>621.20375333333</ele>
        <time>2017-04-10T13:20:58Z</time>
      </trkpt>
      <trkpt lat="45.92599" lon="3.61748">
        <ele>623.10397333333</ele>
        <time>2017-04-10T13:21:04Z</time>
      </trkpt>
      <trkpt lat="45.92604" lon="3.61738">
        <ele>624.20416666667</ele>
        <time>2017-04-10T13:21:09Z</time>
      </trkpt>
      <trkpt lat="45.92608" lon="3.61734">
        <ele>625.00430666667</ele>
        <time>2017-04-10T13:21:11Z</time>
      </trkpt>
      <trkpt lat="45.92614" lon="3.61728">
        <ele>626.50456</ele>
        <time>2017-04-10T13:21:17Z</time>
      </trkpt>
      <trkpt lat="45.92624" lon="3.61718">
        <ele>628.50494</ele>
        <time>2017-04-10T13:21:26Z</time>
      </trkpt>
      <trkpt lat="45.92631" lon="3.61713">
        <ele>629.90524666667</ele>
        <time>2017-04-10T13:21:33Z</time>
      </trkpt>
      <trkpt lat="45.9264" lon="3.61701">
        <ele>630.90559333333</ele>
        <time>2017-04-10T13:21:38Z</time>
      </trkpt>
      <trkpt lat="45.92648" lon="3.61696">
        <ele>632.7059</ele>
        <time>2017-04-10T13:21:43Z</time>
      </trkpt>
      <trkpt lat="45.92653" lon="3.61693">
        <ele>632.90610666667</ele>
        <time>2017-04-10T13:21:50Z</time>
      </trkpt>
      <trkpt lat="45.92661" lon="3.61688">
        <ele>633.40643333333</ele>
        <time>2017-04-10T13:21:52Z</time>
      </trkpt>
      <trkpt lat="45.92669" lon="3.61684">
        <ele>634.90677333333</ele>
        <time>2017-04-10T13:22:00Z</time>
      </trkpt>
      <trkpt lat="45.92677" lon="3.61681">
        <ele>636.10709333333</ele>
        <time>2017-04-10T13:22:05Z</time>
      </trkpt>
      <trkpt lat="45.92685" lon="3.61678">
        <ele>637.20738666667</ele>
        <time>2017-04-10T13:22:11Z</time>
      </trkpt>
      <trkpt lat="45.92692" lon="3.61685">
        <ele>641.20766666667</ele>
        <time>2017-04-10T13:22:20Z</time>
      </trkpt>
      <trkpt lat="45.92694" lon="3.61697">
        <ele>640.70774666667</ele>
        <time>2017-04-10T13:22:24Z</time>
      </trkpt>
      <trkpt lat="45.92692" lon="3.61706">
        <ele>639.90768666667</ele>
        <time>2017-04-10T13:22:28Z</time>
      </trkpt>
      <trkpt lat="45.9269" lon="3.61715">
        <ele>638.9076</ele>
        <time>2017-04-10T13:22:32Z</time>
      </trkpt>
      <trkpt lat="45.92688" lon="3.61726">
        <ele>638.50751333333</ele>
        <time>2017-04-10T13:22:38Z</time>
      </trkpt>
      <trkpt lat="45.92686" lon="3.61744">
        <ele>637.90742666667</ele>
        <time>2017-04-10T13:22:42Z</time>
      </trkpt>
      <trkpt lat="45.92684" lon="3.61755">
        <ele>637.40736666667</ele>
        <time>2017-04-10T13:22:46Z</time>
      </trkpt>
      <trkpt lat="45.92683" lon="3.61765">
        <ele>636.7073</ele>
        <time>2017-04-10T13:22:50Z</time>
      </trkpt>
      <trkpt lat="45.92679" lon="3.61783">
        <ele>635.50716666667</ele>
        <time>2017-04-10T13:22:55Z</time>
      </trkpt>
      <trkpt lat="45.92679" lon="3.61786">
        <ele>635.40714</ele>
        <time>2017-04-10T13:22:56Z</time>
      </trkpt>
      <trkpt lat="45.92676" lon="3.61799">
        <ele>635.00704666667</ele>
        <time>2017-04-10T13:23:00Z</time>
      </trkpt>
      <trkpt lat="45.92674" lon="3.61815">
        <ele>634.90694666667</ele>
        <time>2017-04-10T13:23:05Z</time>
      </trkpt>
      <trkpt lat="45.92674" lon="3.61826">
        <ele>635.10694666667</ele>
        <time>2017-04-10T13:23:09Z</time>
      </trkpt>
      <trkpt lat="45.92674" lon="3.61837">
        <ele>635.30696</ele>
        <time>2017-04-10T13:23:12Z</time>
      </trkpt>
      <trkpt lat="45.92674" lon="3.61847">
        <ele>635.70697333333</ele>
        <time>2017-04-10T13:23:25Z</time>
      </trkpt>
      <trkpt lat="45.92677" lon="3.61877">
        <ele>636.90706666667</ele>
        <time>2017-04-10T13:23:30Z</time>
      </trkpt>
      <trkpt lat="45.92677" lon="3.61891">
        <ele>636.60709333333</ele>
        <time>2017-04-10T13:23:35Z</time>
      </trkpt>
      <trkpt lat="45.92678" lon="3.61902">
        <ele>636.20713333333</ele>
        <time>2017-04-10T13:23:41Z</time>
      </trkpt>
      <trkpt lat="45.92679" lon="3.61909">
        <ele>636.10716666667</ele>
        <time>2017-04-10T13:23:43Z</time>
      </trkpt>
      <trkpt lat="45.9268" lon="3.61926">
        <ele>636.00718666667</ele>
        <time>2017-04-10T13:23:49Z</time>
      </trkpt>
      <trkpt lat="45.9268" lon="3.61931">
        <ele>636.20720666667</ele>
        <time>2017-04-10T13:23:51Z</time>
      </trkpt>
      <trkpt lat="45.92682" lon="3.61955">
        <ele>636.90726</ele>
        <time>2017-04-10T13:24:00Z</time>
      </trkpt>
      <trkpt lat="45.92682" lon="3.61965">
        <ele>637.40728</ele>
        <time>2017-04-10T13:24:04Z</time>
      </trkpt>
      <trkpt lat="45.92683" lon="3.61975">
        <ele>638.00730666667</ele>
        <time>2017-04-10T13:24:08Z</time>
      </trkpt>
      <trkpt lat="45.92685" lon="3.61988">
        <ele>638.50739333333</ele>
        <time>2017-04-10T13:24:13Z</time>
      </trkpt>
      <trkpt lat="45.92687" lon="3.61997">
        <ele>638.90749333333</ele>
        <time>2017-04-10T13:24:18Z</time>
      </trkpt>
      <trkpt lat="45.92689" lon="3.62011">
        <ele>639.50755333333</ele>
        <time>2017-04-10T13:24:23Z</time>
      </trkpt>
      <trkpt lat="45.9269" lon="3.62021">
        <ele>639.90761333333</ele>
        <time>2017-04-10T13:24:28Z</time>
      </trkpt>
      <trkpt lat="45.92691" lon="3.62026">
        <ele>639.90763333333</ele>
        <time>2017-04-10T13:24:32Z</time>
      </trkpt>
      <trkpt lat="45.92693" lon="3.62042">
        <ele>640.5077</ele>
        <time>2017-04-10T13:24:37Z</time>
      </trkpt>
      <trkpt lat="45.92693" lon="3.6205">
        <ele>641.00772</ele>
        <time>2017-04-10T13:24:41Z</time>
      </trkpt>
      <trkpt lat="45.92694" lon="3.6206">
        <ele>641.60776666667</ele>
        <time>2017-04-10T13:24:45Z</time>
      </trkpt>
      <trkpt lat="45.92698" lon="3.62076">
        <ele>643.7079</ele>
        <time>2017-04-10T13:24:53Z</time>
      </trkpt>
      <trkpt lat="45.92698" lon="3.62079">
        <ele>644.40792</ele>
        <time>2017-04-10T13:24:55Z</time>
      </trkpt>
      <trkpt lat="45.92699" lon="3.62089">
        <ele>645.50797333333</ele>
        <time>2017-04-10T13:25:00Z</time>
      </trkpt>
      <trkpt lat="45.92701" lon="3.62099">
        <ele>645.90804666667</ele>
        <time>2017-04-10T13:25:05Z</time>
      </trkpt>
      <trkpt lat="45.92703" lon="3.62109">
        <ele>647.10810666667</ele>
        <time>2017-04-10T13:25:11Z</time>
      </trkpt>
      <trkpt lat="45.92705" lon="3.62122">
        <ele>648.20820666667</ele>
        <time>2017-04-10T13:25:15Z</time>
      </trkpt>
      <trkpt lat="45.92707" lon="3.62129">
        <ele>648.60826</ele>
        <time>2017-04-10T13:25:20Z</time>
      </trkpt>
      <trkpt lat="45.92711" lon="3.62144">
        <ele>649.00842</ele>
        <time>2017-04-10T13:25:25Z</time>
      </trkpt>
      <trkpt lat="45.92712" lon="3.62149">
        <ele>649.30847333333</ele>
        <time>2017-04-10T13:25:27Z</time>
      </trkpt>
      <trkpt lat="45.92716" lon="3.62167">
        <ele>650.10865333333</ele>
        <time>2017-04-10T13:25:38Z</time>
      </trkpt>
      <trkpt lat="45.92719" lon="3.62182">
        <ele>650.60875333333</ele>
        <time>2017-04-10T13:25:41Z</time>
      </trkpt>
      <trkpt lat="45.92719" lon="3.62191">
        <ele>651.10875333333</ele>
        <time>2017-04-10T13:25:56Z</time>
      </trkpt>
      <trkpt lat="45.92706" lon="3.62213">
        <ele>653.50824666667</ele>
        <time>2017-04-10T13:26:00Z</time>
      </trkpt>
      <trkpt lat="45.92701" lon="3.62219">
        <ele>653.80804666667</ele>
        <time>2017-04-10T13:26:04Z</time>
      </trkpt>
      <trkpt lat="45.92698" lon="3.62222">
        <ele>653.90793333333</ele>
        <time>2017-04-10T13:26:10Z</time>
      </trkpt>
      <trkpt lat="45.92687" lon="3.62235">
        <ele>654.60747333333</ele>
        <time>2017-04-10T13:26:15Z</time>
      </trkpt>
      <trkpt lat="45.92683" lon="3.62241">
        <ele>654.80730666667</ele>
        <time>2017-04-10T13:26:19Z</time>
      </trkpt>
      <trkpt lat="45.92677" lon="3.62251">
        <ele>655.30709333333</ele>
        <time>2017-04-10T13:26:24Z</time>
      </trkpt>
      <trkpt lat="45.92676" lon="3.62254">
        <ele>655.40702666667</ele>
        <time>2017-04-10T13:26:26Z</time>
      </trkpt>
      <trkpt lat="45.92671" lon="3.62261">
        <ele>655.80684666667</ele>
        <time>2017-04-10T13:26:32Z</time>
      </trkpt>
      <trkpt lat="45.92666" lon="3.62266">
        <ele>656.30665333333</ele>
        <time>2017-04-10T13:26:35Z</time>
      </trkpt>
      <trkpt lat="45.92658" lon="3.62272">
        <ele>656.90633333333</ele>
        <time>2017-04-10T13:26:41Z</time>
      </trkpt>
      <trkpt lat="45.92653" lon="3.62277">
        <ele>657.40611333333</ele>
        <time>2017-04-10T13:26:45Z</time>
      </trkpt>
      <trkpt lat="45.92646" lon="3.62281">
        <ele>658.60584666667</ele>
        <time>2017-04-10T13:26:50Z</time>
      </trkpt>
      <trkpt lat="45.92636" lon="3.62289">
        <ele>660.00542666667</ele>
        <time>2017-04-10T13:26:59Z</time>
      </trkpt>
      <trkpt lat="45.9263" lon="3.62295">
        <ele>660.90518666667</ele>
        <time>2017-04-10T13:27:03Z</time>
      </trkpt>
      <trkpt lat="45.92623" lon="3.62301">
        <ele>662.10492</ele>
        <time>2017-04-10T13:27:10Z</time>
      </trkpt>
      <trkpt lat="45.92619" lon="3.62307">
        <ele>663.00476</ele>
        <time>2017-04-10T13:27:13Z</time>
      </trkpt>
      <trkpt lat="45.92614" lon="3.62315">
        <ele>664.30454</ele>
        <time>2017-04-10T13:27:21Z</time>
      </trkpt>
      <trkpt lat="45.92608" lon="3.62324">
        <ele>665.20432666667</ele>
        <time>2017-04-10T13:27:27Z</time>
      </trkpt>
      <trkpt lat="45.92607" lon="3.62327">
        <ele>665.60426</ele>
        <time>2017-04-10T13:27:37Z</time>
      </trkpt>
      <trkpt lat="45.92599" lon="3.62346">
        <ele>667.30396666667</ele>
        <time>2017-04-10T13:27:41Z</time>
      </trkpt>
      <trkpt lat="45.92595" lon="3.62356">
        <ele>667.30378666667</ele>
        <time>2017-04-10T13:28:24Z</time>
      </trkpt>
      <trkpt lat="45.92594" lon="3.62368">
        <ele>666.50376666667</ele>
        <time>2017-04-10T13:28:32Z</time>
      </trkpt>
      <trkpt lat="45.92597" lon="3.62381">
        <ele>666.40388666667</ele>
        <time>2017-04-10T13:29:11Z</time>
      </trkpt>
      <trkpt lat="45.92602" lon="3.62388">
        <ele>667.50408666667</ele>
        <time>2017-04-10T13:29:17Z</time>
      </trkpt>
      <trkpt lat="45.92608" lon="3.62396">
        <ele>668.9043</ele>
        <time>2017-04-10T13:29:23Z</time>
      </trkpt>
      <trkpt lat="45.92614" lon="3.62405">
        <ele>670.10454666667</ele>
        <time>2017-04-10T13:29:29Z</time>
      </trkpt>
      <trkpt lat="45.9262" lon="3.62412">
        <ele>671.90478</ele>
        <time>2017-04-10T13:29:35Z</time>
      </trkpt>
      <trkpt lat="45.92627" lon="3.62418">
        <ele>673.20506</ele>
        <time>2017-04-10T13:29:41Z</time>
      </trkpt>
      <trkpt lat="45.92634" lon="3.62424">
        <ele>674.80535333333</ele>
        <time>2017-04-10T13:29:47Z</time>
      </trkpt>
      <trkpt lat="45.92642" lon="3.62429">
        <ele>676.20566666667</ele>
        <time>2017-04-10T13:29:53Z</time>
      </trkpt>
      <trkpt lat="45.92648" lon="3.62432">
        <ele>677.0059</ele>
        <time>2017-04-10T13:29:57Z</time>
      </trkpt>
      <trkpt lat="45.92655" lon="3.62436">
        <ele>678.60618666667</ele>
        <time>2017-04-10T13:30:02Z</time>
      </trkpt>
      <trkpt lat="45.92658" lon="3.62438">
        <ele>679.30631333333</ele>
        <time>2017-04-10T13:30:08Z</time>
      </trkpt>
      <trkpt lat="45.92672" lon="3.62441">
        <ele>682.00686666667</ele>
        <time>2017-04-10T13:30:12Z</time>
      </trkpt>
      <trkpt lat="45.92679" lon="3.62439">
        <ele>682.50717333333</ele>
        <time>2017-04-10T13:30:19Z</time>
      </trkpt>
      <trkpt lat="45.92689" lon="3.62438">
        <ele>682.80756666667</ele>
        <time>2017-04-10T13:30:23Z</time>
      </trkpt>
      <trkpt lat="45.92694" lon="3.6244">
        <ele>683.00774</ele>
        <time>2017-04-10T13:30:25Z</time>
      </trkpt>
      <trkpt lat="45.92702" lon="3.62443">
        <ele>683.70809333333</ele>
        <time>2017-04-10T13:30:30Z</time>
      </trkpt>
      <trkpt lat="45.92712" lon="3.62443">
        <ele>684.70846</ele>
        <time>2017-04-10T13:30:34Z</time>
      </trkpt>
      <trkpt lat="45.92729" lon="3.62443">
        <ele>686.60914</ele>
        <time>2017-04-10T13:30:41Z</time>
      </trkpt>
      <trkpt lat="45.92734" lon="3.62444">
        <ele>687.50935333333</ele>
        <time>2017-04-10T13:30:42Z</time>
      </trkpt>
      <trkpt lat="45.92764" lon="3.62445">
        <ele>691.61054</ele>
        <time>2017-04-10T13:30:56Z</time>
      </trkpt>
      <trkpt lat="45.92781" lon="3.62445">
        <ele>694.01124</ele>
        <time>2017-04-10T13:31:01Z</time>
      </trkpt>
      <trkpt lat="45.92789" lon="3.62445">
        <ele>694.21154666667</ele>
        <time>2017-04-10T13:31:05Z</time>
      </trkpt>
      <trkpt lat="45.92802" lon="3.62446">
        <ele>694.01207333333</ele>
        <time>2017-04-10T13:31:08Z</time>
      </trkpt>
      <trkpt lat="45.92812" lon="3.62446">
        <ele>694.21248666667</ele>
        <time>2017-04-10T13:31:13Z</time>
      </trkpt>
      <trkpt lat="45.92823" lon="3.62448">
        <ele>694.11290666667</ele>
        <time>2017-04-10T13:31:17Z</time>
      </trkpt>
      <trkpt lat="45.92833" lon="3.62451">
        <ele>694.11331333333</ele>
        <time>2017-04-10T13:31:21Z</time>
      </trkpt>
      <trkpt lat="45.9284" lon="3.62455">
        <ele>694.21359333333</ele>
        <time>2017-04-10T13:31:24Z</time>
      </trkpt>
      <trkpt lat="45.92844" lon="3.62458">
        <ele>694.31376666667</ele>
        <time>2017-04-10T13:31:26Z</time>
      </trkpt>
      <trkpt lat="45.9285" lon="3.62465">
        <ele>694.31400666667</ele>
        <time>2017-04-10T13:31:29Z</time>
      </trkpt>
      <trkpt lat="45.92854" lon="3.62469">
        <ele>694.31417333333</ele>
        <time>2017-04-10T13:31:31Z</time>
      </trkpt>
      <trkpt lat="45.92862" lon="3.62477">
        <ele>695.11448</ele>
        <time>2017-04-10T13:31:35Z</time>
      </trkpt>
      <trkpt lat="45.92871" lon="3.62483">
        <ele>698.01483333333</ele>
        <time>2017-04-10T13:31:40Z</time>
      </trkpt>
      <trkpt lat="45.92876" lon="3.62484">
        <ele>700.81504666667</ele>
        <time>2017-04-10T13:31:42Z</time>
      </trkpt>
      <trkpt lat="45.92892" lon="3.62486">
        <ele>702.91568666667</ele>
        <time>2017-04-10T13:31:51Z</time>
      </trkpt>
      <trkpt lat="45.92904" lon="3.62487">
        <ele>703.31615333333</ele>
        <time>2017-04-10T13:31:55Z</time>
      </trkpt>
      <trkpt lat="45.92916" lon="3.62489">
        <ele>702.91664</ele>
        <time>2017-04-10T13:31:59Z</time>
      </trkpt>
      <trkpt lat="45.92924" lon="3.62488">
        <ele>702.81696666667</ele>
        <time>2017-04-10T13:32:06Z</time>
      </trkpt>
      <trkpt lat="45.92941" lon="3.62484">
        <ele>702.21765333333</ele>
        <time>2017-04-10T13:32:10Z</time>
      </trkpt>
      <trkpt lat="45.92946" lon="3.62482">
        <ele>702.21782</ele>
        <time>2017-04-10T13:32:12Z</time>
      </trkpt>
      <trkpt lat="45.92953" lon="3.62474">
        <ele>701.51810666667</ele>
        <time>2017-04-10T13:32:17Z</time>
      </trkpt>
      <trkpt lat="45.92956" lon="3.62464">
        <ele>702.11824</ele>
        <time>2017-04-10T13:32:28Z</time>
      </trkpt>
      <trkpt lat="45.92965" lon="3.62433">
        <ele>705.41861333333</ele>
        <time>2017-04-10T13:32:32Z</time>
      </trkpt>
      <trkpt lat="45.92972" lon="3.62422">
        <ele>707.31888</ele>
        <time>2017-04-10T13:32:36Z</time>
      </trkpt>
      <trkpt lat="45.92981" lon="3.62411">
        <ele>708.31922666667</ele>
        <time>2017-04-10T13:32:40Z</time>
      </trkpt>
      <trkpt lat="45.9299" lon="3.62399">
        <ele>710.11959333333</ele>
        <time>2017-04-10T13:32:45Z</time>
      </trkpt>
      <trkpt lat="45.92996" lon="3.6239">
        <ele>711.61982</ele>
        <time>2017-04-10T13:32:50Z</time>
      </trkpt>
      <trkpt lat="45.92999" lon="3.62384">
        <ele>713.21994666667</ele>
        <time>2017-04-10T13:32:50Z</time>
      </trkpt>
      <trkpt lat="45.93007" lon="3.62372">
        <ele>715.92028666667</ele>
        <time>2017-04-10T13:32:55Z</time>
      </trkpt>
      <trkpt lat="45.93014" lon="3.62364">
        <ele>716.82056666667</ele>
        <time>2017-04-10T13:32:59Z</time>
      </trkpt>
      <trkpt lat="45.93029" lon="3.62348">
        <ele>719.92114666667</ele>
        <time>2017-04-10T13:33:06Z</time>
      </trkpt>
      <trkpt lat="45.93037" lon="3.62337">
        <ele>721.82149333333</ele>
        <time>2017-04-10T13:33:10Z</time>
      </trkpt>
      <trkpt lat="45.93046" lon="3.62326">
        <ele>725.12184</ele>
        <time>2017-04-10T13:33:15Z</time>
      </trkpt>
      <trkpt lat="45.93054" lon="3.62317">
        <ele>726.62215333333</ele>
        <time>2017-04-10T13:33:19Z</time>
      </trkpt>
      <trkpt lat="45.93067" lon="3.62304">
        <ele>729.22266</ele>
        <time>2017-04-10T13:33:25Z</time>
      </trkpt>
      <trkpt lat="45.93081" lon="3.62295">
        <ele>729.72325333333</ele>
        <time>2017-04-10T13:33:30Z</time>
      </trkpt>
      <trkpt lat="45.93092" lon="3.62289">
        <ele>729.32366</ele>
        <time>2017-04-10T13:33:33Z</time>
      </trkpt>
      <trkpt lat="45.93099" lon="3.62284">
        <ele>730.12396</ele>
        <time>2017-04-10T13:33:36Z</time>
      </trkpt>
      <trkpt lat="45.9311" lon="3.62278">
        <ele>731.82440666667</ele>
        <time>2017-04-10T13:33:41Z</time>
      </trkpt>
      <trkpt lat="45.93114" lon="3.62275">
        <ele>732.22456666667</ele>
        <time>2017-04-10T13:33:42Z</time>
      </trkpt>
      <trkpt lat="45.93133" lon="3.62267">
        <ele>730.92532</ele>
        <time>2017-04-10T13:33:50Z</time>
      </trkpt>
      <trkpt lat="45.93146" lon="3.62261">
        <ele>732.82582</ele>
        <time>2017-04-10T13:33:55Z</time>
      </trkpt>
      <trkpt lat="45.93155" lon="3.62259">
        <ele>732.32618</ele>
        <time>2017-04-10T13:33:58Z</time>
      </trkpt>
      <trkpt lat="45.93172" lon="3.62257">
        <ele>731.92687333333</ele>
        <time>2017-04-10T13:34:03Z</time>
      </trkpt>
      <trkpt lat="45.93187" lon="3.62266">
        <ele>728.82747333333</ele>
        <time>2017-04-10T13:34:07Z</time>
      </trkpt>
      <trkpt lat="45.93188" lon="3.62276">
        <ele>729.02751333333</ele>
        <time>2017-04-10T13:34:11Z</time>
      </trkpt>
      <trkpt lat="45.9319" lon="3.62288">
        <ele>730.02758666667</ele>
        <time>2017-04-10T13:34:17Z</time>
      </trkpt>
      <trkpt lat="45.93189" lon="3.62306">
        <ele>732.92754666667</ele>
        <time>2017-04-10T13:34:27Z</time>
      </trkpt>
      <trkpt lat="45.93188" lon="3.62312">
        <ele>734.02753333333</ele>
        <time>2017-04-10T13:34:29Z</time>
      </trkpt>
      <trkpt lat="45.93181" lon="3.62331">
        <ele>734.82724666667</ele>
        <time>2017-04-10T13:34:37Z</time>
      </trkpt>
      <trkpt lat="45.9318" lon="3.62343">
        <ele>736.8272</ele>
        <time>2017-04-10T13:34:44Z</time>
      </trkpt>
      <trkpt lat="45.93177" lon="3.62354">
        <ele>737.92708666667</ele>
        <time>2017-04-10T13:34:50Z</time>
      </trkpt>
      <trkpt lat="45.93176" lon="3.62362">
        <ele>739.12703333333</ele>
        <time>2017-04-10T13:34:55Z</time>
      </trkpt>
      <trkpt lat="45.93172" lon="3.62371">
        <ele>741.02688666667</ele>
        <time>2017-04-10T13:34:59Z</time>
      </trkpt>
      <trkpt lat="45.93169" lon="3.62383">
        <ele>741.92676666667</ele>
        <time>2017-04-10T13:35:05Z</time>
      </trkpt>
      <trkpt lat="45.93164" lon="3.62396">
        <ele>744.12656</ele>
        <time>2017-04-10T13:35:09Z</time>
      </trkpt>
      <trkpt lat="45.93162" lon="3.62405">
        <ele>745.62646</ele>
        <time>2017-04-10T13:35:12Z</time>
      </trkpt>
      <trkpt lat="45.93158" lon="3.62416">
        <ele>748.22632666667</ele>
        <time>2017-04-10T13:35:18Z</time>
      </trkpt>
      <trkpt lat="45.93154" lon="3.62427">
        <ele>752.02616666667</ele>
        <time>2017-04-10T13:35:26Z</time>
      </trkpt>
      <trkpt lat="45.93153" lon="3.6243">
        <ele>753.22611333333</ele>
        <time>2017-04-10T13:35:27Z</time>
      </trkpt>
      <trkpt lat="45.93146" lon="3.6245">
        <ele>757.62582666667</ele>
        <time>2017-04-10T13:35:37Z</time>
      </trkpt>
      <trkpt lat="45.93143" lon="3.62457">
        <ele>759.22570666667</ele>
        <time>2017-04-10T13:35:41Z</time>
      </trkpt>
      <trkpt lat="45.9314" lon="3.62468">
        <ele>761.6256</ele>
        <time>2017-04-10T13:35:46Z</time>
      </trkpt>
      <trkpt lat="45.93138" lon="3.6248">
        <ele>760.82551333333</ele>
        <time>2017-04-10T13:35:49Z</time>
      </trkpt>
      <trkpt lat="45.93133" lon="3.62491">
        <ele>761.22533333333</ele>
        <time>2017-04-10T13:35:55Z</time>
      </trkpt>
      <trkpt lat="45.93129" lon="3.62502">
        <ele>761.42515333333</ele>
        <time>2017-04-10T13:36:00Z</time>
      </trkpt>
      <trkpt lat="45.93125" lon="3.62514">
        <ele>761.425</ele>
        <time>2017-04-10T13:36:05Z</time>
      </trkpt>
      <trkpt lat="45.93121" lon="3.62521">
        <ele>761.92484666667</ele>
        <time>2017-04-10T13:36:08Z</time>
      </trkpt>
      <trkpt lat="45.93114" lon="3.62529">
        <ele>763.42456666667</ele>
        <time>2017-04-10T13:36:13Z</time>
      </trkpt>
      <trkpt lat="45.93111" lon="3.62528">
        <ele>762.52442666667</ele>
        <time>2017-04-10T13:36:21Z</time>
      </trkpt>
      <trkpt lat="45.93101" lon="3.6253">
        <ele>757.12402</ele>
        <time>2017-04-10T13:36:26Z</time>
      </trkpt>
      <trkpt lat="45.93102" lon="3.6254">
        <ele>746.92406</ele>
        <time>2017-04-10T13:38:00Z</time>
      </trkpt>
      <trkpt lat="45.93102" lon="3.6254">
        <ele>746.92406</ele>
        <time>2017-04-10T13:38:00Z</time>
      </trkpt>
      <trkpt lat="45.93098" lon="3.62536">
        <ele>738.72392666667</ele>
        <time>2017-04-10T13:41:46Z</time>
      </trkpt>
      <trkpt lat="45.93098" lon="3.62536">
        <ele>738.72392666667</ele>
        <time>2017-04-10T13:41:52Z</time>
      </trkpt>
      <trkpt lat="45.93106" lon="3.62543">
        <ele>739.32424666667</ele>
        <time>2017-04-10T13:41:56Z</time>
      </trkpt>
      <trkpt lat="45.93106" lon="3.62544">
        <ele>739.32425333333</ele>
        <time>2017-04-10T13:42:22Z</time>
      </trkpt>
      <trkpt lat="45.93096" lon="3.62533">
        <ele>741.72384</ele>
        <time>2017-04-10T13:42:26Z</time>
      </trkpt>
      <trkpt lat="45.93095" lon="3.62544">
        <ele>742.52379333333</ele>
        <time>2017-04-10T13:42:43Z</time>
      </trkpt>
      <trkpt lat="45.93093" lon="3.6255">
        <ele>743.0237</ele>
        <time>2017-04-10T13:42:48Z</time>
      </trkpt>
      <trkpt lat="45.9309" lon="3.62557">
        <ele>744.12361333333</ele>
        <time>2017-04-10T13:42:50Z</time>
      </trkpt>
      <trkpt lat="45.93091" lon="3.62568">
        <ele>746.72362666667</ele>
        <time>2017-04-10T13:42:57Z</time>
      </trkpt>
      <trkpt lat="45.93087" lon="3.62577">
        <ele>749.02348</ele>
        <time>2017-04-10T13:43:03Z</time>
      </trkpt>
      <trkpt lat="45.93083" lon="3.62586">
        <ele>751.3233</ele>
        <time>2017-04-10T13:43:04Z</time>
      </trkpt>
      <trkpt lat="45.93071" lon="3.62603">
        <ele>757.22282666667</ele>
        <time>2017-04-10T13:43:10Z</time>
      </trkpt>
      <trkpt lat="45.93066" lon="3.6261">
        <ele>758.42264</ele>
        <time>2017-04-10T13:43:12Z</time>
      </trkpt>
      <trkpt lat="45.9306" lon="3.62619">
        <ele>760.82241333333</ele>
        <time>2017-04-10T13:43:16Z</time>
      </trkpt>
      <trkpt lat="45.93053" lon="3.62629">
        <ele>764.32210666667</ele>
        <time>2017-04-10T13:43:21Z</time>
      </trkpt>
      <trkpt lat="45.93047" lon="3.62639">
        <ele>764.92186</ele>
        <time>2017-04-10T13:43:25Z</time>
      </trkpt>
      <trkpt lat="45.93035" lon="3.62655">
        <ele>767.8214</ele>
        <time>2017-04-10T13:43:32Z</time>
      </trkpt>
      <trkpt lat="45.93027" lon="3.62662">
        <ele>767.72108666667</ele>
        <time>2017-04-10T13:43:37Z</time>
      </trkpt>
      <trkpt lat="45.93019" lon="3.62673">
        <ele>765.92074666667</ele>
        <time>2017-04-10T13:43:41Z</time>
      </trkpt>
      <trkpt lat="45.93011" lon="3.6268">
        <ele>765.92042666667</ele>
        <time>2017-04-10T13:43:44Z</time>
      </trkpt>
      <trkpt lat="45.93001" lon="3.62687">
        <ele>765.12002666667</ele>
        <time>2017-04-10T13:43:48Z</time>
      </trkpt>
      <trkpt lat="45.92992" lon="3.62696">
        <ele>765.01968</ele>
        <time>2017-04-10T13:43:53Z</time>
      </trkpt>
      <trkpt lat="45.92982" lon="3.62706">
        <ele>763.11927333333</ele>
        <time>2017-04-10T13:43:56Z</time>
      </trkpt>
      <trkpt lat="45.92975" lon="3.62714">
        <ele>760.21898</ele>
        <time>2017-04-10T13:43:59Z</time>
      </trkpt>
      <trkpt lat="45.92964" lon="3.6273">
        <ele>756.91857333333</ele>
        <time>2017-04-10T13:44:03Z</time>
      </trkpt>
      <trkpt lat="45.92959" lon="3.62753">
        <ele>753.71834666667</ele>
        <time>2017-04-10T13:44:07Z</time>
      </trkpt>
      <trkpt lat="45.92954" lon="3.62785">
        <ele>750.31814</ele>
        <time>2017-04-10T13:44:12Z</time>
      </trkpt>
      <trkpt lat="45.92952" lon="3.62795">
        <ele>750.11807333333</ele>
        <time>2017-04-10T13:44:17Z</time>
      </trkpt>
      <trkpt lat="45.92944" lon="3.62857">
        <ele>749.61776666667</ele>
        <time>2017-04-10T13:44:21Z</time>
      </trkpt>
      <trkpt lat="45.92934" lon="3.62891">
        <ele>751.21735333333</ele>
        <time>2017-04-10T13:44:30Z</time>
      </trkpt>
      <trkpt lat="45.92921" lon="3.62917">
        <ele>751.81684</ele>
        <time>2017-04-10T13:44:36Z</time>
      </trkpt>
      <trkpt lat="45.92916" lon="3.62926">
        <ele>751.91663333333</ele>
        <time>2017-04-10T13:44:39Z</time>
      </trkpt>
      <trkpt lat="45.92913" lon="3.62931">
        <ele>752.71652</ele>
        <time>2017-04-10T13:44:47Z</time>
      </trkpt>
      <trkpt lat="45.9289" lon="3.62956">
        <ele>754.41558666667</ele>
        <time>2017-04-10T13:44:50Z</time>
      </trkpt>
      <trkpt lat="45.92884" lon="3.62963">
        <ele>756.31535333333</ele>
        <time>2017-04-10T13:44:57Z</time>
      </trkpt>
      <trkpt lat="45.92876" lon="3.62975">
        <ele>759.41504</ele>
        <time>2017-04-10T13:45:02Z</time>
      </trkpt>
      <trkpt lat="45.92871" lon="3.62984">
        <ele>761.31485333333</ele>
        <time>2017-04-10T13:45:06Z</time>
      </trkpt>
      <trkpt lat="45.92861" lon="3.63001">
        <ele>765.41442</ele>
        <time>2017-04-10T13:45:10Z</time>
      </trkpt>
      <trkpt lat="45.92853" lon="3.63012">
        <ele>767.91412666667</ele>
        <time>2017-04-10T13:45:14Z</time>
      </trkpt>
      <trkpt lat="45.9284" lon="3.63029">
        <ele>769.81360666667</ele>
        <time>2017-04-10T13:45:18Z</time>
      </trkpt>
      <trkpt lat="45.92832" lon="3.63041">
        <ele>768.21329333333</ele>
        <time>2017-04-10T13:45:21Z</time>
      </trkpt>
      <trkpt lat="45.92822" lon="3.63074">
        <ele>766.31286666667</ele>
        <time>2017-04-10T13:45:27Z</time>
      </trkpt>
      <trkpt lat="45.92815" lon="3.63088">
        <ele>767.0126</ele>
        <time>2017-04-10T13:45:31Z</time>
      </trkpt>
      <trkpt lat="45.92807" lon="3.63094">
        <ele>768.21226666667</ele>
        <time>2017-04-10T13:45:35Z</time>
      </trkpt>
      <trkpt lat="45.9279" lon="3.63102">
        <ele>768.01159333333</ele>
        <time>2017-04-10T13:45:40Z</time>
      </trkpt>
      <trkpt lat="45.92775" lon="3.63112">
        <ele>768.311</ele>
        <time>2017-04-10T13:45:44Z</time>
      </trkpt>
      <trkpt lat="45.92765" lon="3.63115">
        <ele>767.31058</ele>
        <time>2017-04-10T13:45:47Z</time>
      </trkpt>
      <trkpt lat="45.92754" lon="3.63124">
        <ele>767.31017333333</ele>
        <time>2017-04-10T13:45:52Z</time>
      </trkpt>
      <trkpt lat="45.92743" lon="3.63131">
        <ele>767.10970666667</ele>
        <time>2017-04-10T13:45:56Z</time>
      </trkpt>
      <trkpt lat="45.92731" lon="3.63141">
        <ele>767.80924</ele>
        <time>2017-04-10T13:46:00Z</time>
      </trkpt>
      <trkpt lat="45.92716" lon="3.63153">
        <ele>767.60864</ele>
        <time>2017-04-10T13:46:04Z</time>
      </trkpt>
      <trkpt lat="45.92698" lon="3.63168">
        <ele>766.9079</ele>
        <time>2017-04-10T13:46:08Z</time>
      </trkpt>
      <trkpt lat="45.92685" lon="3.63173">
        <ele>766.50739333333</ele>
        <time>2017-04-10T13:46:12Z</time>
      </trkpt>
      <trkpt lat="45.92668" lon="3.63173">
        <ele>766.00672</ele>
        <time>2017-04-10T13:46:16Z</time>
      </trkpt>
      <trkpt lat="45.9266" lon="3.63177">
        <ele>765.70639333333</ele>
        <time>2017-04-10T13:46:19Z</time>
      </trkpt>
      <trkpt lat="45.92651" lon="3.6318">
        <ele>764.80602666667</ele>
        <time>2017-04-10T13:46:23Z</time>
      </trkpt>
      <trkpt lat="45.9264" lon="3.63186">
        <ele>763.50559333333</ele>
        <time>2017-04-10T13:46:27Z</time>
      </trkpt>
      <trkpt lat="45.92618" lon="3.63189">
        <ele>760.60473333333</ele>
        <time>2017-04-10T13:46:31Z</time>
      </trkpt>
      <trkpt lat="45.92611" lon="3.63192">
        <ele>760.10444</ele>
        <time>2017-04-10T13:46:34Z</time>
      </trkpt>
      <trkpt lat="45.92597" lon="3.63204">
        <ele>759.10389333333</ele>
        <time>2017-04-10T13:46:38Z</time>
      </trkpt>
      <trkpt lat="45.9259" lon="3.6322">
        <ele>759.20360666667</ele>
        <time>2017-04-10T13:46:42Z</time>
      </trkpt>
      <trkpt lat="45.9258" lon="3.6325">
        <ele>759.00318</ele>
        <time>2017-04-10T13:46:46Z</time>
      </trkpt>
      <trkpt lat="45.9257" lon="3.63272">
        <ele>758.40278666667</ele>
        <time>2017-04-10T13:46:49Z</time>
      </trkpt>
      <trkpt lat="45.92561" lon="3.63293">
        <ele>757.80242</ele>
        <time>2017-04-10T13:46:53Z</time>
      </trkpt>
      <trkpt lat="45.92554" lon="3.63306">
        <ele>757.50214</ele>
        <time>2017-04-10T13:46:57Z</time>
      </trkpt>
      <trkpt lat="45.92546" lon="3.63324">
        <ele>756.70182</ele>
        <time>2017-04-10T13:47:00Z</time>
      </trkpt>
      <trkpt lat="45.92533" lon="3.63355">
        <ele>754.70131333333</ele>
        <time>2017-04-10T13:47:08Z</time>
      </trkpt>
      <trkpt lat="45.92526" lon="3.63367">
        <ele>754.30104</ele>
        <time>2017-04-10T13:47:10Z</time>
      </trkpt>
      <trkpt lat="45.92524" lon="3.63371">
        <ele>753.80096</ele>
        <time>2017-04-10T13:47:18Z</time>
      </trkpt>
      <trkpt lat="45.92525" lon="3.63401">
        <ele>748.10098666667</ele>
        <time>2017-04-10T13:47:23Z</time>
      </trkpt>
      <trkpt lat="45.92529" lon="3.63407">
        <ele>747.60114</ele>
        <time>2017-04-10T13:47:26Z</time>
      </trkpt>
      <trkpt lat="45.92534" lon="3.63416">
        <ele>747.60136666667</ele>
        <time>2017-04-10T13:47:30Z</time>
      </trkpt>
      <trkpt lat="45.92538" lon="3.63422">
        <ele>747.80152666667</ele>
        <time>2017-04-10T13:47:33Z</time>
      </trkpt>
      <trkpt lat="45.92541" lon="3.63427">
        <ele>748.20163333333</ele>
        <time>2017-04-10T13:47:39Z</time>
      </trkpt>
      <trkpt lat="45.9255" lon="3.63441">
        <ele>747.80198666667</ele>
        <time>2017-04-10T13:47:40Z</time>
      </trkpt>
      <trkpt lat="45.92553" lon="3.63446">
        <ele>747.20211333333</ele>
        <time>2017-04-10T13:47:45Z</time>
      </trkpt>
      <trkpt lat="45.92565" lon="3.63464">
        <ele>747.1026</ele>
        <time>2017-04-10T13:47:50Z</time>
      </trkpt>
      <trkpt lat="45.92569" lon="3.63469">
        <ele>747.60274</ele>
        <time>2017-04-10T13:47:52Z</time>
      </trkpt>
      <trkpt lat="45.92582" lon="3.63482">
        <ele>748.30329333333</ele>
        <time>2017-04-10T13:48:00Z</time>
      </trkpt>
      <trkpt lat="45.9259" lon="3.63487">
        <ele>749.20361333333</ele>
        <time>2017-04-10T13:48:05Z</time>
      </trkpt>
      <trkpt lat="45.92598" lon="3.63489">
        <ele>750.70393333333</ele>
        <time>2017-04-10T13:48:13Z</time>
      </trkpt>
      <trkpt lat="45.92609" lon="3.63491">
        <ele>752.90434666667</ele>
        <time>2017-04-10T13:48:16Z</time>
      </trkpt>
      <trkpt lat="45.92614" lon="3.63493">
        <ele>753.60457333333</ele>
        <time>2017-04-10T13:48:19Z</time>
      </trkpt>
      <trkpt lat="45.92618" lon="3.63493">
        <ele>753.80472</ele>
        <time>2017-04-10T13:48:23Z</time>
      </trkpt>
      <trkpt lat="45.92629" lon="3.63496">
        <ele>755.00514666667</ele>
        <time>2017-04-10T13:48:27Z</time>
      </trkpt>
      <trkpt lat="45.92636" lon="3.63498">
        <ele>755.70543333333</ele>
        <time>2017-04-10T13:48:32Z</time>
      </trkpt>
      <trkpt lat="45.92645" lon="3.635">
        <ele>756.50578</ele>
        <time>2017-04-10T13:48:36Z</time>
      </trkpt>
      <trkpt lat="45.92654" lon="3.63502">
        <ele>757.80616666667</ele>
        <time>2017-04-10T13:48:41Z</time>
      </trkpt>
      <trkpt lat="45.92667" lon="3.63505">
        <ele>759.00668</ele>
        <time>2017-04-10T13:48:48Z</time>
      </trkpt>
      <trkpt lat="45.92672" lon="3.63505">
        <ele>759.70687333333</ele>
        <time>2017-04-10T13:48:59Z</time>
      </trkpt>
      <trkpt lat="45.92691" lon="3.63511">
        <ele>761.00763333333</ele>
        <time>2017-04-10T13:49:03Z</time>
      </trkpt>
      <trkpt lat="45.92693" lon="3.63512">
        <ele>761.1077</ele>
        <time>2017-04-10T13:49:13Z</time>
      </trkpt>
      <trkpt lat="45.9272" lon="3.63522">
        <ele>762.10880666667</ele>
        <time>2017-04-10T13:49:17Z</time>
      </trkpt>
      <trkpt lat="45.92739" lon="3.63526">
        <ele>764.60954666667</ele>
        <time>2017-04-10T13:49:21Z</time>
      </trkpt>
      <trkpt lat="45.92763" lon="3.63532">
        <ele>765.11051333333</ele>
        <time>2017-04-10T13:49:28Z</time>
      </trkpt>
      <trkpt lat="45.9277" lon="3.63533">
        <ele>765.3108</ele>
        <time>2017-04-10T13:49:30Z</time>
      </trkpt>
      <trkpt lat="45.92792" lon="3.63538">
        <ele>765.71168</ele>
        <time>2017-04-10T13:49:38Z</time>
      </trkpt>
      <trkpt lat="45.92811" lon="3.63544">
        <ele>765.81243333333</ele>
        <time>2017-04-10T13:49:42Z</time>
      </trkpt>
      <trkpt lat="45.92826" lon="3.63548">
        <ele>765.91304</ele>
        <time>2017-04-10T13:49:46Z</time>
      </trkpt>
      <trkpt lat="45.92838" lon="3.6355">
        <ele>765.91350666667</ele>
        <time>2017-04-10T13:49:49Z</time>
      </trkpt>
      <trkpt lat="45.92855" lon="3.63553">
        <ele>765.51418</ele>
        <time>2017-04-10T13:49:53Z</time>
      </trkpt>
      <trkpt lat="45.92874" lon="3.63557">
        <ele>765.01495333333</ele>
        <time>2017-04-10T13:49:57Z</time>
      </trkpt>
      <trkpt lat="45.92889" lon="3.6356">
        <ele>764.81557333333</ele>
        <time>2017-04-10T13:50:00Z</time>
      </trkpt>
      <trkpt lat="45.92914" lon="3.63572">
        <ele>764.71655333333</ele>
        <time>2017-04-10T13:50:05Z</time>
      </trkpt>
      <trkpt lat="45.92923" lon="3.63579">
        <ele>765.11691333333</ele>
        <time>2017-04-10T13:50:12Z</time>
      </trkpt>
      <trkpt lat="45.92959" lon="3.63602">
        <ele>766.91834</ele>
        <time>2017-04-10T13:50:17Z</time>
      </trkpt>
      <trkpt lat="45.92988" lon="3.63605">
        <ele>766.81953333333</ele>
        <time>2017-04-10T13:50:22Z</time>
      </trkpt>
      <trkpt lat="45.93015" lon="3.63599">
        <ele>766.0206</ele>
        <time>2017-04-10T13:50:26Z</time>
      </trkpt>
      <trkpt lat="45.9302" lon="3.63596">
        <ele>766.02081333333</ele>
        <time>2017-04-10T13:50:31Z</time>
      </trkpt>
      <trkpt lat="45.93061" lon="3.63574">
        <ele>764.52244</ele>
        <time>2017-04-10T13:50:35Z</time>
      </trkpt>
      <trkpt lat="45.93098" lon="3.63556">
        <ele>762.02393333333</ele>
        <time>2017-04-10T13:50:40Z</time>
      </trkpt>
      <trkpt lat="45.93104" lon="3.63554">
        <ele>761.72416</ele>
        <time>2017-04-10T13:50:47Z</time>
      </trkpt>
      <trkpt lat="45.93151" lon="3.63552">
        <ele>762.22602</ele>
        <time>2017-04-10T13:50:50Z</time>
      </trkpt>
      <trkpt lat="45.93173" lon="3.63535">
        <ele>761.5269</ele>
        <time>2017-04-10T13:50:54Z</time>
      </trkpt>
      <trkpt lat="45.93199" lon="3.63517">
        <ele>760.52795333333</ele>
        <time>2017-04-10T13:50:58Z</time>
      </trkpt>
      <trkpt lat="45.93221" lon="3.63503">
        <ele>760.32884</ele>
        <time>2017-04-10T13:51:01Z</time>
      </trkpt>
      <trkpt lat="45.93246" lon="3.6349">
        <ele>758.72984</ele>
        <time>2017-04-10T13:51:05Z</time>
      </trkpt>
      <trkpt lat="45.93305" lon="3.63454">
        <ele>755.83220666667</ele>
        <time>2017-04-10T13:51:12Z</time>
      </trkpt>
      <trkpt lat="45.93319" lon="3.63446">
        <ele>754.93274666667</ele>
        <time>2017-04-10T13:51:14Z</time>
      </trkpt>
      <trkpt lat="45.93325" lon="3.63442">
        <ele>754.63301333333</ele>
        <time>2017-04-10T13:51:19Z</time>
      </trkpt>
      <trkpt lat="45.93382" lon="3.63401">
        <ele>749.03526</ele>
        <time>2017-04-10T13:51:23Z</time>
      </trkpt>
      <trkpt lat="45.93403" lon="3.63389">
        <ele>746.23611333333</ele>
        <time>2017-04-10T13:51:27Z</time>
      </trkpt>
      <trkpt lat="45.93441" lon="3.6337">
        <ele>741.93763333333</ele>
        <time>2017-04-10T13:51:32Z</time>
      </trkpt>
      <trkpt lat="45.93472" lon="3.63369">
        <ele>739.33889333333</ele>
        <time>2017-04-10T13:51:36Z</time>
      </trkpt>
      <trkpt lat="45.93505" lon="3.63379">
        <ele>732.74019333333</ele>
        <time>2017-04-10T13:51:40Z</time>
      </trkpt>
      <trkpt lat="45.93536" lon="3.63397">
        <ele>729.94142</ele>
        <time>2017-04-10T13:51:44Z</time>
      </trkpt>
      <trkpt lat="45.93563" lon="3.63423">
        <ele>726.0425</ele>
        <time>2017-04-10T13:51:48Z</time>
      </trkpt>
      <trkpt lat="45.93579" lon="3.63422">
        <ele>724.44314</ele>
        <time>2017-04-10T13:51:52Z</time>
      </trkpt>
      <trkpt lat="45.93585" lon="3.63414">
        <ele>723.34341333333</ele>
        <time>2017-04-10T13:51:54Z</time>
      </trkpt>
      <trkpt lat="45.93595" lon="3.63396">
        <ele>722.74378666667</ele>
        <time>2017-04-10T13:51:58Z</time>
      </trkpt>
      <trkpt lat="45.93602" lon="3.63372">
        <ele>725.34406666667</ele>
        <time>2017-04-10T13:52:02Z</time>
      </trkpt>
      <trkpt lat="45.93604" lon="3.63357">
        <ele>727.54417333333</ele>
        <time>2017-04-10T13:52:07Z</time>
      </trkpt>
      <trkpt lat="45.93608" lon="3.63338">
        <ele>730.54432</ele>
        <time>2017-04-10T13:52:12Z</time>
      </trkpt>
      <trkpt lat="45.93613" lon="3.6333">
        <ele>732.44453333333</ele>
        <time>2017-04-10T13:52:17Z</time>
      </trkpt>
      <trkpt lat="45.93633" lon="3.63324">
        <ele>733.34530666667</ele>
        <time>2017-04-10T13:52:21Z</time>
      </trkpt>
      <trkpt lat="45.93645" lon="3.63322">
        <ele>733.64578</ele>
        <time>2017-04-10T13:52:26Z</time>
      </trkpt>
      <trkpt lat="45.93656" lon="3.63319">
        <ele>734.04624666667</ele>
        <time>2017-04-10T13:52:29Z</time>
      </trkpt>
      <trkpt lat="45.93669" lon="3.63318">
        <ele>733.94674666667</ele>
        <time>2017-04-10T13:52:34Z</time>
      </trkpt>
      <trkpt lat="45.93675" lon="3.63316">
        <ele>733.847</ele>
        <time>2017-04-10T13:52:36Z</time>
      </trkpt>
      <trkpt lat="45.93685" lon="3.63314">
        <ele>733.84740666667</ele>
        <time>2017-04-10T13:52:46Z</time>
      </trkpt>
      <trkpt lat="45.93715" lon="3.63297">
        <ele>735.54860666667</ele>
        <time>2017-04-10T13:52:50Z</time>
      </trkpt>
      <trkpt lat="45.93727" lon="3.63288">
        <ele>736.24908</ele>
        <time>2017-04-10T13:52:54Z</time>
      </trkpt>
      <trkpt lat="45.93735" lon="3.63282">
        <ele>736.14938</ele>
        <time>2017-04-10T13:52:57Z</time>
      </trkpt>
      <trkpt lat="45.93743" lon="3.63275">
        <ele>735.84971333333</ele>
        <time>2017-04-10T13:53:02Z</time>
      </trkpt>
      <trkpt lat="45.93756" lon="3.63264">
        <ele>735.85022666667</ele>
        <time>2017-04-10T13:53:05Z</time>
      </trkpt>
      <trkpt lat="45.93767" lon="3.63256">
        <ele>735.75068666667</ele>
        <time>2017-04-10T13:53:08Z</time>
      </trkpt>
      <trkpt lat="45.93791" lon="3.63241">
        <ele>734.05164</ele>
        <time>2017-04-10T13:53:12Z</time>
      </trkpt>
      <trkpt lat="45.93812" lon="3.63228">
        <ele>732.75246666667</ele>
        <time>2017-04-10T13:53:16Z</time>
      </trkpt>
      <trkpt lat="45.93833" lon="3.63212">
        <ele>732.0533</ele>
        <time>2017-04-10T13:53:20Z</time>
      </trkpt>
      <trkpt lat="45.93853" lon="3.63195">
        <ele>731.05410666667</ele>
        <time>2017-04-10T13:53:25Z</time>
      </trkpt>
      <trkpt lat="45.93858" lon="3.63191">
        <ele>730.85431333333</ele>
        <time>2017-04-10T13:53:27Z</time>
      </trkpt>
      <trkpt lat="45.93874" lon="3.63174">
        <ele>729.55494</ele>
        <time>2017-04-10T13:53:32Z</time>
      </trkpt>
      <trkpt lat="45.93889" lon="3.63149">
        <ele>729.05557333333</ele>
        <time>2017-04-10T13:53:36Z</time>
      </trkpt>
      <trkpt lat="45.93895" lon="3.63141">
        <ele>729.45581333333</ele>
        <time>2017-04-10T13:54:19Z</time>
      </trkpt>
      <trkpt lat="45.93895" lon="3.63141">
        <ele>729.45581333333</ele>
        <time>2017-04-10T13:54:20Z</time>
      </trkpt>
    </trkseg>
  </trk>
</gpx>